[[{"header":{"parameterUnit":"m.s-1","parameterCategory":1,"la1":30.6,"la2":28.766,"lo1":-90.7593,"lo2":-88.6598,"dy":0.0162,"dx":0.0183,"nx":116,"ny":114,"refTime":"2024-07-09T06:00:00:Z","depth":0,"parameterNumber":2,"parameterNumberName":"U-component_of_WINDS"},"data":[0.0,0.0,0.0,0.0,0.0,0.0,0.0,0.0,0.0,0.0,0.0,0.0,0.0,0.0,0.0,0.0,0.0,0.0,0.0,0.0,0.0,0.0,0.0,0.0,0.0,0.0,0.0,0.0,0.0,0.0,0.0,0.0,0.0,0.0,0.0,0.0,0.0,0.0,0.0,0.0,0.0,0.0,0.0,0.0,0.0,0.0,0.0,0.0,0.0,0.0,0.0,0.0,0.0,0.0,0.0,0.0,0.0,0.0,0.0,0.0,0.0,0.0,0.0,0.0,0.0,0.0,0.0,0.0,0.0,0.0,0.0,0.0,0.0,0.0,0.0,0.0,0.0,0.0,0.0,0.0,0.0,0.0,0.0,0.0,0.0,0.0,0.0,0.0,0.0,0.0,0.0,0.0,0.0,0.0,0.0,0.0,0.0,0.0,0.0,0.0,0.0,0.0,0.0,0.0,0.0,0.0,0.0,0.0,0.0,0.0,0.0,0.0,0.0,0.0,0.0,0.0,0.0,0.0,0.0,0.0,0.0,0.0,0.0,0.0,0.0,0.0,0.0,0.0,0.0,0.0,0.0,0.0,0.0,0.0,0.0,0.0,0.0,0.0,0.0,0.0,0.0,0.0,0.0,0.0,0.0,0.0,0.0,0.0,0.0,0.0,0.0,0.0,0.0,0.0,0.0,0.0,0.0,0.0,0.0,0.0,0.0,0.0,0.0,0.0,0.0,0.0,0.0,0.0,0.0,0.0,0.0,0.0,0.0,0.0,0.0,0.0,0.0,0.0,0.0,0.0,0.0,0.0,0.0,0.0,0.0,0.0,0.0,0.0,0.0,0.0,0.0,0.0,0.0,0.0,0.0,0.0,0.0,0.0,0.0,0.0,0.0,0.0,0.0,0.0,0.0,0.0,0.0,0.0,0.0,0.0,0.0,0.0,0.0,0.0,0.0,0.0,0.0,0.0,0.0,0.0,0.0,0.0,0.0,0.0,0.0,0.0,0.0,0.0,0.0,0.0,0.0,0.0,0.0,0.0,0.0,0.0,0.0,0.0,0.0,0.0,0.0,0.0,0.0,0.0,0.0,0.0,0.0,0.0,0.0,0.0,0.0,0.0,0.0,0.0,0.0,0.0,0.0,0.0,0.0,0.0,0.0,0.0,0.0,0.0,0.0,0.0,0.0,0.0,0.0,0.0,0.0,0.0,0.0,0.0,0.0,0.0,0.0,0.0,0.0,0.0,0.0,0.0,0.0,0.0,0.0,0.0,0.0,0.0,0.0,0.0,0.0,0.0,0.0,0.0,0.0,0.0,0.0,0.0,0.0,0.0,0.0,0.0,0.0,0.0,0.0,0.0,0.0,0.0,0.0,0.0,0.0,0.0,0.0,0.0,0.0,0.0,0.0,0.0,0.0,0.0,0.0,0.0,0.0,0.0,0.0,0.0,0.0,0.0,0.0,0.0,0.0,0.0,0.0,0.0,0.0,0.0,0.0,0.0,0.0,0.0,0.0,0.0,0.0,0.0,0.0,0.0,0.0,0.0,0.0,0.0,0.0,0.0,0.0,0.0,0.0,0.0,0.0,0.0,0.0,0.0,0.0,0.0,0.0,0.0,0.0,0.0,0.0,0.0,0.0,0.0,0.0,0.0,0.0,0.0,0.0,0.0,0.0,0.0,0.0,0.0,0.0,0.0,0.0,0.0,0.0,0.0,0.0,0.0,0.0,0.0,0.0,0.0,0.0,0.0,0.0,0.0,0.0,0.0,0.0,0.0,0.0,0.0,0.0,0.0,0.0,0.0,0.0,0.0,0.0,0.0,0.0,0.0,0.0,0.0,0.0,0.0,0.0,0.0,0.0,0.0,0.0,0.0,0.0,0.0,0.0,0.0,0.0,0.0,0.0,0.0,0.0,0.0,0.0,0.0,0.0,0.0,0.0,0.0,0.0,0.0,0.0,0.0,0.0,0.0,0.0,0.0,0.0,0.0,0.0,0.0,0.0,0.0,0.0,0.0,0.0,0.0,0.0,0.0,0.0,0.0,0.0,0.0,0.0,0.0,0.0,0.0,0.0,0.0,0.0,0.0,0.0,0.0,0.0,0.0,0.0,0.0,0.0,0.0,0.0,0.0,0.0,0.0,0.0,0.0,0.0,0.0,0.0,0.0,0.0,0.0,0.0,0.0,0.0,0.0,0.0,0.0,0.0,0.0,0.0,0.0,0.0,0.0,0.0,0.0,0.0,0.0,0.0,0.0,0.0,0.0,0.0,0.0,0.0,0.0,0.0,0.0,0.0,0.0,0.0,0.0,0.0,0.0,0.0,0.0,0.0,0.0,0.0,0.0,0.0,0.0,0.0,0.0,0.0,0.0,0.0,0.0,0.0,0.0,0.0,0.0,0.0,0.0,0.0,0.0,0.0,0.0,0.0,0.0,0.0,0.0,0.0,0.0,0.0,0.0,0.0,0.0,0.0,0.0,0.0,0.0,0.0,0.0,0.0,0.0,0.0,0.0,0.0,0.0,0.0,0.0,0.0,0.0,0.0,0.0,0.0,0.0,0.0,0.0,0.0,0.0,0.0,0.0,0.0,0.0,0.0,0.0,0.0,0.0,0.0,0.0,0.0,0.0,0.0,0.0,0.0,0.0,0.0,0.0,0.0,0.0,0.0,0.0,0.0,0.0,0.0,0.0,0.0,0.0,0.0,0.0,0.0,0.0,0.0,0.0,0.0,0.0,0.0,0.0,0.0,0.0,0.0,0.0,0.0,0.0,0.0,0.0,0.0,0.0,0.0,0.0,0.0,0.0,0.0,0.0,0.0,0.0,0.0,0.0,0.0,0.0,0.0,0.0,0.0,0.0,0.0,0.0,0.0,0.0,0.0,0.0,0.0,0.0,0.0,0.0,0.0,0.0,0.0,0.0,0.0,0.0,0.0,0.0,0.0,0.0,0.0,0.0,0.0,0.0,0.0,0.0,0.0,0.0,0.0,0.0,0.0,0.0,0.0,0.0,0.0,0.0,0.0,0.0,0.0,0.0,0.0,0.0,0.0,0.0,0.0,0.0,0.0,0.0,0.0,0.0,0.0,0.0,0.0,0.0,0.0,0.0,0.0,0.0,0.0,0.0,0.0,0.0,0.0,0.0,0.0,0.0,0.0,0.0,0.0,0.0,0.0,0.0,0.0,0.0,0.0,0.0,0.0,0.0,0.0,0.0,0.0,0.0,0.0,0.0,0.0,0.0,0.0,0.0,0.0,0.0,0.0,0.0,0.0,0.0,0.0,0.0,0.0,0.0,0.0,0.0,0.0,0.0,0.0,0.0,0.0,0.0,0.0,0.0,0.0,0.0,0.0,0.0,0.0,0.0,0.0,0.0,0.0,0.0,0.0,0.0,0.0,0.0,0.0,0.0,0.0,0.0,0.0,0.0,0.0,0.0,0.0,0.0,0.0,0.0,0.0,0.0,0.0,0.0,0.0,0.0,0.0,0.0,0.0,0.0,0.0,0.0,0.0,0.0,0.0,0.0,0.0,0.0,0.0,0.0,0.0,0.0,0.0,0.0,0.0,0.0,0.0,0.0,0.0,0.0,0.0,0.0,0.0,0.0,0.0,0.0,0.0,0.0,0.0,0.0,0.0,0.0,0.0,0.0,0.0,0.0,0.0,0.0,0.0,0.0,0.0,0.0,0.0,0.0,0.0,0.0,0.0,0.0,0.0,0.0,0.0,0.0,0.0,0.0,0.0,0.0,0.0,0.0,0.0,0.0,0.0,0.0,0.0,0.0,0.0,0.0,0.0,0.0,0.0,0.0,0.0,0.0,0.0,0.0,0.0,0.0,0.0,0.0,0.0,0.0,0.0,0.0,0.0,0.0,0.0,0.0,0.0,0.0,0.0,0.0,0.0,0.0,0.0,0.0,0.0,0.0,0.0,0.0,0.0,0.0,0.0,0.0,0.0,0.0,0.0,0.0,0.0,0.0,0.0,0.0,0.0,0.0,0.0,0.0,0.0,0.0,0.0,0.0,0.0,0.0,0.0,0.0,0.0,0.0,0.0,0.0,0.0,0.0,0.0,0.0,0.0,0.0,0.0,0.0,0.0,0.0,0.0,0.0,0.0,0.0,0.0,0.0,0.0,0.0,0.0,0.0,0.0,0.0,0.0,0.0,0.0,0.0,0.0,0.0,0.0,0.0,0.0,0.0,0.0,0.0,0.0,0.0,0.0,0.0,0.0,0.0,0.0,0.0,0.0,0.0,0.0,0.0,0.0,0.0,0.0,0.0,0.0,0.0,0.0,0.0,0.0,0.0,0.0,0.0,0.0,0.0,0.0,0.0,0.0,0.0,0.0,0.0,0.0,0.0,0.0,0.0,0.0,0.0,0.0,0.0,0.0,0.0,0.0,0.0,0.0,0.0,0.0,0.0,0.0,0.0,0.0,0.0,0.0,0.0,0.0,0.0,0.0,0.0,0.0,0.0,0.0,0.0,0.0,0.0,0.0,0.0,0.0,0.0,0.0,0.0,0.0,0.0,0.0,0.0,0.0,0.0,0.0,0.0,0.0,0.0,0.0,0.0,0.0,0.0,0.0,0.0,0.0,0.0,0.0,0.0,0.0,0.0,0.0,0.0,0.0,0.0,0.0,0.0,0.0,0.0,0.0,0.0,0.0,0.0,0.0,0.0,0.0,0.0,0.0,0.0,0.0,0.0,0.0,0.0,0.0,0.0,0.0,0.0,0.0,0.0,0.0,0.0,0.0,0.0,0.0,0.0,0.0,0.0,0.0,0.0,0.0,0.0,0.0,0.0,0.0,0.0,0.0,0.0,0.0,0.0,0.0,0.0,0.0,0.0,0.0,0.0,0.0,0.0,0.0,0.0,0.0,0.0,0.0,0.0,0.0,0.0,0.0,0.0,0.0,0.0,0.0,0.0,0.0,0.0,0.0,0.0,0.0,0.0,0.0,0.0,0.0,0.0,0.0,0.0,0.0,0.0,0.0,0.0,0.0,0.0,0.0,0.0,0.0,0.0,0.0,0.0,0.0,0.0,0.0,0.0,0.0,0.0,0.0,0.0,0.0,0.0,0.0,0.0,0.0,0.0,0.0,0.0,0.0,0.0,0.0,0.0,0.0,0.0,0.0,0.0,0.0,0.0,0.0,0.0,0.0,0.0,0.0,0.0,0.0,0.0,0.0,0.0,0.0,0.0,0.0,0.0,0.0,0.0,0.0,0.0,0.0,0.0,0.0,0.0,0.0,0.0,0.0,0.0,0.0,0.0,0.0,0.0,0.0,0.0,0.0,0.0,0.0,0.0,0.0,0.0,0.0,0.0,0.0,0.0,0.0,0.0,0.0,0.0,0.0,0.0,0.0,0.0,0.0,0.0,0.0,0.0,0.0,0.0,0.0,0.0,0.0,0.0,0.0,0.0,0.0,0.0,0.0,0.0,0.0,0.0,0.0,0.0,0.0,0.0,0.0,0.0,0.0,0.0,0.0,0.0,0.0,0.0,0.0,0.0,0.0,0.0,0.0,0.0,0.0,0.0,0.0,0.0,0.0,0.0,0.0,0.0,0.0,0.0,0.0,0.0,0.0,0.0,0.0,0.0,0.0,0.0,0.0,0.0,0.0,0.0,0.0,0.0,0.0,0.0,0.0,0.0,0.0,0.0,0.0,0.0,0.0,0.0,0.0,0.0,0.0,0.0,0.0,0.0,0.0,0.0,0.0,0.0,0.0,0.0,0.0,0.0,0.0,0.0,0.0,0.0,0.0,0.0,0.0,0.0,0.0,0.0,0.0,0.0,0.0,0.0,0.0,0.0,0.0,0.0,0.0,0.0,0.0,0.0,0.0,0.0,0.0,0.0,0.0,0.0,0.0,0.0,0.0,0.0,0.0,0.0,0.0,0.0,0.0,0.0,0.0,0.0,0.0,0.0,0.0,0.0,0.0,0.0,0.0,0.0,0.0,0.0,0.0,0.0,0.0,0.0,0.0,0.0,0.0,0.0,0.0,0.0,0.0,0.0,0.0,0.0,0.0,0.0,0.0,0.0,0.0,0.0,0.0,0.0,0.0,0.0,0.0,0.0,0.0,0.0,0.0,0.0,0.0,0.0,0.0,0.0,0.0,0.0,0.8415,0.0,0.0,0.0,0.0,0.0,0.0,0.0,0.0,0.0,0.0,0.0,0.0,0.0,0.0,0.0,0.0,0.0,0.0,0.0,0.0,0.0,0.0,0.0,0.0,0.1307,0.144,0.1779,0.1803,0.1803,0.1803,0.0,0.0,0.0,0.0,0.0,0.2583,0.2789,0.2975,0.319,0.3352,0.3602,0.3924,0.387,0.3742,0.3541,0.0,0.0,0.0,0.0,0.0,0.0,0.0,0.0,0.0,0.0,0.0,0.0,0.0,0.0,0.0,0.0,0.0,0.0,0.0,0.0,0.0,0.0,0.0,0.0,0.0,0.0,0.0,0.0,0.0,0.0,0.0,0.0,0.0,0.0,0.0,0.0,0.0,0.0,0.0,0.0,0.0,0.0,0.0,0.0,0.0,0.0,0.0,0.0,0.0,0.0,0.0,0.0,0.0,0.0,0.0,0.0,0.0,0.0,0.0,0.0,0.0,0.0,0.0,0.0,0.0,0.0,0.0,0.0,0.0,0.0,0.0,0.7501,0.0,0.0,0.0,0.0,0.0,0.0,0.0,0.0,0.0,0.0,0.0,0.0,0.0,0.0,0.0,0.0,0.0,0.0,0.0,0.0,0.0,0.1025,0.1277,0.133,0.147,0.1779,0.1825,0.1825,0.1825,0.0,0.0,0.0,0.0,0.2621,0.2794,0.3052,0.3313,0.3555,0.3725,0.4062,0.4553,0.433,0.0,0.0,0.3645,0.0,0.0,0.0,0.0,0.0,0.0,0.0,0.0,0.0,0.0,0.0,0.0,0.0,0.0,0.0,0.0,0.0,0.0,0.0,0.0,0.0,0.0,0.0,0.0,0.0,0.0,0.0,0.0,0.0,0.0,0.0,0.0,0.0,0.0,0.0,0.0,0.0,0.0,0.0,0.0,0.0,0.0,0.0,0.0,0.0,0.0,0.0,0.0,0.0,0.0,0.0,0.0,0.0,0.0,0.0,0.0,0.0,0.0,0.0,0.0,0.0,0.0,0.0,1.1593,1.1661,1.1653,1.1396,1.0945,1.0132,0.7881,0.8036,0.9959,1.0692,0.0,0.0,0.0,0.0,0.0,0.0,0.0,0.0,0.0,0.0,0.0,0.0,0.0,0.0,0.0,0.0,0.0,0.0,0.0,0.1136,0.1287,0.1458,0.1644,0.1858,0.1894,0.1894,0.1894,0.2044,0.0,0.0,0.2642,0.2772,0.2794,0.3052,0.3269,0.3416,0.3961,0.4251,0.4343,0.0,0.0,0.0,0.414,0.4243,0.0,0.0,0.0,0.0,0.0,0.0,0.0,0.0,0.0,0.0,0.0,0.0,0.0,0.0,0.0,0.0,0.0,0.0,0.0,0.0,0.0,0.0,0.0,0.0,0.0,0.0,0.0,0.0,0.0,0.0,0.0,0.0,0.0,0.0,0.0,0.0,0.0,0.0,0.0,0.0,0.0,0.0,0.5873,0.677,0.0,0.0,0.0,0.0,0.0,0.0,0.0,0.0,0.0,0.0,0.0,0.0,0.0,1.0867,1.1261,1.1707,1.1962,1.1995,1.2811,1.3211,1.3168,1.1867,1.173,1.2458,1.2427,0.0,0.9264,1.0658,0.0,0.0,0.0,0.0,0.0,0.0,0.0,0.0,0.0,0.0,0.0,0.0,0.0,0.0,0.0,0.0,0.0,0.0,0.0,0.0,0.0,0.1598,0.1745,0.1949,0.1964,0.1964,0.0,0.0,0.0,0.2333,0.2534,0.2621,0.2621,0.2853,0.3263,0.3836,0.4486,0.4831,0.0,0.0,0.0,0.0,0.5069,0.4792,0.0,0.0,0.0,0.0,0.0,0.0,0.0,0.0,0.0,0.0,0.0,0.0,0.0,0.0,0.0,0.0,0.0,0.0,0.0,0.0,0.0,0.0,0.0,0.0,0.0,0.0,0.0,0.0,0.0,0.0,0.0,0.0,0.0,0.0,0.0,0.0,0.0,0.0,0.0,0.0,0.0,0.5994,0.6686,0.7346,0.744,0.7427,0.0,0.0,0.0,0.0,0.0,0.0,0.0,0.0,0.0,1.0731,1.2279,1.311,1.311,1.3332,1.3451,1.3451,1.3497,1.3511,1.3485,1.2826,1.2763,1.3223,1.3425,1.2757,1.1524,1.1345,1.1222,1.1191,0.0,0.0,0.0,0.0,0.8936,1.005,0.0,0.0,0.0,0.0,0.0,0.0,0.0,0.0,0.0,0.0,0.0,0.0,0.1666,0.1748,0.1847,0.2019,0.0,0.0,0.0,0.0,0.0,0.2193,0.2398,0.2468,0.2403,0.2784,0.3425,0.0,0.0,0.0,0.0,0.0,0.0,0.0,0.0,0.0,0.0,0.0,0.0,0.0,0.0,0.0,0.0,0.0,0.0,0.0,0.0,0.0,0.0,0.0,0.0,0.0,0.0,0.0,0.0,0.0,0.0,0.0,0.0,0.0,0.0,0.0,0.0,0.0,0.0,0.0,0.0,0.0,0.0,0.0,0.0,0.0,0.0,0.0,0.0,0.0,0.0,0.6804,0.7405,0.8174,0.8405,0.8432,0.0,0.0,0.0,0.0,0.0,0.0,1.1181,1.1438,1.1818,1.2379,1.3561,1.4236,1.4258,1.4258,1.4258,1.4258,1.3761,1.3511,1.3511,1.3511,1.3511,1.3511,1.3511,1.3511,1.3417,1.2303,1.185,1.1939,1.2812,1.2504,1.1402,1.0041,1.0522,1.185,0.0,0.0,0.0,0.0,0.0,0.0,0.0,0.0,0.0,0.0,0.0,0.1673,0.0,0.0,0.0,0.0,0.0,0.0,0.0,0.0,0.0,0.2193,0.2398,0.2376,0.2124,0.2993,0.0,0.0,0.0,0.0,0.0,0.0,0.0,0.0,0.0,0.0,0.0,0.0,0.0,0.0,0.0,0.0,0.0,0.0,0.0,0.0,0.0,0.0,0.0,0.0,0.0,0.0,0.0,0.0,0.0,0.0,0.0,0.0,0.0,0.0,0.0,0.0,0.0,0.0,0.0,0.0,0.0,0.0,0.0,0.0,0.0,0.0,0.0,0.0,0.0,0.0,0.0,0.0,0.0,0.9591,0.9393,0.0,0.0,0.0,0.0,0.9726,1.0747,1.1486,1.166,1.2475,1.3023,1.3231,1.3314,1.3426,1.3563,1.3571,1.3571,1.3571,1.3511,1.3511,1.3511,1.3511,1.3511,1.3511,1.3511,1.3511,1.3502,1.3425,1.3399,1.3391,1.3467,1.3433,1.333,1.3253,1.3322,1.3399,0.0,0.0,0.0,0.0718,0.0773,0.0796,0.0796,0.0935,0.1082,0.1214,0.1474,0.0,0.0,0.0,0.0,0.0,0.0,0.0,0.0,0.0,0.2279,0.2212,0.2382,0.2646,0.2983,0.363,0.4189,0.0,0.0,0.0,0.0,0.0,0.0,0.0,0.0,0.0,0.0,0.0,0.0,0.0,0.0,0.0,0.0,0.0,0.0,0.0,0.0,0.0,0.0,0.0,0.0,0.0,0.0,0.0,0.0,0.0,0.0,0.0,0.0,0.0,0.0,0.0,0.0,0.0,0.0,0.0,0.0,0.0,0.0,0.0,0.0,0.0,0.0,0.0,0.0,0.0,0.0,0.0,0.0,1.0143,1.0373,0.0,1.0983,1.134,1.1604,1.1648,1.2304,1.2777,1.3083,1.3331,1.3521,1.3758,1.3959,1.4096,1.413,1.37,1.37,1.413,1.37,1.3511,1.3511,1.3511,1.3511,1.3511,1.3511,1.3761,1.413,1.413,1.3881,1.3511,1.3511,1.3511,1.3511,1.3511,1.3511,1.3511,0.0729,0.0695,0.0,0.0751,0.0762,0.0773,0.0796,0.0976,0.1155,0.131,0.1572,0.1807,0.0,0.0,0.0,0.0,0.0,0.0,0.0,0.0,0.2235,0.221,0.25,0.2953,0.3556,0.3993,0.0,0.0,0.0,0.0,0.0,0.0,0.0,0.0,0.0,0.0,0.0,0.0,0.0,0.0,0.0,0.0,0.5479,0.0,0.0,0.0,0.0,0.0,0.0,0.0,0.0,0.0,0.0,0.0,0.0,0.0,0.0,0.0,0.0,0.0,0.0,0.0,0.0,0.0,0.0,0.0,0.0,0.0,0.0,0.0,0.0,0.0,0.0,0.0,0.0,0.0,0.0,0.0,0.953,1.0262,1.0877,1.1281,1.1456,1.2158,1.2538,1.2455,1.3059,1.3505,1.3642,1.3887,1.4005,1.4189,1.4139,1.4258,1.4515,1.407,1.407,1.4506,1.407,1.3821,1.3821,1.3821,1.3821,1.3821,1.3821,1.407,1.4515,1.4515,1.4258,1.3821,1.3692,1.3761,1.3821,1.3571,1.3511,1.3511,0.067,0.0706,0.0706,0.0706,0.0706,0.0718,0.0784,0.1079,0.1323,0.1393,0.1739,0.0,0.0,0.0,0.0,0.0,0.0,0.0,0.0,0.2168,0.2214,0.2229,0.2737,0.326,0.3728,0.0,0.0,0.0,0.0,0.0,0.0,0.0,0.0,0.0,0.0,0.0,0.0,0.0,0.0,0.0,0.0,0.0,0.5753,0.0,0.0,0.0,0.0,0.0,0.0,0.0,0.0,0.0,0.0,0.0,0.0,0.0,0.0,0.0,0.0,0.0,0.0,0.0,0.0,0.0,0.0,0.0,0.0,0.0,0.0,0.0,0.0,0.0,0.0,0.0,0.0,0.0,0.918,0.9564,0.9891,1.0138,1.0927,1.1312,1.081,1.1691,1.2222,1.1996,1.3015,1.3566,1.3226,1.401,1.4515,1.4515,1.3881,1.3821,1.4506,1.4515,1.4455,1.4387,1.4387,1.4387,1.4387,1.4455,1.4455,1.4387,1.4455,1.4483,1.4399,1.4441,1.4474,1.4387,1.4139,1.4198,1.4446,1.3761,1.3511,1.3511,0.0682,0.0706,0.0706,0.0706,0.0706,0.0706,0.0729,0.1018,0.1254,0.1323,0.0,0.0,0.0,0.0,0.0,0.0,0.0,0.0,0.2247,0.0,0.229,0.2835,0.3492,0.0,0.0,0.0,0.0,0.0,0.0,0.0,0.0,0.0,0.0,0.0,0.0,0.0,0.0,0.0,0.0,0.0,0.0,0.0,0.5863,0.0,0.0,0.0,0.0,0.0,0.0,0.0,0.0,0.0,0.0,0.0,0.0,0.0,0.0,0.0,0.0,0.0,0.0,0.0,0.0,0.0,0.0,0.0,0.0,0.0,0.0,0.0,0.0,0.0,0.0,0.0,0.8753,0.9011,0.951,0.9888,1.0516,1.1414,1.1345,1.1639,1.2613,1.2535,1.2812,1.3723,1.3501,1.3169,1.2749,1.3821,1.4515,1.4515,1.4327,1.4318,1.4515,1.4515,1.3519,1.167,1.167,1.167,1.1732,1.3649,1.3459,1.1794,1.3709,1.3874,1.2961,1.3481,1.3416,1.3139,1.401,1.4446,1.4455,1.4258,1.3941,1.3511,0.074,0.0718,0.0706,0.0706,0.0706,0.0706,0.074,0.1033,0.1273,0.1373,0.172,0.0,0.0,0.0,0.0,0.0,0.0,0.0,0.222,0.2267,0.2683,0.0,0.0,0.0,0.0,0.0,0.0,0.0,0.0,0.0,0.0,0.0,0.0,0.0,0.0,0.0,0.0,0.0,0.0,0.0,0.0,0.0,0.6147,0.5914,0.5881,0.5936,0.5746,0.5556,0.5333,0.5102,0.0,0.0,0.0,0.0,0.0,0.0,0.0,0.0,0.0,0.0,0.0,0.0,0.0,0.0,0.0,0.0,0.0,0.0,0.0,0.0,0.0,0.0,0.0,0.0,0.9235,0.9566,1.0219,1.049,1.0792,1.1212,1.1247,1.1524,1.2205,1.2151,1.2458,1.3329,1.307,1.3009,1.3321,1.407,1.4515,1.4515,1.3459,1.2842,1.2842,1.2842,1.2104,1.0631,1.1056,1.1289,1.1357,1.2874,1.2742,1.1425,1.294,1.3111,1.2331,1.2986,1.3072,0.0,0.0,0.0,0.0,0.0,1.358,1.3025,0.0796,0.0751,0.0718,0.0718,0.0706,0.0729,0.0784,0.1093,0.134,0.1476,0.0,0.0,0.0,0.0,0.0,0.0,0.0,0.0,0.0,0.0,0.0,0.0,0.0,0.0,0.0,0.0,0.0,0.0,0.0,0.0,0.0,0.0,0.0,0.0,0.0,0.0,0.0,0.0,0.0,0.0,0.0,0.0,0.6447,0.62,0.615,0.6184,0.6474,0.6127,0.5573,0.5579,0.0,0.0,0.0,0.0,0.0,0.0,0.0,0.0,0.0,0.0,0.0,0.0,0.0,0.0,0.0,0.0,0.0,0.0,0.0,0.0,0.0,0.0,0.0,0.0,0.9624,1.0309,1.0941,1.1068,1.0827,1.035,1.0946,1.124,1.0744,1.1115,1.1567,1.1917,1.222,1.2854,1.4082,0.0,0.0,0.0,0.0,1.0819,1.0819,1.0819,1.0819,1.0768,1.181,1.2305,1.2305,1.2305,1.2305,1.2305,1.2305,1.2305,1.2345,1.2756,1.3013,1.3243,1.3097,1.2569,1.2081,1.2773,1.2765,1.2359,0.0796,0.0784,0.0784,0.0784,0.074,0.0729,0.0784,0.1093,0.134,0.1476,0.1802,0.0,0.0,0.0,0.0,0.0,0.0,0.0,0.0,0.0,0.0,0.0,0.0,0.0,0.0,0.0,0.0,0.0,0.0,0.0,0.0,0.0,0.0,0.0,0.0,0.0,0.0,0.0,0.0,0.0,0.0,0.0,0.6449,0.6754,0.6944,0.7033,0.6956,0.7059,0.7213,0.7246,0.7369,0.7487,0.7044,0.0,0.0,0.0,0.0,0.0,0.0,0.0,0.0,0.0,0.0,0.0,0.0,0.0,0.0,0.0,0.0,0.0,0.0,0.0,0.0,0.9888,1.0041,1.0262,1.0628,1.0725,1.0843,1.121,1.0954,1.0933,1.1303,1.0996,1.1192,1.2288,1.1731,1.1539,1.1973,1.1981,1.1818,1.138,1.1744,1.1964,1.1964,1.1964,1.1964,1.1971,0.0,0.0,1.2305,1.2305,1.2305,1.2305,1.2305,1.2305,1.2298,1.243,1.2312,1.2235,1.2848,1.2845,1.2513,1.1987,1.1888,1.1841,0.0854,0.0818,0.0796,0.0796,0.0773,0.0794,0.0932,0.1149,0.1367,0.1566,0.1807,0.0,0.0,0.0,0.0,0.0,0.0,0.0,0.0,0.0,0.0,0.0,0.0,0.0,0.0,0.0,0.0,0.0,0.0,0.0,0.0,0.0,0.0,0.0,0.0,0.0,0.0,0.0,0.0,0.0,0.0,0.0,0.6329,0.6622,0.6626,0.6508,0.6385,0.6502,0.6702,0.6702,0.7138,0.7717,0.771,0.7279,0.6581,0.0,0.0,0.0,0.0,0.0,0.0,0.0,0.0,0.0,0.0,0.0,0.0,0.0,0.0,0.8704,0.9355,0.0,0.9917,1.0165,1.0262,1.0388,1.0604,1.0624,1.0681,1.0996,1.0807,1.0751,1.0989,1.088,1.107,1.1765,1.158,1.155,1.185,1.1864,1.173,1.1443,1.1997,1.2305,1.2305,1.2305,1.2305,1.2305,1.2305,1.2305,1.2305,1.2305,1.2305,1.2305,1.2305,1.2305,1.2305,1.2305,1.2218,1.2143,1.2324,1.2185,1.1829,1.1345,1.1224,1.1231,0.0899,0.0854,0.0818,0.0807,0.0796,0.0864,0.1075,0.1211,0.1391,0.1669,0.1814,0.1982,0.2154,0.1935,0.1816,0.0,0.0,0.0,0.0,0.0,0.0,0.0,0.0,0.0,0.0,0.0,0.0,0.0,0.0,0.0,0.0,0.0,0.0,0.0,0.0,0.0,0.0,0.0,0.0,0.0,0.0,0.0,0.6176,0.6416,0.6288,0.5954,0.5954,0.5836,0.5712,0.57,0.6416,0.7321,0.7304,0.7295,0.7163,0.6407,0.6188,0.0,0.0,0.0,0.0,0.0,0.0,0.0,0.0,0.0,0.8587,0.91,0.9438,0.9692,0.9903,1.0363,1.0597,1.0248,1.0408,1.0624,1.0624,1.0624,1.0624,1.0624,1.0624,1.0645,1.0641,1.0855,1.1069,1.1263,1.157,1.1911,1.2285,1.2305,1.2305,1.2305,1.2305,1.2305,1.2305,1.2305,1.2305,1.2305,1.2305,1.2305,1.2305,1.2305,1.2305,1.2305,1.2305,1.2305,1.2305,1.2305,1.2305,1.2224,1.1855,1.1499,1.1172,1.0906,1.0779,1.0667,0.0899,0.0899,0.0865,0.0807,0.0796,0.0864,0.1075,0.1211,0.1391,0.1669,0.1814,0.1964,0.21,0.1872,0.1695,0.0,0.0,0.0,0.0,0.0,0.0,0.0,0.0,0.0,0.0,0.0,0.0,0.0,0.0,0.0,0.0,0.0,0.0,0.0,0.0,0.0,0.0,0.0,0.0,0.0,0.0,0.0,0.6009,0.6763,0.6977,0.6929,0.6929,0.639,0.568,0.5712,0.5782,0.5925,0.591,0.592,0.6146,0.7185,0.0,0.668,0.6784,0.7351,0.7972,0.829,0.861,0.8964,0.0,0.0,0.9398,0.9588,0.9647,0.9782,1.0026,1.0127,1.0262,1.053,1.0604,1.0624,1.0624,1.0624,1.0624,1.0624,1.0624,1.0661,1.0922,1.0975,1.1216,1.175,1.183,1.1984,1.2285,1.2305,1.2305,1.2305,1.2305,1.2305,1.2305,1.2305,1.2305,1.2305,1.2305,1.2305,1.2305,1.2305,1.2305,1.2305,1.2305,1.2305,1.2305,1.2305,1.2305,1.2224,1.1855,1.1668,1.1586,1.0906,1.0526,1.0327,0.0899,0.0899,0.0888,0.0865,0.0854,0.094,0.1178,0.1267,0.1403,0.1716,0.1808,0.1872,0.1964,0.1803,0.1648,0.15,0.0,0.0,0.0,0.0,0.0,0.0,0.0,0.0,0.0,0.0,0.0,0.0,0.0,0.0,0.0,0.0,0.0,0.0,0.0,0.0,0.0,0.0,0.0,0.0,0.0,0.0,0.5356,0.6599,0.7074,0.7106,0.7115,0.6852,0.0,0.0,0.5712,0.5701,0.5685,0.5688,0.5826,0.6386,0.6902,0.0,0.809,0.8629,0.9071,0.0,0.9695,0.9945,1.0079,1.0194,1.0247,1.0151,1.0254,1.035,1.0354,1.0374,1.0414,0.0,1.0624,1.0624,1.0624,1.0624,1.0624,1.0624,1.0624,1.0672,1.0728,1.1049,1.1349,1.159,1.1931,1.2178,1.2291,1.2305,1.2305,1.2305,1.2305,1.2305,1.2305,1.2305,1.2305,1.2305,1.2305,1.2305,1.2305,1.2305,1.2305,1.2305,1.2305,1.2305,1.2305,1.2305,1.2305,1.2305,1.2003,1.1781,1.162,1.1132,1.0882,1.0785,0.0899,0.0899,0.0899,0.0899,0.0899,0.0971,0.1207,0.128,0.1414,0.171,0.1779,0.1825,0.1872,0.1718,0.1563,0.141,0.1492,0.1615,0.0,0.0,0.0,0.0,0.0,0.0,0.0,0.0,0.0,0.0,0.0,0.0,0.0,0.0,0.0,0.0,0.0,0.0,0.0,0.0,0.0,0.0,0.0,0.0,0.4522,0.571,0.615,0.623,0.6883,0.6912,0.0,0.0,0.5702,0.571,0.571,0.5695,0.5754,0.5954,0.6856,0.7909,0.8692,0.0,0.0,0.9936,1.0364,1.0726,1.0552,1.073,1.0898,1.0669,1.0719,1.087,1.0681,1.0681,1.0624,1.0624,1.0624,1.0624,1.0624,1.0624,1.0624,1.0624,1.0624,1.0624,1.0624,1.1009,1.1369,1.1536,1.1944,1.2218,1.2298,1.2305,1.2305,1.2305,1.2305,1.2305,1.2305,1.2305,1.2305,1.2305,1.2305,1.2305,1.2305,1.2305,1.2305,1.2305,1.2305,1.2305,1.2305,1.2305,1.2305,1.2305,1.2077,1.1855,1.1632,1.1335,1.1186,1.1111,0.0899,0.0899,0.0899,0.0899,0.0899,0.095,0.1082,0.1214,0.138,0.1576,0.1717,0.1803,0.1803,0.1563,0.141,0.141,0.128,0.1303,0.1508,0.1766,0.0,0.0,0.0,0.0,0.0,0.0,0.0,0.0,0.0,0.0,0.0,0.0,0.0,0.0,0.0,0.0,0.0,0.0,0.0,0.0,0.0,0.0,0.3624,0.3702,0.3684,0.4024,0.6303,0.0,0.0,0.0,0.5683,0.5711,0.5711,0.5711,0.0,0.6574,0.73,0.0,0.0,0.0,0.9577,0.9751,1.0463,1.1055,1.0816,1.1059,1.1226,1.1108,1.1122,1.1059,1.0807,1.08,1.0744,1.0624,1.0624,1.0624,1.0624,1.0624,1.0624,1.0624,1.0624,1.0624,1.0624,1.0828,1.1243,1.1817,1.187,1.2004,1.2285,1.2305,1.2305,1.2305,1.2305,1.2305,1.2305,1.2305,1.2305,1.2305,1.2305,1.2305,1.2305,1.2305,1.2305,1.2305,1.2305,1.2305,1.2305,1.2305,1.2305,1.2305,1.2077,1.1855,1.1706,1.1484,1.126,1.1111,0.0899,0.0899,0.0899,0.0899,0.0899,0.0946,0.1075,0.1211,0.1377,0.1569,0.1713,0.0,0.0,0.0,0.0,0.0,0.1565,0.1575,0.1516,0.1881,0.0,0.0,0.0,0.0,0.0,0.0,0.0,0.0,0.0,0.0,0.0,0.0,0.0,0.0,0.0,0.0,0.0,0.0,0.0,0.0,0.0,0.0,0.358,0.3586,0.3388,0.3213,0.0,0.0,0.0,0.0,0.0,0.0,0.5699,0.0,0.0,0.6695,0.0,0.7864,0.839,0.0,0.9669,1.0052,1.0546,1.0967,1.1276,1.1418,1.1435,1.1247,1.124,1.1178,1.1059,1.0996,1.0996,1.0933,1.1106,1.1097,1.0771,1.1084,1.1127,1.0672,1.0902,0.0,1.0868,1.0935,0.0,1.1543,1.1757,1.1997,1.2285,1.2305,1.2305,1.2305,1.2305,1.2305,1.2305,1.2305,1.2305,1.2305,1.2305,1.2305,1.2305,1.2305,1.2305,1.2305,1.2305,1.2305,1.2305,1.2305,1.2305,1.2305,1.2077,1.1855,1.1706,1.1484,1.126,1.1111,0.0899,0.0877,0.0877,0.0899,0.0899,0.0,0.0,0.0,0.0,0.0,0.0,0.0,0.0,0.0,0.0,0.0,0.0,0.1663,0.1487,0.0,0.0,0.0,0.0,0.0,0.0,0.0,0.0,0.0,0.0,0.0,0.0,0.0,0.0,0.0,0.0,0.0,0.0,0.0,0.0,0.0,0.0,0.0,0.3609,0.3623,0.3419,0.0,0.0,0.0,0.0,0.0,0.0,0.0,0.0,0.0,0.0,0.0,0.7321,0.772,0.8344,0.8932,0.9469,0.9871,1.0345,1.087,1.1247,1.1435,1.1531,1.1283,1.12,1.1164,1.0866,1.0784,1.0826,1.0939,1.1157,1.1254,1.0971,1.1389,1.1492,1.0981,1.1196,1.1356,0.0,0.0,0.0,1.1563,1.1764,1.1997,1.2285,1.2305,1.2305,1.2305,1.2305,1.2305,1.2305,1.2305,1.2305,1.2305,1.2305,1.2305,1.2305,1.2305,1.2305,1.2305,1.2305,1.2305,1.2305,1.2305,1.2305,1.2305,1.2077,1.1855,1.1706,1.1484,1.126,1.1111,0.0888,0.0843,0.0818,0.0,0.0,0.0,0.0,0.0,0.0,0.0,0.0,0.0,0.0,0.0,0.0,0.0,0.0,0.0,0.1422,0.0,0.0,0.0,0.0,0.0,0.2054,0.2208,0.0,0.0,0.0,0.0,0.0,0.0,0.0,0.0,0.0,0.0,0.0,0.0,0.0,0.0,0.0,0.0,0.3541,0.3512,0.0,0.0,0.0,0.0,0.0,0.0,0.0,0.0,0.0,0.0,0.0,0.0,0.0,0.7528,0.8088,0.8528,0.8968,0.9209,1.004,1.0744,1.08,1.117,1.1443,1.1136,1.1063,1.0894,1.0408,0.0,1.0422,1.0608,1.0932,1.1121,1.1211,1.1525,1.1648,0.0,0.0,0.0,0.0,0.0,0.0,1.1891,0.0,1.1997,1.2285,1.2305,1.2305,1.2305,1.2305,1.2311,1.2325,1.2325,1.2318,1.2305,1.2305,1.2305,1.2305,1.2305,1.2305,1.2305,1.2305,1.2305,1.2305,1.2305,1.2305,1.2305,1.2077,1.1855,1.1706,1.1484,1.126,1.1111,0.0,0.0,0.0,0.0,0.0,0.0,0.0,0.0,0.0,0.0,0.0,0.0,0.0,0.0,0.0,0.0,0.0,0.0,0.0,0.0,0.0,0.0,0.0,0.0,0.0,0.0,0.0,0.0,0.0,0.0,0.0,0.0,0.0,0.0,0.0,0.0,0.0,0.0,0.0,0.0,0.0,0.0,0.3019,0.0,0.0,0.0,0.0,0.0,0.0,0.0,0.0,0.0,0.0,0.0,0.7042,0.0,0.0,0.7995,0.818,0.8406,0.8692,0.9198,0.9466,0.9849,1.0611,1.0691,1.0749,1.1032,1.088,1.0689,1.0544,1.0726,0.0,1.0936,1.1365,0.0,1.1435,1.1778,0.0,1.145,0.0,1.1991,1.1777,1.1951,0.0,0.0,1.2118,1.1997,1.2285,1.2305,1.2305,1.2305,1.2305,1.2412,1.2708,1.2708,1.2518,1.2305,1.2305,1.2305,1.2305,1.2305,1.2305,1.2305,1.2305,1.2305,1.2305,1.2305,1.2305,1.2305,1.1929,1.1781,1.1632,1.1335,1.1111,1.1111,0.0,0.0,0.0,0.0,0.0,0.0,0.0,0.0,0.0,0.0,0.0,0.0,0.0,0.0,0.0,0.0,0.0,0.0,0.0,0.0,0.0,0.0,0.0,0.0,0.0,0.0,0.0,0.0,0.0,0.0,0.0,0.0,0.0,0.0,0.0,0.0,0.0,0.0,0.0,0.0,0.0,0.0,0.0,0.0,0.0,0.0,0.0,0.0,0.0,0.0,0.0,0.6715,0.6995,0.7242,0.7445,0.7688,0.0,0.8234,0.828,0.8409,0.8576,0.8894,0.9151,0.95,1.0138,1.0295,1.0352,1.0407,1.0404,0.0,0.9833,1.0243,0.0,0.0,0.0,0.0,1.1616,1.1923,1.207,0.0,1.2098,0.0,1.2078,1.2325,1.2565,0.0,1.2513,1.2385,1.2685,1.2699,1.2699,1.2699,1.2699,1.2712,1.2822,1.2822,1.2599,1.2305,1.2305,1.2305,1.2305,1.2305,1.2305,1.2305,0.0,1.2305,1.2305,1.2305,1.2231,1.215,1.1855,1.1632,1.1558,1.1186,1.1111,1.1111,0.0,0.0,0.0,0.0,0.0,0.0,0.0,0.0,0.0,0.1847,0.1825,0.0,0.0,0.0,0.0,0.0,0.0,0.0,0.0,0.0,0.0,0.0,0.0,0.0,0.0,0.0,0.0,0.0,0.0,0.0,0.0,0.0,0.0,0.0,0.0,0.0,0.0,0.0,0.0,0.0,0.0,0.0,0.0,0.0,0.0,0.0,0.0,0.0,0.0,0.0,0.6216,0.6875,0.7458,0.7733,0.7892,0.8191,0.8256,0.8305,0.8458,0.8517,0.8517,0.8517,0.8807,0.9225,0.9445,0.9779,0.9887,0.9578,0.0,0.9672,0.8849,0.9453,1.0013,0.9936,0.0,1.1347,1.1675,1.1929,1.2152,1.2258,1.2305,1.2318,1.2358,1.2592,1.2856,1.2936,1.2943,1.2966,1.32,1.3213,1.3213,1.3213,1.3213,1.306,1.2829,1.2822,1.2599,1.2305,1.2305,1.2305,1.2305,1.2345,1.2338,1.2305,1.2345,1.2338,1.2305,1.2305,1.2157,1.2003,1.1781,1.1558,1.1409,1.1186,1.1111,1.1111,0.0,0.0,0.0,0.0,0.0,0.0,0.0,0.0,0.0,0.0,0.1913,0.1803,0.0,0.0,0.0,0.0,0.0,0.0,0.0,0.0,0.0,0.0,0.0,0.0,0.0,0.0,0.0,0.0,0.0,0.0,0.0,0.0,0.0,0.0,0.0,0.0,0.0,0.0,0.0,0.0,0.0,0.0,0.0,0.0,0.0,0.0,0.0,0.0,0.0,0.0,0.6556,0.7314,0.7665,0.7925,0.8196,0.8377,0.8452,0.8463,0.8506,0.8517,0.8517,0.8517,0.8424,0.8511,0.8904,0.874,0.0,0.0,0.8833,0.8796,0.8764,0.9264,0.9771,1.0024,0.0,0.0,0.0,1.1607,1.1703,0.0,1.2305,1.2398,1.2721,1.2795,0.0,0.0,1.3487,1.3407,1.322,1.3213,1.3213,1.3213,1.3213,1.306,1.2829,1.2822,1.2599,1.2305,1.2305,1.2305,1.2311,1.2559,1.2532,1.2318,1.2559,0.0,1.2298,1.215,1.2003,1.1929,1.1632,1.1409,1.1409,1.1186,1.1111,1.1111,0.0,0.0,0.0,0.0,0.0,0.0,0.0,0.1865,0.2202,0.2285,0.2154,0.2092,0.2158,0.1938,0.0,0.0,0.0,0.0,0.0,0.0,0.0,0.0,0.0,0.0,0.0,0.0,0.0,0.0,0.0,0.0,0.0,0.0,0.0,0.0,0.0,0.0,0.0,0.0,0.0,0.0,0.0,0.0,0.0,0.0,0.0,0.0,0.0,0.0,0.0,0.0,0.5952,0.73,0.7542,0.7865,0.8234,0.8291,0.8414,0.8517,0.8517,0.8517,0.8517,0.8517,0.8328,0.8204,0.8244,0.0,0.0,0.0,0.7989,0.8044,0.807,0.8623,0.0,0.0,0.0,0.0,0.0,1.127,0.0,1.2211,1.2305,1.2418,0.0,1.2893,1.3166,1.3614,1.3788,1.3814,1.3674,1.3667,1.3594,1.344,1.3434,1.3213,1.2829,1.2822,1.2599,1.2305,1.2305,1.2305,1.2305,1.2452,1.2438,1.2311,1.2452,1.2438,1.2305,1.2077,1.1929,1.1781,1.1484,1.1335,1.126,1.1111,1.1111,1.1111,0.0,0.0,0.0,0.0,0.0,0.0,0.0,0.2164,0.2554,0.2551,0.2398,0.2398,0.2621,0.2267,0.2019,0.0,0.0,0.0,0.0,0.0,0.0,0.0,0.0,0.0,0.0,0.0,0.0,0.0,0.0,0.0,0.0,0.0,0.0,0.0,0.0,0.0,0.0,0.0,0.0,0.0,0.0,0.0,0.0,0.0,0.0,0.0,0.0,0.0,0.0,0.0,0.515,0.6664,0.6949,0.7554,0.8148,0.8196,0.8285,0.8447,0.8501,0.8517,0.8517,0.8517,0.8296,0.8017,0.7641,0.7715,0.0,0.0,0.7276,0.7458,0.7287,0.0,0.8439,0.0,0.0,0.0,0.0,0.0,1.1112,0.0,1.215,0.0,1.2812,1.3066,0.0,1.3707,1.3955,1.4088,1.4088,1.4088,1.3948,1.3572,1.3499,1.3293,1.2829,1.2761,1.2532,1.2305,1.2305,1.2305,1.2305,1.2365,1.2365,1.2305,1.2297,1.2291,1.2231,1.2003,1.1781,1.1632,1.1409,1.126,1.1111,1.1111,1.1111,1.1111,0.0,0.0,0.0,0.0,0.0,0.0,0.0,0.2286,0.271,0.2767,0.2507,0.2507,0.3074,0.2832,0.2481,0.0,0.0,0.0,0.0,0.0,0.0,0.0,0.0,0.0,0.0,0.0,0.0,0.0,0.0,0.0,0.0,0.0,0.0,0.0,0.0,0.0,0.0,0.0,0.0,0.0,0.0,0.0,0.0,0.0,0.0,0.0,0.0,0.0,0.0,0.0,0.0,0.5038,0.5639,0.6771,0.7871,0.8148,0.0,0.0,0.8452,0.8517,0.8517,0.8517,0.8172,0.7704,0.7281,0.0,0.0,0.6591,0.6893,0.7138,0.6886,0.747,0.0,0.0,0.0,0.0,0.0,0.0,1.0498,1.2125,0.0,0.0,1.3034,1.3193,1.3447,1.4001,1.4075,1.4088,1.4088,1.4088,1.3948,1.3572,1.3387,1.3093,1.2829,1.2478,1.2325,1.2305,1.2305,1.2305,1.2311,1.2585,1.2559,1.2318,1.2454,1.2339,0.0,1.1632,1.1409,1.1409,1.1186,1.1111,1.1111,1.1111,1.1111,1.1111,0.0,0.0,0.0,0.0,0.0,0.0,0.1893,0.239,0.2774,0.3023,0.2923,0.2945,0.3165,0.3074,0.2853,0.0,0.0,0.0,0.0,0.0,0.0,0.0,0.0,0.0,0.0,0.0,0.0,0.0,0.0,0.0,0.0,0.0,0.0,0.0,0.0,0.0,0.0,0.0,0.0,0.0,0.0,0.0,0.0,0.0,0.0,0.0,0.0,0.0,0.0,0.0,0.0,0.0,0.4754,0.5521,0.0,0.0,0.7568,0.798,0.8264,0.8404,0.8517,0.8517,0.8027,0.7405,0.6819,0.0,0.6635,0.6102,0.6329,0.6715,0.6866,0.7077,0.7413,0.0,0.8373,0.8985,1.0047,1.0105,1.0269,1.0962,1.1357,0.0,0.0,0.0,1.2454,1.301,1.3723,1.4008,1.3828,1.3471,1.3278,1.3394,1.2702,1.2414,1.2485,1.2365,1.2305,1.2305,1.2305,1.2305,1.2305,1.2425,1.2337,1.2083,1.2214,1.2039,0.0,1.1484,1.1111,1.0663,1.0438,1.0062,0.9685,1.0212,1.0062,0.9755,0.0,0.0,0.0,0.0,0.0,0.1326,0.1811,0.233,0.28,0.3117,0.3187,0.3208,0.3208,0.3208,0.3074,0.2719,0.0,0.0,0.0,0.0,0.0,0.0,0.0,0.0,0.0,0.0,0.0,0.0,0.0,0.0,0.0,0.0,0.0,0.0,0.0,0.0,0.0,0.0,0.0,0.0,0.0,0.0,0.0,0.0,0.0,0.0,0.0,0.0,0.0,0.0,0.0,0.0,0.0,0.0,0.0,0.0,0.693,0.7495,0.7883,0.8158,0.8393,0.8323,0.7865,0.7188,0.0,0.6457,0.6413,0.5837,0.6124,0.655,0.6761,0.6706,0.6871,0.0,0.7908,0.8449,0.9659,0.98,0.9926,0.0,0.0,1.1166,0.0,1.0973,1.1453,1.1899,1.2686,1.3054,1.277,1.2105,1.2005,1.2693,1.2274,1.2041,1.1935,1.215,1.2305,1.2305,1.2305,1.2305,1.2298,1.2077,1.1848,1.162,1.1323,1.1099,0.0,1.0657,1.0288,0.976,0.9614,0.9236,0.8775,0.9311,0.916,0.878,0.0,0.0,0.0,0.0,0.0,0.0,0.0,0.2094,0.273,0.3046,0.3159,0.3208,0.3208,0.3208,0.3074,0.2719,0.0,0.0,0.0,0.0,0.0,0.0,0.0,0.0,0.0,0.0,0.0,0.0,0.0,0.0,0.0,0.0,0.0,0.0,0.0,0.0,0.0,0.0,0.0,0.0,0.0,0.0,0.0,0.0,0.0,0.0,0.0,0.0,0.0,0.0,0.0,0.0,0.0,0.0,0.0,0.0,0.6327,0.6814,0.7262,0.7791,0.8158,0.7865,0.7623,0.7148,0.6216,0.6292,0.6413,0.5837,0.638,0.6852,0.6374,0.6295,0.6518,0.7115,0.72,0.7872,0.9847,0.9425,0.0,0.0,0.0,1.0461,1.1063,1.0952,1.0836,1.0842,1.0847,0.0,1.0842,0.9958,1.0098,1.1438,1.2356,1.2227,1.1111,1.1929,1.2305,1.2305,1.2305,1.2305,1.2305,1.1484,1.1025,1.0789,0.9744,0.9226,0.0,0.8775,0.8699,0.8703,0.8703,0.8703,0.8703,0.8703,0.8703,0.8703,0.0,0.0,0.0,0.0,0.0,0.0,0.0,0.1815,0.2275,0.2701,0.2614,0.2601,0.2833,0.2856,0.2841,0.2778,0.0,0.0,0.0,0.0,0.0,0.0,0.0,0.0,0.0,0.0,0.0,0.0,0.0,0.0,0.0,0.0,0.0,0.0,0.0,0.0,0.0,0.0,0.0,0.0,0.0,0.0,0.0,0.0,0.0,0.0,0.0,0.0,0.0,0.0,0.0,0.0,0.0,0.0,0.0,0.4186,0.5112,0.6039,0.6333,0.6808,0.7148,0.692,0.6478,0.6065,0.5622,0.5818,0.603,0.5761,0.638,0.6937,0.681,0.6761,0.7063,0.7902,0.0,0.0,0.0,0.0,0.0,0.9512,0.8806,0.8627,0.0,0.0,0.9652,0.9652,1.0349,1.0685,1.0442,1.0195,1.0242,1.064,1.0401,1.0214,1.0276,1.0496,1.0645,1.0645,1.0645,1.0645,1.0645,1.0271,0.9976,0.9744,0.9296,0.9003,0.8775,0.8699,0.8399,0.7863,0.7863,0.7561,0.7099,0.7714,0.7561,0.7099,0.0,0.0,0.0,0.0,0.0,0.0,0.0,0.1664,0.1808,0.2105,0.2191,0.2335,0.2596,0.2759,0.2843,0.2849,0.0,0.0,0.0,0.0,0.0,0.0,0.0,0.0,0.0,0.0,0.0,0.0,0.0,0.0,0.0,0.0,0.0,0.0,0.0,0.0,0.0,0.0,0.0,0.0,0.0,0.0,0.2343,0.0,0.0,0.0,0.0,0.0,0.0,0.0,0.0,0.0,0.0,0.0,0.0,0.0,0.4085,0.491,0.0,0.6039,0.6365,0.6192,0.5845,0.5533,0.5255,0.556,0.5853,0.5745,0.638,0.6979,0.6979,0.6852,0.7012,0.7779,0.795,0.0,0.0,0.0,0.0,0.8853,0.0,0.0,0.0,0.8539,0.8503,0.8503,0.9159,0.9488,0.9271,0.9266,0.9266,0.9266,0.9344,0.9356,0.9448,0.9744,0.9895,0.9895,0.982,0.982,0.9744,0.9291,0.8917,0.8694,0.8313,0.8012,0.0,0.7787,0.7484,0.7026,0.7026,0.6721,0.6338,0.6872,0.6718,0.6338,0.0,0.0,0.0,0.0,0.0,0.0,0.0,0.0,0.1441,0.1429,0.19,0.231,0.2448,0.2812,0.2983,0.29,0.0,0.0,0.0,0.0,0.0,0.0,0.0,0.0,0.0,0.0,0.0,0.2372,0.2368,0.2227,0.1953,0.0,0.0,0.0,0.0,0.0,0.0,0.0,0.0,0.0,0.2723,0.2618,0.0,0.0,0.0,0.0,0.0,0.0,0.0,0.0,0.0,0.0,0.0,0.0,0.0,0.0,0.0,0.0,0.0,0.5365,0.5774,0.5605,0.5507,0.5353,0.4989,0.5399,0.0,0.5712,0.6349,0.7001,0.7047,0.6666,0.6542,0.7062,0.0,0.0,0.0,0.8393,0.0,0.0,0.8573,0.0,0.8346,0.7836,0.7484,0.7484,0.7484,0.7484,0.7484,0.7484,0.7484,0.7484,0.8917,0.9372,0.8627,0.9372,0.9744,0.9744,0.9518,0.9448,0.9372,0.8461,0.7855,0.0,0.6945,0.649,0.6338,0.6338,0.6338,0.6338,0.6338,0.6338,0.6338,0.6338,0.6338,0.6338,0.0,0.0,0.0,0.0,0.0,0.0,0.0,0.0,0.0,0.0,0.1745,0.1927,0.2175,0.2279,0.2467,0.0,0.0,0.0,0.0,0.0,0.0,0.0,0.0,0.0,0.0,0.0,0.0,0.2988,0.2983,0.3156,0.3473,0.2321,0.0,0.0,0.0,0.0,0.0,0.0,0.0,0.0,0.309,0.2925,0.0,0.0,0.0,0.0,0.2836,0.2876,0.0,0.0,0.0,0.0,0.0,0.0,0.0,0.0,0.3673,0.3639,0.3918,0.0,0.4215,0.404,0.4024,0.4028,0.0,0.4609,0.5244,0.0,0.0,0.0,0.7281,0.7311,0.7347,0.0,0.0,0.0,0.8083,0.0,0.0,0.9355,0.8421,0.7951,0.8552,0.7914,0.7484,0.7484,0.7484,0.7484,0.7484,0.7484,0.7484,0.7484,0.7859,0.7936,0.7787,0.7936,0.8089,0.8089,0.7863,0.7791,0.771,0.7173,0.6942,0.6868,0.6486,0.6338,0.6338,0.6338,0.6338,0.6338,0.6338,0.6338,0.6338,0.6338,0.6338,0.6338,0.0,0.0,0.0,0.0,0.0,0.0,0.0,0.0,0.0,0.0,0.0,0.0,0.0,0.0,0.0,0.0,0.0,0.0,0.0,0.0,0.0,0.0,0.0,0.0,0.0,0.0,0.0,0.0,0.0,0.3602,0.0,0.0,0.0,0.0,0.0,0.0,0.0,0.0,0.0,0.0,0.3199,0.0,0.0,0.0,0.0,0.0,0.2795,0.2859,0.0,0.3224,0.3473,0.3645,0.0,0.0,0.0,0.0,0.3732,0.3616,0.3488,0.3617,0.3768,0.3686,0.3761,0.3814,0.3814,0.0,0.0,0.0,0.0,0.0,0.0,0.0,0.0,0.0,0.7558,0.0,0.0,0.0,0.7798,0.8436,0.7899,0.7638,0.0,0.7787,0.7484,0.7484,0.7484,0.7484,0.7484,0.7484,0.7484,0.7484,0.7484,0.7484,0.7484,0.7484,0.7484,0.7484,0.7176,0.7099,0.7022,0.6641,0.649,0.649,0.6335,0.6338,0.6338,0.6338,0.6338,0.6338,0.6338,0.6338,0.6338,0.6338,0.6338,0.6338,0.0,0.0,0.0,0.0,0.0,0.0,0.0,0.0,0.0,0.0,0.0,0.0,0.0,0.0,0.0,0.0,0.0,0.0,0.0,0.0,0.0,0.0,0.0,0.0,0.0,0.0,0.0,0.0,0.0,0.0,0.0,0.0,0.4701,0.0,0.0,0.0,0.0,0.0,0.0,0.0,0.3205,0.0,0.0,0.0,0.0,0.0,0.0,0.0,0.0,0.3385,0.364,0.3841,0.4032,0.0,0.0,0.0,0.0,0.0,0.3532,0.3695,0.3906,0.3792,0.3869,0.4004,0.3978,0.0,0.0,0.0,0.0,0.0,0.0,0.0,0.0,0.0,0.0,0.0,0.715,0.7065,0.7081,0.731,0.7438,0.0,0.7638,0.7557,0.7484,0.7484,0.7484,0.7484,0.7484,0.7484,0.7484,0.7484,0.7484,0.7484,0.7484,0.7484,0.7484,0.7484,0.7096,0.6942,0.6861,0.6486,0.6338,0.6338,0.0,0.0,0.6338,0.6338,0.6338,0.6338,0.6338,0.6338,0.6338,0.6338,0.6338,0.6338,0.0,0.0,0.0,0.0,0.0,0.0,0.0,0.0,0.0,0.0,0.0,0.0,0.0,0.0,0.0,0.0,0.0,0.0,0.0,0.0,0.0,0.0,0.0,0.0,0.0,0.0,0.0,0.0,0.0,0.0,0.3458,0.4378,0.4318,0.0,0.0,0.0,0.0,0.0,0.0,0.3208,0.3208,0.0,0.0,0.0,0.0,0.0,0.0,0.0,0.0,0.3173,0.3456,0.3765,0.3589,0.0,0.0,0.0,0.0,0.0,0.4546,0.4401,0.3902,0.3218,0.3338,0.3556,0.3461,0.0,0.0,0.0,0.0,0.0,0.0,0.0,0.8029,0.0,0.0,0.6362,0.0,0.0,0.725,0.7989,0.0,0.7787,0.847,0.7863,0.7484,0.7484,0.7484,0.7484,0.7484,0.7484,0.7484,0.7484,0.7484,0.7484,0.7484,0.7484,0.7484,0.7484,0.7257,0.7099,0.6861,0.6637,0.649,0.6338,0.0,0.6338,0.6338,0.6338,0.6338,0.6338,0.6338,0.6338,0.6338,0.6338,0.6338,0.6338,0.0,0.0,0.0,0.0,0.0,0.0,0.0,0.0,0.0,0.0,0.0,0.0,0.0,0.0,0.0,0.0,0.0,0.0,0.0,0.0,0.0,0.0,0.0,0.0,0.0,0.0,0.0,0.0,0.0,0.3191,0.3232,0.4308,0.4235,0.3208,0.0,0.0,0.0,0.0,0.0,0.3208,0.0,0.0,0.0,0.0,0.0,0.0,0.0,0.0,0.0,0.0,0.3483,0.3634,0.3669,0.0,0.0,0.0,0.0,0.0,0.4296,0.4276,0.4069,0.3554,0.3666,0.3913,0.3929,0.0,0.0,0.0,0.0,0.0,0.0,0.0,0.7455,0.6428,0.0,0.6323,0.6404,0.6647,0.695,0.0,0.0,0.7343,0.7707,0.7509,0.7342,0.7342,0.7431,0.7484,0.7484,0.7484,0.7484,0.7484,0.7484,0.7484,0.7484,0.7484,0.7407,0.733,0.7261,0.7026,0.6714,0.6641,0.649,0.6338,0.0,0.6338,0.6338,0.6338,0.6338,0.6338,0.6338,0.6338,0.6338,0.6338,0.6338,0.6338,0.0,0.0,0.0,0.0,0.0,0.0,0.0,0.0,0.0,0.0,0.0,0.0,0.0,0.0,0.0,0.0,0.0,0.0,0.0,0.0,0.0,0.0,0.0,0.0,0.0,0.0,0.3493,0.3654,0.345,0.3287,0.3226,0.4047,0.3998,0.0,0.0,0.0,0.0,0.0,0.3208,0.3208,0.0,0.0,0.0,0.0,0.0,0.0,0.0,0.0,0.0,0.0,0.0,0.0,0.0,0.0,0.0,0.3746,0.3882,0.402,0.4132,0.425,0.4342,0.4228,0.0,0.4148,0.4337,0.0,0.0,0.0,0.0,0.0,0.0,0.6833,0.0,0.6509,0.6456,0.642,0.642,0.6578,0.6692,0.668,0.6913,0.7023,0.7023,0.7078,0.7163,0.7163,0.7285,0.7358,0.7358,0.7358,0.7358,0.7358,0.7358,0.7378,0.7343,0.7343,0.7291,0.7184,0.7184,0.6949,0.6563,0.6563,0.649,0.6338,0.6338,0.6338,0.6338,0.6338,0.6338,0.6338,0.6338,0.6338,0.6338,0.6338,0.6338,0.6338,0.0,0.0,0.0,0.0,0.0,0.0,0.0,0.0,0.0,0.0,0.0,0.0,0.0,0.0,0.0,0.0,0.0,0.0,0.0,0.0,0.0,0.0,0.0,0.0,0.0,0.3506,0.3584,0.3792,0.3772,0.357,0.3208,0.3287,0.3281,0.3208,0.0,0.0,0.0,0.0,0.0,0.3208,0.3208,0.0,0.0,0.0,0.0,0.0,0.0,0.0,0.0,0.0,0.0,0.0,0.0,0.0,0.3301,0.361,0.3552,0.3642,0.4865,0.4894,0.4631,0.4955,0.0,0.0,0.4002,0.0,0.0,0.0,0.0,0.0,0.0,0.6026,0.6282,0.7265,0.6863,0.642,0.642,0.0,0.6696,0.6692,0.6846,0.7023,0.7023,0.7036,0.7044,0.7044,0.7056,0.7064,0.7064,0.7064,0.7064,0.7064,0.7064,0.6997,0.6935,0.6935,0.7017,0.7184,0.7184,0.6949,0.6563,0.6563,0.649,0.6338,0.6338,0.6338,0.6338,0.6338,0.6338,0.6338,0.6338,0.6338,0.6338,0.6338,0.6338,0.6338,0.0,0.0,0.0,0.0,0.0,0.0,0.0,0.0,0.0,0.0,0.0,0.0,0.0,0.0,0.0,0.0,0.0,0.0,0.0,0.0,0.0,0.0,0.0,0.4089,0.3939,0.378,0.3793,0.3986,0.3432,0.3334,0.364,0.3883,0.0,0.0,0.0,0.0,0.0,0.0,0.0,0.3591,0.3717,0.3731,0.0,0.0,0.0,0.0,0.0,0.0,0.0,0.0,0.3072,0.0,0.0,0.0,0.0,0.0,0.3192,0.3392,0.4157,0.4236,0.4318,0.5135,0.0,0.0,0.0,0.0,0.0,0.0,0.0,0.0,0.0,0.0,0.6014,0.6711,0.6613,0.635,0.628,0.634,0.6384,0.6384,0.6439,0.6551,0.6619,0.6725,0.6794,0.6794,0.6962,0.7023,0.7023,0.7023,0.7023,0.7023,0.6885,0.6824,0.6916,0.6771,0.6783,0.6795,0.6945,0.6795,0.6412,0.6563,0.649,0.6338,0.6338,0.6338,0.6338,0.6338,0.6338,0.6338,0.6338,0.6338,0.6338,0.6338,0.6338,0.6338,0.0,0.0,0.0,0.0,0.0,0.0,0.0,0.0,0.0,0.0,0.0,0.0,0.0,0.0,0.0,0.0,0.0,0.0,0.0,0.0,0.0,0.0,0.0,0.4257,0.4179,0.4001,0.396,0.4027,0.3439,0.3397,0.3911,0.0,0.0,0.0,0.0,0.0,0.0,0.0,0.0,0.0,0.4058,0.4029,0.0,0.0,0.0,0.0,0.0,0.0,0.0,0.0,0.3009,0.0,0.0,0.0,0.0,0.0,0.0,0.3396,0.3884,0.4184,0.4485,0.0,0.0,0.0,0.0,0.0,0.0,0.0,0.0,0.0,0.0,0.0,0.0,0.0,0.642,0.635,0.628,0.628,0.628,0.628,0.628,0.6284,0.6416,0.6534,0.6607,0.6607,0.6717,0.6786,0.6786,0.6781,0.6781,0.6781,0.6576,0.6545,0.6618,0.6474,0.6357,0.6093,0.6244,0.6325,0.6338,0.6412,0.6412,0.6338,0.6338,0.6338,0.6338,0.6338,0.6338,0.6338,0.6338,0.6338,0.6338,0.6338,0.6338,0.6338,0.0,0.0,0.0,0.0,0.0,0.0,0.0,0.0,0.0,0.0,0.0,0.0,0.0,0.0,0.0,0.0,0.0,0.0,0.0,0.0,0.0,0.0,0.0,0.3898,0.4101,0.4158,0.4104,0.3911,0.3911,0.3911,0.3911,0.3911,0.0,0.0,0.0,0.0,0.0,0.0,0.0,0.0,0.4107,0.4141,0.4166,0.0,0.0,0.0,0.0,0.0,0.0,0.0,0.3009,0.2907,0.0,0.0,0.0,0.0,0.339,0.3661,0.4317,0.4987,0.5373,0.0,0.0,0.0,0.0,0.0,0.0,0.0,0.0,0.0,0.5888,0.0,0.0,0.642,0.642,0.642,0.642,0.642,0.642,0.642,0.642,0.642,0.642,0.642,0.642,0.642,0.642,0.642,0.642,0.628,0.621,0.621,0.602,0.5981,0.6093,0.6093,0.5731,0.5002,0.5002,0.5473,0.6261,0.6261,0.6261,0.6261,0.6261,0.6261,0.6261,0.6261,0.6261,0.6338,0.6338,0.6338,0.6338,0.6338,0.6338,0.6338,0.0,0.0,0.0,0.0,0.0,0.0,0.0,0.0,0.0,0.0,0.0,0.0,0.0,0.0,0.0,0.0,0.0,0.0,0.0,0.0,0.0,0.0,0.0,0.0,0.0,0.0,0.4055,0.3911,0.3911,0.3911,0.0,0.0,0.0,0.3891,0.0,0.0,0.0,0.0,0.0,0.0,0.0,0.4403,0.4394,0.0,0.0,0.0,0.0,0.0,0.0,0.0,0.0,0.0,0.0,0.0,0.0,0.0,0.345,0.392,0.4274,0.4447,0.0,0.0,0.0,0.0,0.0,0.0,0.0,0.0,0.0,0.5888,0.5888,0.0,0.0,0.6416,0.642,0.6288,0.6086,0.6152,0.6218,0.6086,0.6152,0.628,0.6416,0.642,0.642,0.642,0.642,0.635,0.628,0.6214,0.6148,0.602,0.5355,0.5042,0.5218,0.4518,0.4133,0.4114,0.4114,0.4229,0.4535,0.4535,0.4535,0.4535,0.4535,0.4535,0.4613,0.516,0.5709,0.6338,0.6338,0.6338,0.6338,0.6338,0.6338,0.6338,0.0,0.0,0.0,0.0,0.0,0.0,0.0,0.0,0.0,0.0,0.0,0.0,0.0,0.0,0.0,0.0,0.0,0.0,0.0,0.0,0.0,0.0,0.0,0.0,0.0,0.4301,0.4068,0.0,0.0,0.0,0.0,0.0,0.0,0.3912,0.0,0.4094,0.0,0.0,0.0,0.0,0.4507,0.4507,0.4486,0.0,0.0,0.0,0.0,0.0,0.0,0.0,0.0,0.0,0.0,0.0,0.0,0.3311,0.3748,0.4264,0.4554,0.0,0.0,0.0,0.0,0.0,0.0,0.0,0.0,0.0,0.0,0.602,0.602,0.6152,0.0,0.6416,0.642,0.635,0.6152,0.6218,0.6214,0.609,0.6218,0.6284,0.6416,0.642,0.635,0.635,0.6017,0.5818,0.5679,0.5348,0.5084,0.4954,0.4353,0.4141,0.4253,0.37,0.3353,0.3194,0.3194,0.3071,0.2816,0.3488,0.383,0.383,0.383,0.383,0.383,0.43,0.4846,0.5318,0.5631,0.5789,0.5789,0.618,0.6338,0.6338,0.0,0.0,0.2692,0.2636,0.0,0.0,0.0,0.0,0.0,0.0,0.0,0.2824,0.0,0.0,0.0,0.2723,0.0,0.0,0.0,0.0,0.0,0.0,0.0,0.0,0.0,0.0,0.0,0.0,0.0,0.0,0.0,0.0,0.3911,0.3911,0.0,0.4042,0.0,0.0,0.0,0.0,0.4486,0.4507,0.4475,0.4281,0.0,0.0,0.0,0.0,0.0,0.0,0.0,0.0,0.0,0.0,0.0,0.3594,0.4106,0.4638,0.4999,0.0,0.0,0.0,0.0,0.0,0.0,0.0,0.5581,0.5858,0.0,0.621,0.621,0.6284,0.642,0.642,0.642,0.642,0.635,0.6416,0.642,0.635,0.642,0.642,0.642,0.6354,0.6284,0.6148,0.5484,0.4951,0.4749,0.3951,0.3487,0.3487,0.3218,0.3189,0.3271,0.3201,0.2894,0.2248,0.2248,0.1889,0.1241,0.2825,0.3589,0.3597,0.3597,0.3597,0.3677,0.3677,0.3752,0.3908,0.4611,0.4924,0.5004,0.5789,0.6103,0.6103,0.0,0.0,0.2768,0.2759,0.0,0.0,0.0,0.0,0.0,0.2816,0.2843,0.2871,0.2824,0.2871,0.0,0.2788,0.2857,0.0,0.0,0.0,0.0,0.0,0.0,0.0,0.0,0.0,0.0,0.0,0.0,0.0,0.0,0.0,0.0,0.3911,0.0,0.398,0.0,0.0,0.0,0.4354,0.4446,0.4507,0.4475,0.4281,0.4207,0.0,0.0,0.0,0.0,0.0,0.0,0.0,0.2977,0.3184,0.3363,0.3278,0.4002,0.4883,0.0,0.5536,0.0,0.0,0.0,0.0,0.0,0.0,0.6036,0.6141,0.6148,0.621,0.621,0.6284,0.642,0.642,0.642,0.635,0.628,0.635,0.635,0.628,0.635,0.642,0.642,0.6017,0.5749,0.5749,0.4951,0.4353,0.4215,0.3751,0.342,0.3284,0.2681,0.2354,0.2369,0.1829,0.1512,0.1413,0.1413,0.1286,0.1241,0.158,0.1772,0.1805,0.1805,0.2196,0.2744,0.2744,0.321,0.383,0.3986,0.4066,0.4066,0.43,0.43,0.4455,0.0,0.0,0.0,0.0,0.0,0.0,0.0,0.0,0.3045,0.2921,0.2955,0.2953,0.2861,0.288,0.0,0.0,0.278,0.278,0.0,0.0,0.0,0.0,0.0,0.0,0.0,0.0,0.0,0.0,0.0,0.0,0.0,0.0,0.0,0.3911,0.0,0.396,0.0,0.0,0.0,0.4313,0.4366,0.4394,0.4342,0.4089,0.398,0.3863,0.3408,0.0,0.0,0.0,0.0,0.0,0.0,0.0,0.3271,0.3369,0.3973,0.467,0.0,0.0,0.0,0.0,0.0,0.0,0.0,0.0,0.6092,0.6153,0.6221,0.628,0.628,0.635,0.642,0.642,0.642,0.635,0.6284,0.635,0.635,0.6284,0.6148,0.6017,0.6017,0.555,0.508,0.4882,0.4082,0.3482,0.308,0.2616,0.2281,0.2214,0.1812,0.1612,0.1612,0.1276,0.1084,0.1099,0.1099,0.1115,0.1146,0.1191,0.1221,0.1236,0.1251,0.1571,0.1962,0.1962,0.2196,0.2663,0.3054,0.321,0.321,0.3675,0.383,0.383,0.0,0.0,0.0,0.0,0.0,0.0,0.0,0.0,0.0,0.3022,0.3076,0.3046,0.2898,0.2887,0.2843,0.0,0.0,0.0,0.2779,0.0,0.0,0.0,0.0,0.0,0.0,0.0,0.0,0.0,0.0,0.0,0.0,0.0,0.0,0.3911,0.0,0.0,0.0,0.0,0.4063,0.4211,0.4211,0.4171,0.4097,0.3813,0.3661,0.3555,0.3223,0.3138,0.3122,0.2902,0.0,0.0,0.0,0.0,0.304,0.3456,0.3865,0.4296,0.0,0.0,0.0,0.0,0.0,0.0,0.0,0.0,0.5919,0.6099,0.627,0.642,0.642,0.642,0.642,0.642,0.642,0.642,0.642,0.642,0.635,0.6284,0.5885,0.5547,0.5481,0.4951,0.4483,0.3949,0.3215,0.2547,0.2013,0.1411,0.1076,0.1076,0.1076,0.1076,0.1076,0.1076,0.1076,0.1076,0.1076,0.1089,0.1115,0.117,0.1199,0.1205,0.1236,0.1249,0.125,0.1333,0.1335,0.1335,0.2041,0.2276,0.2353,0.313,0.3365,0.3365,0.0,0.0,0.0,0.0,0.0,0.0,0.0,0.0,0.0,0.0,0.3091,0.3028,0.2835,0.2871,0.2823,0.2626,0.2616,0.2646,0.0,0.0,0.0,0.0,0.0,0.0,0.0,0.0,0.0,0.0,0.0,0.0,0.0,0.0,0.0,0.3911,0.0,0.0,0.0,0.0,0.3842,0.3863,0.3814,0.3807,0.3813,0.3479,0.3457,0.3555,0.3223,0.308,0.3021,0.2978,0.2907,0.0,0.0,0.0,0.2848,0.2979,0.337,0.3855,0.0,0.0,0.0,0.0,0.0,0.0,0.0,0.0,0.5925,0.0,0.6189,0.642,0.642,0.642,0.642,0.642,0.642,0.642,0.642,0.642,0.6218,0.5749,0.5617,0.5415,0.4948,0.4422,0.3959,0.362,0.2753,0.2085,0.1681,0.1277,0.1076,0.1076,0.1076,0.1076,0.1076,0.1076,0.1076,0.1076,0.1076,0.1078,0.1083,0.1117,0.1147,0.1174,0.1204,0.1217,0.122,0.1246,0.1335,0.1335,0.1414,0.1492,0.1492,0.157,0.1649,0.1804,0.0,0.0,0.0,0.0,0.0,0.0,0.0,0.0,0.0,0.0,0.0,0.2935,0.2816,0.2824,0.2778,0.2616,0.2674,0.0,0.0,0.0,0.0,0.0,0.0,0.0,0.0,0.0,0.0,0.0,0.0,0.0,0.0,0.3746,0.3871,0.0,0.0,0.0,0.0,0.0,0.0,0.3738,0.371,0.3765,0.383,0.0,0.3353,0.3238,0.3104,0.0,0.2886,0.2886,0.2837,0.2794,0.2794,0.0,0.0,0.0,0.0,0.0,0.4891,0.0,0.0,0.0,0.0,0.0,0.0,0.0,0.5734,0.5734,0.5941,0.6152,0.625,0.6351,0.642,0.642,0.642,0.6284,0.6017,0.5951,0.5749,0.5216,0.4885,0.4622,0.4356,0.3892,0.336,0.2822,0.2421,0.1951,0.1344,0.121,0.1076,0.1076,0.1076,0.1076,0.1076,0.1076,0.1076,0.1076,0.1077,0.1078,0.1078,0.1091,0.1113,0.1142,0.1173,0.1186,0.1263,0.1296,0.1155,0.0925,0.1172,0.1335,0.1335,0.1335,0.1335,0.1335,0.0,0.0,0.0,0.0,0.0,0.0,0.0,0.0,0.0,0.0,0.0,0.2843,0.2759,0.0,0.0,0.0,0.2674,0.0,0.0,0.0,0.0,0.0,0.0,0.0,0.0,0.0,0.0,0.0,0.0,0.0,0.4103,0.3762,0.398,0.0,0.4165,0.0,0.0,0.0,0.0,0.3671,0.3534,0.3545,0.3656,0.3548,0.3301,0.3038,0.0,0.0,0.0,0.0,0.2794,0.2794,0.2794,0.2794,0.0,0.0,0.0,0.0,0.0,0.0,0.0,0.0,0.0,0.0,0.0,0.0,0.5547,0.0,0.5689,0.5856,0.6047,0.6197,0.6351,0.6351,0.6388,0.6218,0.5683,0.5617,0.5348,0.4686,0.4225,0.3961,0.3828,0.3426,0.2891,0.2221,0.2221,0.1884,0.1143,0.1076,0.1076,0.1076,0.1076,0.1076,0.1076,0.1076,0.1076,0.1077,0.1078,0.1079,0.0944,0.1079,0.1091,0.1112,0.107,0.1083,0.1085,0.1262,0.105,0.0602,0.0848,0.1011,0.1166,0.1254,0.1335,0.1335,0.0,0.0,0.0,0.0,0.0,0.0,0.0,0.0,0.0,0.0,0.0,0.2749,0.2626,0.2616,0.2578,0.251,0.2519,0.0,0.0,0.0,0.0,0.0,0.0,0.0,0.0,0.0,0.0,0.0,0.0,0.0,0.4375,0.4047,0.4196,0.4777,0.4104,0.3712,0.3519,0.0,0.0,0.3555,0.3048,0.2933,0.3072,0.3371,0.3359,0.3165,0.0,0.0,0.0,0.0,0.0,0.0,0.2794,0.2794,0.2794,0.0,0.0,0.0,0.0,0.0,0.0,0.0,0.0,0.0,0.0,0.0,0.0,0.5313,0.545,0.5628,0.5636,0.5925,0.6223,0.6223,0.6306,0.6218,0.5683,0.5617,0.5219,0.4161,0.4028,0.3828,0.3293,0.3226,0.2891,0.2221,0.2221,0.1884,0.1143,0.1076,0.1076,0.1076,0.1076,0.1076,0.1076,0.1076,0.1077,0.1079,0.1079,0.0877,0.0539,0.0944,0.108,0.1083,0.0694,0.0561,0.0563,0.1084,0.1022,0.0586,0.0225,0.0302,0.0678,0.1166,0.1335,0.1335,0.0,0.0,0.0,0.0,0.0,0.0,0.0,0.0,0.0,0.0,0.0,0.0,0.0,0.2607,0.2597,0.2568,0.2481,0.0,0.0,0.0,0.0,0.0,0.0,0.0,0.0,0.0,0.0,0.0,0.0,0.3096,0.3557,0.3389,0.3408,0.3569,0.3553,0.3494,0.3417,0.3043,0.0,0.0,0.2865,0.3211,0.0,0.3981,0.3982,0.3818,0.3078,0.0,0.0,0.0,0.0,0.0,0.2758,0.2788,0.2794,0.2794,0.3099,0.0,0.0,0.0,0.0,0.0,0.0,0.4517,0.4734,0.4973,0.5183,0.5183,0.523,0.533,0.539,0.5738,0.5982,0.5982,0.588,0.5539,0.5016,0.4769,0.4292,0.356,0.3493,0.3426,0.3226,0.3023,0.2688,0.2221,0.1951,0.1614,0.1143,0.1076,0.1076,0.1076,0.1076,0.1076,0.1076,0.1076,0.1077,0.1079,0.0809,0.0742,0.0877,0.1012,0.1079,0.108,0.0477,0.0205,0.0206,0.0352,0.0356,0.0214,0.0074,0.0075,0.0225,0.0388,0.0786,0.1335,0.0,0.0,0.0,0.2302,0.0,0.2392,0.2393,0.2461,0.0,0.0,0.0,0.0,0.0,0.0,0.2737,0.2641,0.0,0.0,0.0,0.0,0.0,0.0,0.0,0.0,0.0,0.0,0.0,0.0,0.0,0.0,0.0,0.2948,0.2914,0.3003,0.305,0.311,0.0,0.0,0.0,0.3276,0.0,0.3047,0.3407,0.0,0.3607,0.3525,0.0,0.0,0.0,0.0,0.0,0.0,0.257,0.2528,0.2502,0.2546,0.2869,0.0,0.3519,0.0,0.0,0.0,0.0,0.4062,0.4435,0.0,0.4915,0.4977,0.4976,0.5069,0.5187,0.5319,0.5486,0.5604,0.5456,0.5123,0.443,0.4094,0.3774,0.3247,0.3207,0.3226,0.3226,0.2889,0.2554,0.2221,0.1817,0.0,0.1143,0.1076,0.1076,0.1076,0.1076,0.1076,0.1076,0.1076,0.1078,0.1079,0.0809,0.0741,0.0742,0.0742,0.0742,0.0674,0.0202,-0.0,-0.0,-0.0,-0.0,-0.0,-0.0,-0.0,-0.0,-0.0,0.0385,0.0898,0.2878,0.2668,0.2329,0.2293,0.2325,0.2363,0.2374,0.2233,0.2325,0.2917,0.0,0.0,0.0,0.0,0.0,0.0,0.0,0.0,0.2129,0.0,0.0,0.0,0.0,0.0,0.0,0.0,0.0,0.0,0.0,0.0,0.0,0.0,0.2806,0.3125,0.2621,0.2523,0.2796,0.0,0.351,0.4159,0.0,0.2339,0.1654,0.0,0.0,0.0,0.2183,0.2187,0.0,0.2162,0.0,0.0,0.0,0.2028,0.1935,0.2066,0.2196,0.0,0.0,0.0,0.0,0.0,0.0,0.0,0.4293,0.0,0.45,0.4677,0.4781,0.4944,0.5066,0.4739,0.4567,0.4883,0.504,0.4844,0.3928,0.3843,0.366,0.3149,0.3164,0.3153,0.3153,0.2882,0.2547,0.2216,0.1813,0.1411,0.1141,0.1075,0.1076,0.1076,0.1076,0.1076,0.1076,0.1078,0.1079,0.1079,0.1079,0.0742,-0.0,-0.0,-0.0,-0.0,-0.0,-0.0,-0.0,-0.0,-0.0,-0.0,-0.0,-0.0,-0.0,-0.0,-0.0,-0.0,0.1889,0.2718,0.3143,0.2108,0.1587,0.1432,0.1765,0.2189,0.2518,0.0,0.0,0.0,0.0,0.0,0.0,0.0,0.0,0.0,0.217,0.1996,0.1865,0.1813,0.2477,0.0,0.0,0.0,0.0,0.0,0.0,0.0,0.0,0.0,0.0,0.0,0.2023,0.2005,0.208,0.2293,0.0,0.26,0.2951,0.2655,0.0,0.0,0.0,0.0,0.0,0.1943,0.1551,0.0,0.1599,0.2206,0.0,0.0,0.2127,0.2162,0.2381,0.2553,0.2414,0.0,0.0,0.0,0.0,0.0,0.0,0.0,0.4001,0.4228,0.4321,0.4362,0.4303,0.4233,0.391,0.3273,0.3608,0.3867,0.3631,0.3362,0.3177,0.3053,0.2829,0.2719,0.2719,0.2147,0.1768,0.0,0.1355,0.1111,0.1045,0.1065,0.1076,0.1076,0.1076,0.1076,0.1076,0.1078,0.0944,0.0674,0.0944,0.0742,-0.0,-0.0,-0.0,-0.0,-0.0,-0.0,-0.0,-0.0,-0.0,-0.0,-0.0,-0.0,-0.0,-0.0,-0.0,-0.0,0.1629,0.2355,0.2767,0.1949,0.1504,0.1364,0.1644,0.2006,0.2435,0.0,0.0,0.0,0.0,0.0,0.0,0.0,0.0,0.0,0.1965,0.1822,0.1685,0.1536,0.2062,0.2306,0.0,0.0,0.0,0.0,0.0,0.0,0.0,0.0,0.0,0.0,0.1781,0.1714,0.156,0.1743,0.0,0.0,0.2355,0.0,0.0,0.1074,0.0592,0.0,0.0,0.0,0.1294,0.0482,0.0831,0.0,0.0,0.1864,0.2015,0.1943,0.2106,0.0,0.0,0.0,0.0,0.0,0.0,0.0,0.2893,0.3227,0.3561,0.0,0.3831,0.3837,0.3836,0.3493,0.3073,0.2561,0.2671,0.2764,0.2764,0.2665,0.2536,0.2536,0.2444,0.2344,0.2344,0.1848,0.1478,0.1478,0.1191,0.102,0.0968,0.1049,0.1063,0.1075,0.1076,0.1076,0.1077,0.1078,0.1012,0.0742,0.0674,0.0404,-0.0,-0.0,-0.0,-0.0,-0.0,-0.0,-0.0,-0.0,-0.0,-0.0,-0.0,-0.0,-0.0,-0.0,-0.0,-0.0,0.0,0.1714,0.1648,0.1648,0.1736,0.1801,0.1832,0.1827,0.2201,0.0,0.0,0.0,0.0,0.0,0.0,0.0,0.0,0.0,0.164,0.1685,0.1606,0.1326,0.1668,0.1889,0.1906,0.0,0.0,0.0,0.0,0.0,0.0,0.0,0.0,0.0,0.1623,0.1471,0.1163,0.1277,0.1199,0.1061,0.1482,0.1473,0.0,0.0,0.0305,-0.0382,0.0176,0.0716,0.1036,-0.0,0.0181,0.0,0.0765,0.1149,0.1597,0.1475,0.1578,0.0,0.1722,0.1875,0.0,0.0,0.2297,0.0,0.2794,0.3022,0.3188,0.0,0.3402,0.3334,0.3482,0.2833,0.2285,0.2307,0.1995,0.1728,0.1789,0.1837,0.1872,0.1872,0.198,0.2013,0.2013,0.1647,0.1463,0.1463,0.1164,0.0997,0.1027,0.1029,0.1042,0.107,0.1071,0.1074,0.1079,0.1079,0.1079,0.1079,0.0337,-0.0,-0.0,-0.0,-0.0,-0.0,-0.0,-0.0,-0.0,-0.0,-0.0,-0.0,-0.0,-0.0,-0.0,-0.0,-0.0,-0.0,0.1759,0.1183,0.0672,0.0672,0.1294,0.1851,0.2009,0.2043,0.2126,0.234,0.0,0.0,0.0,0.0,0.0,0.0,0.0,0.0,0.0,0.1457,0.134,0.1379,0.1612,0.1813,0.1972,0.2055,0.0,0.0,0.0,0.0,0.0,0.0,0.0,0.0,0.0824,0.0827,0.0809,0.0832,0.0682,0.0442,0.0275,0.0,0.0804,-0.0041,-0.0475,-0.0619,-0.0491,-0.0268,-0.0045,-0.0141,-0.0092,0.0088,0.0,0.0426,0.0539,0.1013,0.1269,0.1465,0.1846,0.2078,0.2212,0.217,0.2249,0.0,0.2284,0.2407,0.2629,0.0,0.3083,0.3089,0.2825,0.2686,0.2274,0.1382,0.1161,0.1248,0.1728,0.1801,0.1808,0.1808,0.1593,0.143,0.143,0.12,0.1029,0.1029,0.0938,0.0965,0.0996,0.0997,0.1011,0.1041,0.1042,0.1054,0.1079,0.1079,0.1079,0.1079,0.0337,-0.0,-0.0,-0.0,-0.0,-0.0,-0.0,-0.0,-0.0,-0.0,-0.0,-0.0,-0.0,-0.0,-0.0,-0.0,-0.0,-0.0,0.1074,0.0717,0.0405,0.0405,0.0784,0.1139,0.123,0.1252,0.1341,0.0,0.0,0.0,0.0,0.0,0.0,0.0,0.0,0.0,0.0,0.1096,0.105,0.1148,0.1318,0.1502,0.1696,0.1574,0.1677,0.0,0.0,0.0,0.0,0.0,0.0,0.0,0.0,0.0403,0.027,0.0403,0.0344,0.0141,0.0155,0.0,0.0197,-0.038,-0.0703,-0.0805,-0.0985,-0.0998,-0.0877,-0.0461,-0.0277,0.0,-0.027,-0.0,0.0316,0.0,0.0739,0.0854,0.1196,0.1418,0.1511,0.1427,0.0,0.0,0.0,0.1621,0.1805,0.2013,0.2005,0.1888,0.1731,0.1642,0.1369,0.075,0.0676,0.0803,0.1307,0.133,0.1344,0.1344,0.1177,0.1122,0.1122,0.0954,0.0898,0.0898,0.0911,0.0933,0.0964,0.0966,0.098,0.101,0.1011,0.0962,0.0792,0.0991,0.0931,0.0539,0.0202,-0.0,-0.0,-0.0,-0.0,-0.0,-0.0,-0.0,-0.0,-0.0,-0.0,-0.0,-0.0,-0.0,-0.0,-0.0,-0.0,-0.0,0.018,0.018,0.018,0.018,0.018,0.0247,0.0382,0.0405,0.0597,0.0,0.0,0.0,0.0,0.0,0.0,0.0,0.0,0.0,0.0,0.0529,0.0602,0.0706,0.0807,0.094,0.1116,0.087,0.069,0.0,0.0,0.0,0.0,0.0,0.0,0.0,0.0,0.0,0.0,0.0,0.0,-0.0298,0.0,-0.0071,-0.0391,-0.0684,-0.0928,-0.1195,-0.1561,-0.1737,-0.1687,-0.105,-0.0786,-0.0757,-0.0878,-0.0471,0.0,0.0,0.0,0.0184,0.0,0.0,0.0753,0.0,0.0,0.0883,0.0,0.0,0.0,0.0998,0.0826,0.0,0.0,0.0,0.0,0.0,0.0,0.0,0.0,0.0746,0.0,0.0879,0.089,0.0895,0.089,0.0889,0.0891,0.0897,0.0892,0.0902,0.0874,0.0875,0.0948,0.0978,0.098,0.081,0.0516,0.0775,0.059,-0.0,-0.0,-0.0,-0.0,-0.0,-0.0,-0.0,-0.0,-0.0,-0.0,-0.0,-0.0,-0.0,-0.0,-0.0,-0.0,-0.0,-0.0,-0.0,-0.0585,-0.0585,-0.0585,-0.0585,-0.0585,-0.036,0.0292,0.0405,0.067,0.0,0.0,0.0,0.0,0.0,0.0,0.0,0.0,0.0,-0.0694,-0.0427,-0.0176,-0.0,-0.0022,0.0022,0.0156,0.0111,-0.0044,-0.0334,0.0,0.0,0.0,0.0,-0.0404,-0.0135,-0.0313,0.0,0.0,0.0,-0.082,0.0,-0.1325,-0.0939,0.0,-0.1549,-0.1939,-0.2033,-0.2554,-0.2729,-0.2665,0.0,-0.1987,-0.1912,0.0,-0.1329,-0.1149,-0.0601,0.0,0.0,0.0,0.0,0.0,0.0,0.0794,0.0,0.0,0.0,0.0742,0.0367,0.0,0.0,0.0,0.0,0.0,0.0,0.0,0.0,-0.0,0.0285,0.0542,0.0865,0.0919,0.0887,0.0913,0.0911,0.0923,0.0896,0.0927,0.0925,0.0901,0.0902,0.0917,0.0888,0.0889,0.0793,0.0516,0.0258,0.0066,-0.0,-0.0,-0.0,-0.0,-0.0,-0.0,-0.0,-0.0,-0.0,-0.0,-0.0,-0.0,-0.0,-0.0,-0.0,-0.0,-0.0,-0.0,-0.0,-0.0832,-0.0698,-0.0698,-0.0698,-0.0698,-0.0585,-0.0292,-0.0135,0.0047,0.0,0.0,0.0,0.0,0.0,0.0,0.0,0.0,-0.1683,0.0,0.0,0.0,-0.0962,-0.0914,-0.087,-0.0803,-0.0579,-0.0535,-0.0668,-0.0668,0.0,0.0,0.0,-0.0761,-0.0447,-0.0803,0.0,-0.1066,0.0,-0.151,0.0,0.0,0.0,0.0,-0.2306,-0.2562,-0.2611,-0.2835,-0.2898,-0.2862,0.0,-0.2566,0.0,0.0,0.0,0.0,-0.1661,0.0,0.0,0.0,0.0,0.0,0.0,0.0,0.0,-0.0276,0.0,-0.0224,0.0,0.0,0.0,0.0,0.0,0.0,0.0,-0.0385,0.0,0.0,0.0,0.0236,0.0,0.0,0.0,0.0903,0.0905,0.0919,0.0895,0.0923,0.092,0.0896,0.0898,0.0903,0.0916,0.0917,0.082,0.0735,0.025,-0.0,-0.0,-0.0,-0.0,-0.0,-0.0,-0.0,-0.0,-0.0,-0.0,-0.0,-0.0,-0.0,-0.0,-0.0,-0.0,-0.0,-0.0,-0.0,-0.0,-0.1645,0.0,0.0,-0.1078,-0.0876,-0.0787,-0.1056,-0.0964,-0.1001,-0.1425,0.0,0.0,-0.2907,-0.3003,0.0,0.0,-0.352,-0.3191,-0.2319,-0.1955,-0.1902,-0.2149,-0.1763,-0.1625,-0.1728,-0.1331,-0.1092,-0.1046,-0.1092,0.0,0.0,0.0,0.0,-0.089,-0.1369,-0.1659,-0.1796,0.0,-0.2289,-0.2572,-0.2771,-0.2877,-0.2954,-0.3102,-0.3221,-0.3341,-0.3337,-0.3341,-0.3303,-0.334,-0.3362,0.0,-0.3482,-0.3057,-0.2571,0.0,0.0,0.0,-0.1882,0.0,0.0,0.0,0.0,0.0,0.0,0.0,0.0,0.0,0.0,0.0,0.0,0.0,0.0,0.0,0.0,-0.0588,0.0,-0.0378,0.0,0.0,0.0,0.0,0.0,0.0832,0.0844,0.0772,0.0696,0.0696,0.0783,0.0785,0.0785,0.0785,0.0842,0.0912,0.0884,0.0301,-0.0,-0.0,-0.0,-0.0,-0.0,-0.0,-0.0,-0.0,-0.0,-0.0,-0.0,-0.0,-0.0,-0.0,-0.0,-0.0,-0.0,-0.0,-0.0,-0.0,-0.3415,-0.2681,0.0,0.0,-0.1299,-0.1011,-0.1924,-0.2056,-0.2558,-0.3983,-0.3287,0.0,0.0,0.0,0.0,0.0,0.0,-0.5208,-0.4725,-0.3655,-0.3203,-0.351,-0.2532,-0.2172,-0.255,-0.2176,-0.1872,-0.1667,-0.1872,0.0,0.0,0.0,0.0,0.0,-0.2049,-0.2267,-0.2288,-0.2706,-0.3223,-0.3756,-0.3672,-0.4007,-0.4474,0.0,-0.4041,-0.4456,-0.453,0.0,0.0,-0.4191,-0.4568,0.0,0.0,0.0,0.0,0.0,0.0,0.0,0.0,0.0,0.0,-0.2252,0.0,0.0,0.0,0.0,-0.1188,0.0,0.0,0.0,0.0,0.0,0.0,0.0,0.0,0.0,0.0,0.0,0.0,0.0,0.0,0.0,0.0,0.0686,0.0742,0.0,0.0155,0.0156,0.0391,0.0393,0.0393,0.0393,0.0729,0.0912,0.0884,0.0295,-0.0,-0.0,-0.0,-0.0,-0.0,-0.0,-0.0,-0.0,-0.0,-0.0,-0.0,-0.0,-0.0,-0.0,-0.0,-0.0,-0.0,-0.0,-0.0,-0.0,0.0,0.0,0.0,0.0,0.0,-0.1743,-0.2056,-0.252,-0.2928,-0.3216,-0.3117,0.0,0.0,-0.3258,-0.4691,0.0,0.0,-0.6814,-0.6467,-0.504,-0.4303,-0.4508,-0.3195,-0.2729,-0.3319,-0.2583,-0.2164,-0.2093,-0.2039,0.0,0.0,0.0,0.0,0.0,0.0,-0.2582,0.0,0.0,0.0,0.0,0.0,-0.5068,-0.5178,0.0,-0.49,-0.5053,-0.5394,-0.5618,0.0,-0.5844,-0.6085,-0.6336,-0.6111,-0.5672,-0.5293,-0.5317,-0.5035,-0.4703,0.0,0.0,-0.4443,-0.3672,0.0,0.0,0.0,0.0,0.0,0.0,0.0,0.0,0.0,0.0,0.0,0.0,0.0,0.0,0.0,0.0,0.0,0.0,0.0,0.0,0.0,0.0,0.0,0.0409,0.0152,0.0,0.0112,0.0112,0.0112,0.0112,0.0224,0.0282,0.0285,0.0117,-0.0,-0.0,-0.0,-0.0,-0.0,-0.0,-0.0,-0.0,-0.0,-0.0,-0.0,-0.0,-0.0,-0.0,-0.0,-0.0,-0.0,-0.0,-0.0,-0.0,-0.3647,0.0,0.0,0.0,0.0,-0.2362,-0.3109,-0.3649,-0.3853,0.0,-0.4717,0.0,-0.5204,0.0,-0.6723,0.0,-0.8455,-0.774,-0.7255,-0.6347,-0.571,-0.5457,-0.4292,-0.3879,-0.4376,-0.3475,-0.2883,-0.2617,-0.2403,-0.2246,0.0,0.0,0.0,0.0,0.0,-0.3016,-0.3574,-0.3952,-0.4583,0.0,0.0,-0.5821,0.0,0.0,-0.5647,-0.5404,0.0,-0.6588,-0.6756,-0.6977,-0.72,-0.7392,-0.7309,-0.6936,-0.6545,-0.6533,-0.6239,-0.5905,-0.5688,-0.5638,0.0,-0.4523,-0.4257,0.0,-0.3117,0.0,-0.3003,0.0,0.0,0.0,0.0,0.0,0.0,0.0,0.0,0.0,0.0,-0.1568,0.0,0.0,0.0,0.0,0.0,0.0,0.0092,0.0246,0.0099,0.0,0.0,-0.0,-0.0,-0.0,-0.0,-0.0,-0.0,-0.0,-0.0,-0.0,-0.0,-0.0,-0.0,-0.0,-0.0,-0.0,-0.0,-0.0607,-0.1482,-0.0404,-0.0,-0.0,-0.0,-0.0135,-0.0337,-0.0067,-0.0135,-0.0404,-0.3952,-0.3952,0.0,0.0,-0.2842,0.0,0.0,0.0,-0.5388,0.0,-0.8022,-0.9683,-0.9683,-0.9683,-0.9355,-0.8537,-0.8414,-0.8055,-0.729,-0.7551,0.0,-0.651,-0.5837,-0.5526,-0.5698,-0.4817,-0.3989,-0.3285,-0.2983,0.0,0.0,0.0,0.0,0.0,-0.293,0.0,-0.4416,-0.4815,-0.5528,-0.6337,-0.6404,-0.6398,-0.638,-0.6872,-0.6355,-0.5576,-0.6968,-0.7393,-0.7332,-0.7598,-0.792,-0.819,-0.7706,-0.7498,-0.7343,-0.7246,-0.7192,-0.7079,-0.648,-0.6263,-0.6,-0.4861,-0.4505,0.0,0.0,0.0,-0.3277,0.0,0.0,0.0,0.0,0.0,0.0,0.0,0.0,0.0,0.0,0.0,0.0,0.0,0.0,0.0,0.0,-0.0662,-0.0417,-0.0047,-0.0048,0.0,0.0,-0.0,-0.0,-0.0,-0.0,-0.0,-0.0,-0.0,-0.0,-0.0,-0.0,-0.0,-0.0,-0.0,-0.0,-0.0,-0.0,-0.1617,-0.4123,-0.1415,-0.0202,-0.0134,-0.0135,-0.0539,-0.1079,-0.0472,-0.0674,-0.1214,-0.4564,-0.4564,-0.492,0.0,-0.4519,-0.3632,0.0,0.0,0.0,0.0,-0.9993,-0.9683,-0.9683,-0.9683,-0.9603,-0.9395,-0.8781,0.0,0.0,0.0,0.0,-0.8735,-0.7217,-0.6626,-0.7207,-0.5702,-0.4796,-0.4627,-0.3837,0.0,-0.3383,0.0,0.0,0.0,0.0,0.0,-0.4416,-0.4815,-0.5685,-0.6891,-0.7733,-0.7548,-0.6829,0.0,-0.7504,-0.69,-0.7692,-0.8314,-0.8679,-0.8771,-0.8908,-0.904,-0.883,-0.8679,-0.8527,-0.8427,-0.8374,-0.8321,-0.8156,-0.7509,-0.6902,-0.6988,-0.5953,-0.4948,0.0,0.0,0.0,0.0,0.0,0.0,0.0,0.0,0.0,0.0,0.0,0.0,0.0,0.0,0.0,-0.2449,0.0,0.0,-0.1097,-0.0709,-0.042,-0.0391,-0.0462,0.0,0.0,0.0,-0.0,-0.0,-0.0,-0.0,-0.0,-0.0,-0.0,-0.0,-0.0,-0.0,-0.0,-0.0,-0.0,-0.0,-0.0,-0.1617,-0.426,-0.4118,-0.3029,-0.161,-0.1877,-0.2146,-0.2415,-0.3569,-0.3299,-0.2351,-0.4812,-0.5369,0.0,-0.8014,0.0,0.0,-0.5205,-0.5669,0.0,-1.1606,-1.1287,0.0,-1.0498,-1.0487,-1.0487,-1.0487,-1.004,0.0,-1.0147,0.0,0.0,-0.9422,-0.8509,-0.8086,-0.8379,-0.7186,0.0,-0.5665,-0.4795,0.0,-0.3699,0.0,0.0,0.0,0.0,-0.3918,-0.4741,-0.5738,-0.6633,-0.7377,-0.833,-0.8189,0.0,-0.8265,-0.8361,-0.8177,-0.8526,-0.886,-0.9197,-0.9321,-0.9328,-0.9309,-0.9211,-0.9061,-0.891,-0.8804,-0.8804,-0.8752,-0.8474,-0.7937,-0.745,-0.7557,-0.6764,-0.6015,-0.6231,-0.5855,-0.5544,0.0,-0.5527,-0.528,0.0,0.0,0.0,0.0,0.0,0.0,0.0,0.0,0.0,0.0,-0.2394,0.0,-0.1796,-0.1004,-0.048,-0.0407,-0.0567,-0.0559,0.0,0.0,-0.0,-0.0,-0.0278,-0.0393,-0.0393,-0.0224,-0.0171,-0.0177,-0.018,-0.0186,-0.0259,-0.0919,-0.1198,-0.1211,-0.1209,-0.2488,-0.4657,-0.4995,-0.4445,-0.3424,-0.3758,-0.3623,-0.3418,-0.4849,-0.4509,-0.3222,-0.5441,-0.6557,0.0,0.0,0.0,0.0,0.0,-0.742,0.0,-1.1077,0.0,-1.1464,-1.183,-1.1894,-1.1894,-1.1894,-1.1817,-1.1623,-1.1281,-1.1015,-1.0446,-0.9469,-0.9649,-0.9627,-0.9329,-0.8918,-0.7998,-0.6582,-0.5722,-0.4826,0.0,0.0,0.0,0.0,0.0,0.0,0.0,-0.7102,-0.7842,-0.7902,-0.8684,-0.8729,-0.8304,-0.8764,-0.9059,-0.9232,-0.9219,-0.9233,-0.927,-0.9526,-0.9413,-0.9211,-0.9211,-0.9008,-0.8804,-0.8804,-0.8804,-0.8699,-0.8143,-0.7984,-0.7824,-0.7408,-0.7192,-0.7079,-0.6965,-0.6463,-0.6204,-0.6716,-0.6043,-0.5575,-0.6138,0.0,0.0,0.0,0.0,0.0,0.0,0.0,0.0,0.0,0.0,0.0,-0.264,-0.1499,-0.0672,-0.0425,-0.0568,-0.0683,0.0,0.0,-0.0053,-0.0053,-0.0551,-0.0842,-0.0898,-0.0617,-0.0455,-0.0468,-0.047,-0.0608,-0.0899,-0.219,-0.2881,-0.3023,-0.3084,-0.3825,-0.4982,-0.4913,-0.4979,-0.5049,-0.5186,-0.4776,-0.4161,-0.497,-0.4767,-0.4092,-0.8564,0.0,0.0,0.0,0.0,-1.0636,-1.3443,-1.4099,-1.2618,-0.7939,-0.7323,-0.9014,-1.3422,-1.3871,-1.3871,-1.3871,-1.351,0.0,0.0,0.0,0.0,-1.0613,-1.0667,-1.0639,-1.0578,-1.0089,-0.9059,-0.7457,-0.6452,-0.5494,0.0,0.0,0.0,0.0,0.0,0.0,-0.6491,-0.8082,0.0,-0.866,-1.0181,-0.989,-0.8717,-0.9738,-0.9745,-0.9204,-0.9453,-0.9541,-0.9548,-0.9599,-0.9413,-0.9211,-0.9211,-0.9008,-0.8804,-0.8804,-0.8804,-0.8752,-0.8699,-0.8256,-0.7984,-0.8427,-0.7783,-0.723,-0.7606,-0.7281,-0.6913,-0.702,-0.6913,-0.6759,-0.6701,0.0,0.0,0.0,0.0,0.0,0.0,0.0,0.0,0.0,0.0,-0.349,-0.3426,-0.2411,-0.1522,-0.0995,-0.1079,0.0,0.0,0.0,-0.0401,0.0,-0.0441,-0.0617,0.0,0.0,-0.0788,-0.0793,-0.0815,-0.1441,-0.2678,-0.2939,-0.3806,-0.4919,-0.4916,-0.4982,-0.4986,-0.5179,-0.5306,-0.5233,-0.45,-0.4631,-0.5093,-0.4625,-0.4758,-0.5163,-1.1651,0.0,0.0,0.0,0.0,0.0,0.0,-1.5792,-1.4514,-1.0953,-1.0498,-1.1522,-1.412,-1.4373,-1.428,-1.3999,-1.3763,-1.3621,-1.3621,-1.2803,-1.2316,-1.2316,-1.1716,-1.1385,-1.1385,-1.0965,-0.9973,-0.8369,-0.742,-0.6199,0.0,0.0,0.0,-0.4181,0.0,-0.6047,0.0,0.0,0.0,-0.9608,-1.0763,-1.0483,-0.946,-1.0163,-0.9995,-0.9424,-0.9563,-0.9614,-0.9614,-0.9614,-0.9413,-0.9211,-0.9211,-0.9008,-0.8804,-0.8804,-0.8804,-0.8804,-0.8804,-0.8586,-0.8421,-0.8752,-0.8374,-0.8049,-0.8315,-0.7931,-0.761,-0.7943,-0.7515,-0.7063,-0.6813,-0.6122,0.0,0.0,0.0,0.0,0.0,0.0,-0.4613,0.0,0.0,0.0,0.0,-0.3069,0.0,0.0,0.0,0.0,0.0,0.0,-0.0623,0.0,0.0,0.0,-0.1512,0.0,-0.1512,-0.1846,-0.182,-0.2235,-0.3083,-0.3441,-0.4065,-0.484,-0.5243,-0.5309,-0.5239,-0.5369,-0.5432,-0.5362,-0.4894,-0.5027,-0.5359,-0.5024,-0.5093,-0.5428,-1.3895,-1.3161,0.0,0.0,-1.2257,-1.3615,-1.5917,-1.6262,-1.5812,-1.4558,-1.4373,-1.4373,-1.4373,-1.4373,-1.4186,-1.3668,-1.3621,-1.3621,-1.3621,-1.3621,-1.3621,-1.3621,-1.2699,-1.2088,-1.1964,-1.1727,-1.0785,-0.9151,-0.8162,-0.6749,0.0,-0.4609,-0.4517,-0.4794,0.0,0.0,0.0,0.0,-1.0127,-1.0559,-1.1265,-1.1038,-1.027,-1.0646,-1.0336,-0.9762,-0.9865,-0.9769,-0.9562,-0.9666,-0.951,-0.9211,-0.9159,-0.9008,-0.8804,-0.8804,-0.8804,-0.8804,-0.8804,-0.8804,-0.8804,-0.8804,-0.8804,-0.8804,-0.8804,-0.8421,-0.8203,-0.8699,-0.8109,-0.7382,-0.7075,-0.6455,0.0,0.0,0.0,0.0,0.0,0.0,0.0,0.0,0.0,0.0,-0.345,0.0,0.0,0.0,0.0,0.0,-0.0873,0.0,0.0,0.0,0.0,-0.151,-0.2213,0.0,-0.2235,-0.2681,-0.2681,-0.2892,-0.3199,-0.375,-0.4193,-0.4556,-0.516,-0.5428,-0.5428,-0.5428,-0.5428,-0.5428,-0.5428,-0.5428,-0.5428,-0.5428,-0.5428,-0.5428,0.0,0.0,0.0,0.0,0.0,-1.7411,-1.7679,-1.7706,-1.6921,-1.4686,-1.4373,-1.4373,-1.4373,-1.4373,-1.4186,-1.3668,-1.3621,-1.3621,-1.3621,-1.3621,-1.3621,-1.3621,-1.3507,-1.3104,-1.2426,-1.2304,-1.1407,0.0,0.0,-0.6909,0.0,-0.5056,-0.5261,-0.6247,-0.7354,0.0,0.0,-1.0522,-1.101,-1.1206,-1.2286,-1.2098,-1.1157,-1.1701,-1.12,-1.0218,-1.0838,-1.0336,-0.951,-0.9961,-0.971,-0.9159,-0.9061,-0.891,-0.8804,-0.8804,-0.8804,-0.8804,-0.8804,-0.8804,-0.8804,-0.8804,-0.8804,-0.8804,-0.8804,-0.8752,-0.8752,-0.8804,-0.8699,-0.8449,-0.7758,-0.7662,-0.7223,0.0,0.0,0.0,0.0,0.0,-0.4597,-0.4497,0.0,0.0,-0.3675,-0.3475,0.0,0.0,-0.211,-0.1697,-0.1617,-0.143,0.0,-0.1604,-0.2087,-0.2395,-0.2558,-0.2583,-0.2625,-0.2681,-0.2681,-0.3122,-0.3936,-0.3997,-0.4445,-0.5292,-0.5362,-0.5428,-0.5428,-0.5428,-0.5428,-0.5428,-0.5428,-0.5428,-0.5428,-0.5428,-0.5428,-0.5428,0.0,0.0,0.0,0.0,0.0,0.0,0.0,-1.7502,-1.7144,-1.6182,-1.5085,-1.4373,-1.4373,-1.4373,-1.4186,-1.3668,-1.3621,-1.3621,-1.3621,-1.3621,-1.3621,-1.3621,-1.3536,-1.3338,-1.3057,-1.2605,-1.1737,0.0,0.0,-0.7756,-0.5819,-0.649,-0.7165,-0.7904,0.0,-0.9828,-1.0558,-1.142,-1.194,-1.2264,-1.2725,-1.2421,-1.1769,-1.2026,-1.156,-1.0838,-1.1057,-1.0812,-1.0395,-1.0438,-0.9873,-0.9159,-0.9061,-0.891,-0.8804,-0.8804,-0.8804,-0.8804,-0.8804,-0.8804,-0.8804,-0.8804,-0.8804,-0.8804,-0.8804,-0.8804,-0.8804,-0.8804,-0.8804,-0.8718,-0.8391,-0.7997,-0.7516,-0.6995,0.0,0.0,0.0,0.0,0.0,-0.4723,0.0,-0.4168,0.0,0.0,0.0,0.0,0.0,-0.2337,-0.1917,-0.2104,0.0,-0.1987,0.0,-0.2706,-0.3079,-0.3182,-0.3403,-0.3793,-0.3793,-0.4002,-0.4427,-0.4511,-0.4826,-0.5428,-0.5428,-0.5428,-0.5428,-0.5428,-0.5428,-0.5428,-0.5428,-0.5428,-0.5428,-0.5428,-0.5428,-0.5428,-1.6436,0.0,-1.7882,0.0,-1.7502,-1.7199,-1.7199,-1.7199,-1.7199,-1.7199,-1.6051,-1.4994,-1.4466,-1.4373,-1.4186,-1.3668,-1.3621,-1.3621,-1.3621,-1.3621,-1.3621,-1.3621,-1.3488,0.0,-1.3344,-1.2879,-1.224,-1.143,-1.0382,-0.8935,-0.7198,-0.7953,-0.8673,-0.9355,-1.0215,-1.0904,-1.1483,-1.2144,-1.2598,-1.2881,-1.2881,-1.2627,-1.2274,-1.2224,-1.1819,-1.1309,-1.1469,-1.1267,-1.0964,-1.0863,-1.0293,-0.9569,-0.9465,-0.9263,-0.9061,-0.9061,-0.891,-0.8804,-0.8804,-0.8804,-0.8804,-0.8804,-0.8804,-0.8804,-0.8804,-0.8804,-0.8804,-0.8804,-0.8804,-0.8804,-0.8804,-0.8313,-0.785,-0.7792,0.0,0.0,0.0,-0.6147,0.0,-0.5063,-0.465,-0.4308,-0.3987,-0.3759,0.0,0.0,0.0,-0.3002,-0.2352,-0.2667,0.0,0.0,0.0,0.0,-0.377,-0.3842,-0.4128,-0.4519,-0.4519,-0.4545,-0.4697,-0.4894,-0.5094,-0.5294,-0.5342,-0.5428,-0.5428,-0.5428,-0.5428,-0.5428,-0.5428,-0.5428,-0.5428,-0.5428,-0.5428,-0.5428,-1.7882,-1.7882,-1.7882,-1.7882,-1.7502,-1.7199,-1.7199,-1.7199,-1.7199,-1.7199,-1.7199,-1.6454,-1.4593,-1.4373,-1.4186,-1.3668,-1.3621,-1.3621,-1.3621,-1.3621,-1.3621,0.0,0.0,-1.3467,-1.3218,-1.3122,-1.3035,-1.2861,0.0,-1.0459,-1.0431,-0.9312,-0.9388,-1.0487,-1.0895,-1.15,-1.2209,-1.2686,-1.2871,-1.2881,-1.2783,-1.2676,-1.2676,-1.2529,-1.2076,-1.1578,-1.2234,-1.166,-1.071,-1.1267,-1.1116,-1.0549,-1.0423,-1.0012,-0.9614,-0.9614,-0.9211,-0.8804,-0.8804,-0.8804,-0.8804,-0.8804,-0.8804,-0.8804,-0.8804,-0.8804,-0.8804,-0.8804,-0.8804,-0.8804,-0.8804,-0.8804,-0.8489,-0.7631,0.0,0.0,0.0,-0.636,0.0,-0.5531,-0.4732,-0.4169,-0.4089,-0.3674,0.0,0.0,0.0,-0.3595,-0.3111,-0.3023,0.0,-0.3687,-0.4344,0.0,-0.461,-0.4664,-0.4632,-0.4519,-0.4519,-0.4545,-0.4701,-0.4996,-0.5131,-0.5142,-0.5294,-0.5428,-0.5428,-0.5428,-0.5428,-0.5428,-0.5428,-0.5428,-0.5428,-0.5428,-0.5428,-0.5428,-1.7502,-1.7406,-1.7406,-1.7406,-1.7282,-1.7199,-1.7199,-1.7199,-1.7199,-1.7199,-1.7199,-1.685,-1.5932,-1.5844,-1.5756,0.0,-1.5567,-1.5017,0.0,-1.3621,-1.3515,-1.3314,-1.3515,-1.343,-1.3162,-1.3113,-1.3017,-1.2881,0.0,0.0,-1.2128,-1.176,-1.1779,-1.2137,-1.2273,-1.2474,-1.2686,-1.2822,-1.2832,-1.2783,-1.2725,-1.2627,-1.2578,-1.2529,-1.2382,-1.2175,-1.2323,-1.2126,-1.1769,-1.1877,-1.1769,-1.1619,-1.156,-1.0889,-1.0167,-1.0167,-0.9762,-0.9361,-0.9361,-0.9061,-0.8804,-0.8804,-0.8804,-0.8804,-0.8804,-0.8804,-0.8804,-0.8804,-0.8804,-0.8804,-0.8804,-0.8745,-0.8547,-0.8293,-0.8252,0.0,-0.7295,0.0,-0.6557,-0.6029,-0.5698,-0.5394,-0.5231,-0.5323,0.0,0.0,0.0,-0.4244,-0.4008,0.0,0.0,0.0,-0.4555,0.0,-0.4557,-0.4551,-0.4519,-0.4519,-0.4519,-0.4545,-0.4697,-0.4897,-0.504,-0.5138,-0.5294,-0.5428,-0.5428,-0.5428,-0.5428,-0.5428,-0.5428,-0.5428,-0.5428,-0.5428,-0.5428,-0.5428,-1.724,-1.7199,-1.7199,-1.7199,-1.7199,-1.7199,-1.7199,-1.7199,-1.7199,-1.7199,-1.7031,-1.682,-1.6522,-1.6522,0.0,-1.6522,-1.6522,-1.5656,-1.3705,-1.3621,-1.3467,-1.3208,-1.3324,-1.3296,-1.3085,-1.3085,0.0,-1.2881,-1.2881,-1.2881,-1.2881,-1.2881,-1.2881,-1.2881,-1.2881,-1.2871,-1.2774,-1.2832,-1.2735,-1.2627,-1.2578,-1.248,-1.2431,-1.2382,-1.2332,-1.2323,-1.2274,-1.2224,-1.2224,-1.2126,-1.2076,-1.2076,-1.2076,-1.161,-1.099,-1.0787,-1.0328,-0.9917,-0.9917,-0.9666,-0.9361,-0.9159,-0.9113,-0.9061,-0.8857,-0.8804,-0.8804,-0.8804,-0.8804,-0.8804,-0.8804,-0.8745,-0.8685,-0.8685,-0.8586,-0.8427,-0.8055,0.0,-0.7291,0.0,0.0,0.0,0.0,-0.6195,-0.608,0.0,0.0,0.0,0.0,0.0,-0.4454,-0.4698,-0.48,-0.4801,-0.4645,-0.458,-0.4574,-0.4519,-0.4519,-0.457,-0.4609,-0.4762,-0.4911,-0.506,-0.5209,-0.5308,-0.5428,-0.5428,-0.5428,-0.5428,-0.5428,-0.5428,-0.5428,-0.5428,-0.5296,-0.5163,-1.7199,-1.7199,-1.7199,-1.7199,-1.7199,-1.7199,-1.7199,-1.7199,-1.7199,-1.7199,-1.682,-1.6522,-1.6522,-1.6522,-1.6522,-1.6522,0.0,0.0,-1.3705,-1.3621,-1.3467,-1.3266,-1.3228,-1.319,-1.3182,-1.3172,-1.3123,-1.3027,-1.3027,-1.2968,-1.2881,-1.2881,-1.2881,-1.2881,-1.2881,-1.2774,-1.2608,-1.2676,-1.2627,-1.248,-1.2323,-1.2274,-1.2274,-1.2126,-1.2076,-1.2076,-1.2076,-1.2076,-1.2076,-1.2076,-1.2076,-1.2076,-1.2076,-1.2094,-1.2063,-1.1528,-1.0947,-1.0466,-1.0466,-1.0415,-1.0261,-0.9762,-0.9666,-0.951,-0.8956,-0.8857,-0.8857,-0.8811,-0.8804,-0.8804,-0.8804,-0.8804,-0.8804,-0.8804,-0.8752,-0.8752,-0.8752,-0.8557,-0.8163,0.0,0.0,0.0,-0.6568,-0.6541,-0.6597,0.0,0.0,0.0,0.0,0.0,-0.461,-0.5109,-0.5179,-0.5124,-0.4952,-0.4794,-0.4688,-0.4519,-0.4519,-0.4519,-0.4522,-0.4619,-0.4775,-0.4925,-0.5067,-0.5216,-0.5428,-0.5428,-0.5428,-0.5428,-0.5362,-0.5362,-0.5428,-0.5362,-0.5096,-0.4764,0.0,0.0,-1.7199,-1.7199,-1.7199,-1.7199,-1.7199,-1.7199,-1.7199,-1.7199,-1.7115,-1.6905,-1.6522,-1.6522,-1.6522,-1.6522,-1.6522,-1.5656,-1.3705,-1.3621,-1.3563,-1.3515,-1.4014,-1.4107,-1.3716,-1.4118,-1.4212,-1.3978,-1.3978,-1.3621,-1.2881,-1.2881,-1.2881,-1.2881,-1.2881,-1.2832,-1.2676,-1.2676,-1.2578,-1.2323,-1.2323,-1.2224,-1.2126,-1.2126,-1.2076,-1.2076,-1.2076,-1.2076,-1.2076,-1.2076,-1.2076,-1.2076,-1.2076,-1.2337,-1.2461,-1.2059,-1.1519,-1.1108,-1.1108,-1.0736,-1.0364,-1.0269,-1.021,-1.0064,-0.951,-0.9413,-0.9309,-0.891,-0.8804,-0.8804,-0.8804,-0.8692,-0.8633,-0.8633,-0.858,-0.848,-0.848,-0.8332,-0.8093,0.0,-0.8047,-0.7924,-0.7561,-0.798,-0.7872,0.0,0.0,-0.6848,-0.6276,-0.5933,-0.5686,-0.566,-0.5946,-0.5891,-0.5454,-0.523,-0.4956,-0.4519,-0.4519,-0.4519,-0.4522,-0.4619,-0.4775,-0.4925,-0.5067,-0.5216,-0.5428,-0.5428,-0.5428,-0.5362,-0.5223,-0.5292,-0.5362,-0.5166,-0.4964,-0.4694,-1.7502,-1.7365,-1.7199,-1.7199,-1.7199,-1.7199,-1.7199,-1.7199,-1.7199,-1.7199,-1.7199,-1.7115,-1.6863,-1.665,-1.6522,-1.6522,-1.6522,-1.6064,-1.4971,-1.4937,-1.4937,-1.4937,-1.5287,-1.5107,-1.4294,-1.456,-1.4606,-1.4305,-1.4305,-1.4025,-1.3525,-1.3392,-1.3344,-1.3344,-1.3344,-1.3296,-1.3104,-1.2764,-1.248,-1.2274,-1.2224,-1.2175,-1.2076,-1.2076,-1.2076,-1.2076,-1.2076,-1.2076,-1.2153,-1.2337,-1.2393,-1.2429,-1.2571,-1.2782,-1.291,-1.27,-1.2283,-1.1899,-1.1722,-1.141,-1.1141,-1.0889,-1.0576,-1.0312,-1.0012,-0.9762,-0.951,-0.9211,-0.8956,-0.8804,-0.8804,-0.8745,-0.8692,-0.8692,-0.8639,-0.8586,-0.8586,-0.8502,-0.8403,-0.8403,-0.8512,-0.851,-0.835,-0.8624,-0.8515,-0.7734,-0.7795,0.0,-0.6781,-0.6996,-0.6839,-0.6204,-0.6322,-0.6273,-0.5946,-0.5773,-0.5555,-0.5281,-0.5007,-0.4846,-0.4849,-0.4661,-0.467,-0.4823,-0.4969,-0.5118,-0.526,-0.5332,-0.5428,-0.5362,-0.5292,-0.5226,-0.5233,-0.5033,-0.4897,-0.4694,-1.7882,-1.7584,-1.7323,-1.7323,-1.724,-1.7199,-1.7199,-1.7199,-1.7199,-1.7199,-1.7199,-1.7199,-1.7199,-1.6778,-1.6522,-1.6522,-1.6522,-1.6522,-1.6522,-1.6522,-1.6522,-1.6522,-1.6522,-1.602,-1.4971,-1.4971,-1.4789,-1.4536,-1.4536,-1.4536,-1.4536,-1.4222,-1.4071,-1.4025,-1.3941,-1.38,-1.3563,-1.2949,-1.2616,-1.2544,-1.2466,-1.2395,-1.241,-1.241,-1.236,-1.2259,-1.2259,-1.2259,-1.2305,-1.2696,-1.2807,-1.2871,-1.3176,-1.3332,-1.3369,-1.3314,-1.3085,-1.2798,-1.2337,-1.2172,-1.1977,-1.1519,-1.1049,-1.0618,-1.0576,-1.0174,-0.9821,-0.9762,-0.9361,-0.9061,-0.9061,-0.8956,-0.891,-0.891,-0.8857,-0.8804,-0.8804,0.0,-0.8804,-0.8804,-0.8804,-0.8804,-0.8804,-0.8804,-0.8699,-0.8421,-0.8521,-0.8203,-0.73,-0.7842,-0.7729,-0.6804,-0.6707,-0.6598,-0.649,-0.6322,-0.6209,-0.6209,-0.5664,-0.5441,-0.5441,-0.4956,-0.4769,-0.4872,-0.4946,-0.504,-0.5142,-0.5274,-0.5342,-0.5362,-0.5362,-0.5163,-0.5033,-0.49,-0.4831,-0.4628,-1.7882,-1.7842,-1.7788,-1.7788,-1.7447,-1.7199,-1.7199,-1.7199,-1.7199,-1.7199,-1.7199,-1.7199,-1.7199,-1.6778,-1.6522,-1.6522,-1.6522,-1.6522,-1.6522,-1.6522,-1.6522,-1.6522,-1.6522,-1.6423,-1.6194,-1.5856,-1.5603,-1.5558,-1.5558,-1.5558,-1.5558,-1.5108,-1.4812,-1.4652,-1.4118,-1.38,-1.3621,-1.3658,-1.3618,-1.3564,-1.3872,-1.385,-1.3691,-1.3691,-1.3478,-1.3103,-1.3103,-1.3103,-1.3112,-1.3176,-1.3195,-1.3213,-1.3277,-1.3525,-1.3727,-1.3387,-1.3479,-1.3525,-1.2825,-1.2383,-1.2076,-1.1977,-1.1927,-1.1719,-1.1259,-1.1116,-1.0905,-1.0372,-1.0218,-1.0167,-1.0167,-0.9762,-0.9458,-0.9458,-0.9106,-0.8804,-0.8804,0.0,-0.8804,-0.8804,-0.8804,-0.8804,-0.8804,-0.8804,-0.8745,-0.8573,-0.8474,-0.8315,-0.8055,-0.7955,-0.7848,-0.7681,-0.7681,-0.7467,-0.6977,-0.648,-0.6209,-0.6209,-0.61,-0.6046,-0.6046,-0.5991,-0.5772,-0.5439,-0.5467,-0.5359,-0.5131,-0.5155,-0.5243,-0.5362,-0.503,-0.496,-0.5024,-0.4564,-0.4498,-0.4561,-1.8069,-1.7882,-1.7882,-1.7882,-1.7706,-1.7584,-1.7584,-1.7584,-1.7502,-1.724,-1.7199,-1.7199,-1.7199,-1.8131,-1.815,-1.6622,-1.6522,-1.6522,-1.6522,-1.6522,-1.6522,-1.6522,-1.6522,-1.6522,-1.6522,-1.6044,-1.5792,-1.5792,-1.5792,-1.5792,-1.5792,-1.557,-1.5424,-1.5311,-1.4766,-1.4644,-1.484,-1.4542,-1.4609,-1.4841,-1.49,-1.48,-1.4588,-1.4588,-1.4344,-1.4043,-1.4043,-1.4043,-1.4082,-1.4305,-1.4217,-1.4034,-1.4251,-1.4296,-1.4185,-1.4002,-1.3607,-1.3149,-1.2816,-1.2429,-1.2076,-1.2076,-1.2076,-1.2026,-1.1778,-1.1528,-1.1217,-1.0947,-1.0626,-1.0415,-1.0415,-1.0218,-0.9909,-0.9666,-0.9413,-0.9106,-0.8857,-0.8804,-0.8804,-0.8804,-0.8804,-0.8804,-0.8804,-0.8804,-0.8745,-0.8626,-0.8521,-0.8421,-0.8221,-0.8168,-0.8115,-0.7901,-0.7901,-0.7794,-0.7521,-0.7246,-0.7133,-0.7139,-0.681,-0.6701,-0.6696,-0.6372,-0.6096,-0.5914,-0.6024,-0.5935,-0.5804,-0.5623,-0.5616,-0.5697,-0.5193,-0.5024,-0.502,-0.4628,-0.4495,-0.4561,-1.8707,-1.8436,-1.8333,-1.7963,-1.8214,-1.8672,-1.9288,-1.9017,-1.8526,-1.8096,-1.7539,-1.7408,-1.7944,-1.9638,-1.9846,-1.7664,-1.7377,-1.7061,-1.6547,-1.6522,-1.6522,-1.6522,-1.6522,-1.6522,-1.6522,-1.61,-1.5881,-1.5881,-1.5836,-1.5836,-1.5792,-1.5792,-1.5792,-1.5804,-1.5588,-1.5742,-1.6114,-1.577,-1.5881,-1.6295,-1.6122,-1.5886,-1.5627,-1.5627,-1.5436,-1.5147,-1.5083,-1.5093,-1.509,-1.5381,-1.5203,-1.498,-1.5245,-1.5128,-1.4793,-1.4675,-1.3876,-1.2963,-1.277,-1.2429,-1.2076,-1.2076,-1.2076,-1.2076,-1.2076,-1.1778,-1.1477,-1.1477,-1.1099,-1.0779,-1.0779,-1.0677,-1.0423,-0.9865,0.0,-0.9413,-0.8857,-0.8804,-0.8804,-0.8804,-0.8804,-0.8804,-0.8804,-0.8804,-0.8745,-0.8626,-0.8573,-0.8474,-0.8268,-0.8268,-0.8162,-0.7901,-0.7901,-0.7901,-0.7901,-0.7901,-0.7901,-0.7901,-0.7467,-0.73,-0.7246,-0.681,-0.6534,-0.6436,-0.6495,-0.6478,-0.6377,-0.6203,-0.6038,-0.59,-0.5521,-0.5205,-0.4973,-0.4776,-0.4665,-0.4495,-2.022,-2.0115,-1.9639,-1.8149,-1.9147,-2.0956,-2.3448,-2.2316,-2.096,-2.0499,-1.8532,-1.8022,-2.0214,-2.0607,-2.0633,-2.0414,-1.9876,-1.8694,-1.6647,-1.6522,-1.6522,-1.6522,-1.6522,-1.6522,-1.6522,-1.6275,-1.6156,-1.6069,-1.6001,-1.5913,-1.5792,-1.5792,-1.5792,-1.5828,-1.6476,-1.6787,-1.6859,-1.7458,-1.7871,-1.8158,-1.7757,-1.747,-1.7214,-1.7214,-1.6937,-1.6536,-1.6265,-1.6151,-1.6162,-1.5928,-1.5823,-1.5833,-1.5864,-1.5816,-1.57,-1.5294,-1.4495,-1.3626,-1.2927,-1.2429,-1.2076,-1.2076,-1.2076,-1.2076,-1.2076,-1.2076,-1.2026,-1.2026,-1.2026,-1.1968,-1.1968,-1.1569,-1.1057,-1.0423,0.0,0.0,-0.8857,-0.8804,-0.8804,-0.8804,-0.8804,-0.8804,-0.8804,-0.8804,-0.8745,-0.8626,-0.8474,-0.8421,-0.8374,-0.8109,-0.7901,-0.7901,-0.7901,-0.7901,-0.7901,-0.7901,-0.7901,-0.7901,-0.7848,-0.7848,-0.7848,-0.7788,-0.7521,-0.7031,-0.7047,-0.6789,-0.6411,-0.6386,-0.6149,-0.5824,-0.6207,-0.5639,-0.4702,-0.5011,-0.4776,-0.43,-2.0373,-2.0304,-2.065,-2.1694,-2.2354,-2.3117,-2.4148,-2.3666,-2.3128,-2.295,-2.0859,-1.9729,-2.0607,-2.0699,-2.0699,-2.0699,-2.0485,-1.9861,-1.8606,-1.8555,-1.8555,-1.8555,-1.725,-1.6522,-1.6522,-1.7122,-1.7347,-1.7149,-1.7044,-1.6939,-1.6763,-1.6763,-1.6763,-1.6822,-1.7099,-1.7339,-1.7556,-1.7783,-1.8247,-1.875,-1.8613,-1.8478,-1.8375,-1.8224,-1.7886,-1.7556,-1.7446,-1.7401,-1.7401,-1.7134,-1.6842,-1.656,-1.6389,-1.6104,-1.5874,-1.57,-1.4809,-1.3881,-1.3569,-1.3015,-1.2429,-1.2131,-1.2076,-1.2076,-1.2076,-1.2076,-1.2076,-1.2076,-1.2076,-1.2076,-1.2076,-1.1927,-1.1619,-1.1049,0.0,-1.0438,-0.9865,-0.9814,-0.9666,-0.9361,-0.9309,-0.9159,-0.8857,-0.8804,-0.8804,-0.8745,-0.858,-0.8527,-0.8527,-0.8321,-0.8268,-0.8315,-0.8162,-0.8008,-0.7901,-0.7901,-0.7901,-0.7901,-0.7901,-0.7901,-0.7901,-0.7901,-0.7794,-0.7574,-0.7574,-0.7518,-0.7285,-0.7084,-0.6845,-0.6697,-0.6479,-0.6034,-0.5482,-0.5475,-0.5271,-0.4908,-2.0494,-2.1159,-2.2319,-2.3979,-2.4302,-2.4302,-2.4302,-2.4302,-2.4302,-2.4302,-2.2846,-2.1752,-2.1623,-2.1082,-2.0699,-2.0699,-2.0699,-2.0549,-2.0118,-1.9914,-1.9798,-1.9798,-1.8355,-1.7551,-1.7551,-1.8304,-1.8446,-1.7918,-1.7921,-1.7776,-1.758,-1.7508,-1.746,-1.7424,-1.7532,-1.7663,-1.7915,-1.813,-1.8554,-1.8987,-1.8987,-1.8987,-1.8999,-1.8774,-1.856,-1.8356,-1.8302,-1.8247,-1.8193,-1.792,-1.759,-1.719,-1.7022,-1.657,-1.6104,-1.6104,-1.5305,-1.4326,-1.4233,-1.3609,-1.288,-1.2277,-1.2076,-1.2076,-1.2076,-1.2076,-1.2076,-1.2076,-1.2076,-1.2076,-1.2076,-1.2076,-1.1927,-1.1377,-1.1326,-1.1108,-1.0466,-1.0415,-1.0261,-0.9917,-0.9865,-0.9666,-0.9113,-0.9061,-0.8956,-0.8804,-0.8685,-0.8573,-0.8521,-0.8474,-0.8474,-0.8521,-0.8374,-0.8168,-0.8008,-0.7955,-0.7901,-0.7901,-0.7901,-0.7901,-0.7901,-0.7901,-0.7901,-0.7901,-0.7901,-0.7901,-0.786,-0.7582,-0.7372,-0.7215,-0.6984,-0.6555,-0.6083,-0.6075,-0.5819,-0.5419,-2.0826,-2.309,-2.4846,-2.44,-2.4302,-2.4302,-2.4302,-2.4302,-2.4302,-2.4302,-2.4302,-2.412,-2.3653,-2.1908,-2.0699,-2.0699,-2.0699,-2.0699,-2.0699,-2.0169,-1.9798,-1.9798,-1.9798,-1.9798,-1.9798,-1.9798,-1.9284,-1.8216,-1.8399,-1.8326,-1.7891,-1.7727,-1.7557,-1.7448,-1.7747,-1.7903,-1.7951,-1.8698,-1.8987,-1.8987,-1.8987,-1.8987,-1.8987,-1.8987,-1.8987,-1.8999,-1.8721,-1.8614,-1.856,-1.8193,-1.7931,-1.7711,-1.7711,-1.72,-1.6627,-1.6627,-1.592,-1.5084,-1.473,-1.4234,-1.354,-1.2376,-1.2126,-1.2076,-1.2076,-1.2076,-1.2076,-1.2076,-1.2076,-1.2076,-1.2076,-1.2076,-1.1927,-1.1368,-1.1326,-1.1108,-1.0525,-1.0415,-1.0415,-1.0415,-1.0415,-1.0218,-0.9666,-0.9614,-0.9361,-0.8857,-0.8685,-0.8521,-0.8427,-0.8527,-0.8521,-0.8427,-0.8421,-0.8321,-0.8221,-0.8008,-0.7901,-0.7901,-0.7901,-0.7901,-0.7901,-0.7901,-0.7901,-0.7901,-0.7901,-0.7901,-0.7901,-0.7901,-0.7574,-0.7139,-0.7681,-0.7219,-0.6283,-0.6796,-0.646,-0.5759,-2.3375,-2.4435,-2.4966,-2.4806,-2.4806,-2.4806,-2.4806,-2.4508,-2.4302,-2.4302,-2.4302,-2.4261,-2.4135,-2.3275,-2.2725,-2.2725,-2.2725,-2.2725,-2.2725,-2.2282,-2.167,-2.093,-2.0194,-1.9798,-1.9798,-1.9798,-1.9648,-1.9321,-1.9384,-1.9294,-1.9062,-1.8888,-1.8736,-1.8645,-1.8806,-1.879,-1.8698,-1.8903,-1.8987,-1.8987,-1.8987,-1.8987,-1.8987,-1.8987,-1.8987,-1.8987,-1.8881,-1.8881,-1.8827,-1.856,-1.8398,-1.829,-1.803,-1.77,-1.7368,-1.7368,-1.6342,-1.5142,-1.506,-1.4195,-1.3292,-1.2958,-1.2706,-1.2529,-1.2529,-1.2274,-1.2076,-1.2076,-1.2076,-1.2076,-1.2076,-1.2076,-1.2026,-1.1877,-1.1877,-1.1819,-1.161,-1.161,-1.146,-1.1057,-1.1006,-1.0795,-1.0218,-1.0167,-0.9917,-0.9413,-0.8949,-0.8752,-0.8699,-0.8692,-0.8699,-0.8699,-0.858,-0.8527,-0.8474,-0.8215,-0.8062,-0.7901,-0.7901,-0.7901,-0.7901,-0.7901,-0.7901,-0.7901,-0.7901,-0.7901,-0.7901,-0.7901,-0.7794,-0.7681,-0.7848,-0.7566,-0.7132,-0.7296,-0.706,-0.6646,-2.4673,-2.5005,-2.5005,-2.5005,-2.5005,-2.5005,-2.5005,-2.4766,-2.4589,-2.4589,-2.4426,-2.4302,-2.4302,-2.4051,-2.3824,-2.3595,-2.3595,-2.3595,-2.3595,-2.3348,-2.2694,-2.1595,-2.093,-2.0346,-1.9798,-1.9798,-1.9798,-1.9798,-1.9798,-1.9759,-1.9681,-1.9565,-1.942,-1.934,-1.9328,-1.9223,-1.9105,-1.904,-1.8987,-1.8987,-1.8987,-1.8987,-1.8987,-1.8987,-1.8987,-1.8987,-1.8987,-1.8987,-1.8999,-1.8827,-1.8667,-1.856,-1.8193,-1.7975,-1.7877,-1.7877,-1.6888,-1.5742,-1.5742,-1.4887,-1.3978,-1.3978,-1.342,-1.2861,-1.2725,-1.2529,-1.2274,-1.2126,-1.2076,-1.2076,-1.2076,-1.2076,-1.2076,-1.2076,-1.2076,-1.2076,-1.2076,-1.2076,-1.1977,-1.1669,-1.1628,-1.141,-1.0787,-1.0736,-1.0533,-0.9961,-0.9614,-0.9361,-0.9113,-0.9106,-0.9008,-0.8811,-0.8745,-0.8633,-0.8626,-0.8421,-0.8268,-0.8109,-0.8062,-0.8008,-0.8008,-0.7955,-0.7901,-0.7901,-0.7901,-0.7901,-0.7901,-0.7901,-0.7901,-0.7901,-0.7901,-0.7788,-0.7681,-0.7681,-0.7467,-0.7225,-2.5005,-2.5005,-2.5005,-2.5005,-2.5005,-2.5005,-2.5005,-2.5005,-2.5005,-2.5005,-2.4605,-2.4302,-2.4302,-2.4302,-2.4135,-2.3696,-2.3638,-2.3595,-2.3638,-2.3595,-2.3069,-2.1932,-2.2002,-2.1444,-2.0093,-2.0093,-2.0093,-2.0093,-1.9901,-1.9798,-1.9798,-1.9798,-1.972,-1.9602,-1.9433,-1.9328,-1.9328,-1.9158,-1.904,-1.904,-1.904,-1.904,-1.904,-1.904,-1.8999,-1.8987,-1.8987,-1.8987,-1.8987,-1.8987,-1.8827,-1.856,-1.8302,-1.8139,-1.8139,-1.8139,-1.7415,-1.6623,-1.6623,-1.5877,-1.5108,-1.5108,-1.4212,-1.3266,-1.291,-1.2774,-1.2627,-1.2224,-1.2175,-1.2126,-1.2126,-1.2076,-1.2076,-1.2076,-1.2076,-1.2076,-1.2076,-1.2076,-1.2076,-1.2076,-1.2076,-1.1927,-1.1427,-1.1326,-1.1057,-1.0525,-1.0415,-1.0167,-0.971,-0.9658,-0.9465,-0.8956,-0.891,-0.8798,-0.8679,-0.8626,-0.8521,-0.8421,-0.8268,-0.8221,-0.8221,-0.8008,-0.7955,-0.7901,-0.7955,-0.7955,-0.7901,-0.7901,-0.7901,-0.7901,-0.7901,-0.7901,-0.7901,-0.7901,-0.7741,-0.7555,-2.5005,-2.5005,-2.5005,-2.5005,-2.5005,-2.5005,-2.5005,-2.5005,-2.5005,-2.5005,-2.4605,-2.4302,-2.4302,-2.4302,-2.4261,-2.4177,-2.3824,-2.3696,-2.3882,-2.3739,-2.3508,-2.3216,-2.3113,-2.2814,-2.2249,-2.2203,-2.2203,-2.2203,-2.0584,-1.9798,-1.9798,-1.9798,-1.9798,-1.9759,-1.9708,-1.9565,-1.9368,-1.9552,-1.95,-1.9316,-1.9316,-1.9263,-1.921,-1.921,-1.9158,-1.8987,-1.8987,-1.8987,-1.8987,-1.8987,-1.8934,-1.8881,-1.8827,-1.8667,-1.8506,-1.8506,-1.7572,-1.6623,-1.6623,-1.5877,-1.5108,-1.5108,-1.4869,-1.4547,-1.3988,-1.3467,-1.2987,-1.2618,-1.2578,-1.248,-1.2175,-1.2076,-1.2076,-1.2076,-1.2076,-1.2076,-1.2076,-1.2076,-1.2076,-1.2076,-1.2076,-1.2076,-1.1927,-1.1528,-1.1267,-1.1108,-1.0685,-1.0364,-1.021,-1.0218,-1.0167,-1.0064,-0.9666,-0.9413,-0.9406,-0.8956,-0.8639,-0.8421,-0.8368,-0.8321,-0.8221,-0.8268,-0.8162,-0.7901,-0.8162,-0.8162,-0.7901,-0.8062,-0.8062,-0.7901,-0.7901,-0.7901,-0.7901,-0.7901,-0.7848,-0.78,-2.5005,-2.5005,-2.5005,-2.5005,-2.5005,-2.5005,-2.5005,-2.5005,-2.5005,-2.5005,-2.4806,-2.4549,-2.4302,-2.4302,-2.4219,-2.3994,-2.3739,-2.3653,-2.3797,-2.3696,-2.3595,-2.3595,-2.3494,-2.3363,-2.3231,-2.3112,-2.2992,-2.2888,-2.1813,-2.1272,-2.1272,-2.0245,-1.9798,-1.9798,-1.9798,-1.9708,-1.9617,-1.9759,-1.9901,-2.0055,-1.9708,-1.972,-1.9875,-1.9577,-1.9275,-1.9105,-1.9105,-1.9052,-1.8987,-1.8987,-1.8987,-1.8987,-1.8987,-1.8881,-1.8774,-1.8774,-1.8111,-1.7337,-1.7041,-1.6396,-1.5728,-1.5494,-1.5379,-1.5142,-1.4479,-1.405,-1.3674,-1.3238,-1.3152,-1.2997,-1.252,-1.2421,-1.2323,-1.2224,-1.2126,-1.2076,-1.2076,-1.2076,-1.2076,-1.2076,-1.2076,-1.2076,-1.2076,-1.1828,-1.1678,-1.1678,-1.141,-1.1091,-1.0838,-1.0846,-1.0685,-1.0415,-1.0115,-0.9865,-0.9614,-0.9309,-0.9001,-0.8586,-0.8527,-0.8474,-0.8368,-0.8421,-0.8321,-0.8162,-0.8321,-0.8321,-0.8162,-0.8168,-0.8115,-0.8008,-0.7955,-0.7901,-0.7901,-0.7901,-0.7901,-0.7901,-2.54,-2.54,-2.54,-2.54,-2.54,-2.54,-2.54,-2.54,-2.54,-2.54,-2.5146,-2.4846,-2.4467,-2.4343,-2.4135,-2.3767,-2.3724,-2.3696,-2.3595,-2.3653,-2.3653,-2.3638,-2.3581,-2.3538,-2.3566,-2.3378,-2.3171,-2.2978,-2.2933,-2.2888,-2.2843,-2.1126,-2.0346,-2.0346,-2.0346,-2.0346,-2.0295,-2.0105,-2.0346,-2.0845,-2.0295,-2.0346,-2.061,-1.999,-1.9589,-1.9368,-1.9275,-1.917,-1.904,-1.904,-1.8999,-1.8987,-1.8987,-1.8987,-1.8987,-1.8987,-1.8614,-1.8085,-1.7556,-1.7027,-1.6452,-1.5924,-1.5647,-1.5412,-1.4835,-1.4652,-1.4422,-1.3884,-1.3742,-1.361,-1.3084,-1.2958,-1.2813,-1.2569,-1.2363,-1.2274,-1.2224,-1.2175,-1.2126,-1.2126,-1.2126,-1.2126,-1.2076,-1.2126,-1.2126,-1.2126,-1.2126,-1.1927,-1.1528,-1.1477,-1.1259,-1.0771,-1.0677,-1.0372,-0.9925,-0.9821,-0.9465,-0.8956,-0.8837,-0.8732,-0.8573,-0.8527,-0.8427,-0.8421,-0.8427,-0.8427,-0.8368,-0.8321,-0.8221,-0.8168,-0.8008,-0.7955,-0.7901,-0.7901,-0.7901,-0.7901,-2.7007,-2.7007,-2.7007,-2.7007,-2.7007,-2.7007,-2.7007,-2.7007,-2.7007,-2.7007,-2.5848,-2.4966,-2.4926,-2.4549,-2.4261,-2.4219,-2.4219,-2.4036,-2.3638,-2.3769,-2.3827,-2.3797,-2.3653,-2.3566,-2.3494,-2.3523,-2.3436,-2.3231,-2.3023,-2.2888,-2.2888,-2.2601,-2.2495,-2.2495,-2.2495,-2.2495,-2.2402,-2.1237,-2.0795,-2.0944,-2.1126,-2.1175,-2.1042,-2.051,-2.0207,-1.9991,-1.9565,-1.9275,-1.917,-1.917,-1.9105,-1.8987,-1.8987,-1.8987,-1.8987,-1.8987,-1.8614,-1.8085,-1.7556,-1.7027,-1.6452,-1.5924,-1.5792,-1.5748,-1.5647,-1.5322,-1.4915,-1.4468,-1.4365,-1.4283,-1.3873,-1.3836,-1.3742,-1.3478,-1.3122,-1.2832,-1.2706,-1.2372,-1.2126,-1.2274,-1.2274,-1.2224,-1.2126,-1.2175,-1.2274,-1.2274,-1.2175,-1.2175,-1.2332,-1.2224,-1.2175,-1.2215,-1.166,-1.1318,-1.1217,-1.0635,-1.0012,-0.951,-0.9458,-0.9145,-0.8626,-0.8692,-0.8646,-0.8427,-0.8646,-0.8593,-0.8427,-0.8527,-0.8427,-0.8221,-0.8168,-0.8062,-0.7901,-0.7901,-0.7901,-0.7901,-2.7509,-2.739,-2.7299,-2.7299,-2.7299,-2.7299,-2.7299,-2.7299,-2.7299,-2.7299,-2.6708,-2.6279,-2.6279,-2.5098,-2.4302,-2.4302,-2.4719,-2.4704,-2.4036,-2.412,-2.4078,-2.3797,-2.3653,-2.361,-2.3581,-2.3551,-2.3566,-2.348,-2.3348,-2.3142,-2.2888,-2.2888,-2.2888,-2.2888,-2.2888,-2.2601,-2.2049,-2.2016,-2.1827,-2.1492,-2.1636,-2.1732,-2.1684,-2.114,-2.0894,-2.0683,-2.0093,-1.985,-1.9747,-1.9251,-1.9052,-1.8987,-1.8987,-1.8987,-1.8987,-1.8987,-1.8819,-1.8458,-1.764,-1.7243,-1.6871,-1.5996,-1.5792,-1.5792,-1.5792,-1.5659,-1.5424,-1.513,-1.5073,-1.4937,-1.4468,-1.4329,-1.419,-1.3978,-1.3742,-1.3447,-1.3084,-1.2842,-1.2657,-1.2431,-1.2421,-1.2382,-1.2332,-1.2382,-1.2421,-1.2421,-1.2382,-1.2382,-1.248,-1.2431,-1.2431,-1.248,-1.2224,-1.1918,-1.156,-1.1242,-1.0779,-1.0269,-1.021,-0.9658,-0.8692,-0.8752,-0.8752,-0.8639,-0.8752,-0.8752,-0.8639,-0.8633,-0.8474,-0.8321,-0.8221,-0.8062,-0.7901,-0.7901,-0.7901,-0.7901]},{"header":{"parameterUnit":"m.s-1","parameterCategory":1,"la1":30.6,"la2":28.766,"lo1":-90.7593,"lo2":-88.6598,"dy":0.0162,"dx":0.0183,"nx":116,"ny":114,"refTime":"2024-07-09T06:00:00:Z","depth":0,"parameterNumber":3,"parameterNumberName":"V-component_of_WINDS"},"data":[0.0,0.0,0.0,0.0,0.0,0.0,0.0,0.0,0.0,0.0,0.0,0.0,0.0,0.0,0.0,0.0,0.0,0.0,0.0,0.0,0.0,0.0,0.0,0.0,0.0,0.0,0.0,0.0,0.0,0.0,0.0,0.0,0.0,0.0,0.0,0.0,0.0,0.0,0.0,0.0,0.0,0.0,0.0,0.0,0.0,0.0,0.0,0.0,0.0,0.0,0.0,0.0,0.0,0.0,0.0,0.0,0.0,0.0,0.0,0.0,0.0,0.0,0.0,0.0,0.0,0.0,0.0,0.0,0.0,0.0,0.0,0.0,0.0,0.0,0.0,0.0,0.0,0.0,0.0,0.0,0.0,0.0,0.0,0.0,0.0,0.0,0.0,0.0,0.0,0.0,0.0,0.0,0.0,0.0,0.0,0.0,0.0,0.0,0.0,0.0,0.0,0.0,0.0,0.0,0.0,0.0,0.0,0.0,0.0,0.0,0.0,0.0,0.0,0.0,0.0,0.0,0.0,0.0,0.0,0.0,0.0,0.0,0.0,0.0,0.0,0.0,0.0,0.0,0.0,0.0,0.0,0.0,0.0,0.0,0.0,0.0,0.0,0.0,0.0,0.0,0.0,0.0,0.0,0.0,0.0,0.0,0.0,0.0,0.0,0.0,0.0,0.0,0.0,0.0,0.0,0.0,0.0,0.0,0.0,0.0,0.0,0.0,0.0,0.0,0.0,0.0,0.0,0.0,0.0,0.0,0.0,0.0,0.0,0.0,0.0,0.0,0.0,0.0,0.0,0.0,0.0,0.0,0.0,0.0,0.0,0.0,0.0,0.0,0.0,0.0,0.0,0.0,0.0,0.0,0.0,0.0,0.0,0.0,0.0,0.0,0.0,0.0,0.0,0.0,0.0,0.0,0.0,0.0,0.0,0.0,0.0,0.0,0.0,0.0,0.0,0.0,0.0,0.0,0.0,0.0,0.0,0.0,0.0,0.0,0.0,0.0,0.0,0.0,0.0,0.0,0.0,0.0,0.0,0.0,0.0,0.0,0.0,0.0,0.0,0.0,0.0,0.0,0.0,0.0,0.0,0.0,0.0,0.0,0.0,0.0,0.0,0.0,0.0,0.0,0.0,0.0,0.0,0.0,0.0,0.0,0.0,0.0,0.0,0.0,0.0,0.0,0.0,0.0,0.0,0.0,0.0,0.0,0.0,0.0,0.0,0.0,0.0,0.0,0.0,0.0,0.0,0.0,0.0,0.0,0.0,0.0,0.0,0.0,0.0,0.0,0.0,0.0,0.0,0.0,0.0,0.0,0.0,0.0,0.0,0.0,0.0,0.0,0.0,0.0,0.0,0.0,0.0,0.0,0.0,0.0,0.0,0.0,0.0,0.0,0.0,0.0,0.0,0.0,0.0,0.0,0.0,0.0,0.0,0.0,0.0,0.0,0.0,0.0,0.0,0.0,0.0,0.0,0.0,0.0,0.0,0.0,0.0,0.0,0.0,0.0,0.0,0.0,0.0,0.0,0.0,0.0,0.0,0.0,0.0,0.0,0.0,0.0,0.0,0.0,0.0,0.0,0.0,0.0,0.0,0.0,0.0,0.0,0.0,0.0,0.0,0.0,0.0,0.0,0.0,0.0,0.0,0.0,0.0,0.0,0.0,0.0,0.0,0.0,0.0,0.0,0.0,0.0,0.0,0.0,0.0,0.0,0.0,0.0,0.0,0.0,0.0,0.0,0.0,0.0,0.0,0.0,0.0,0.0,0.0,0.0,0.0,0.0,0.0,0.0,0.0,0.0,0.0,0.0,0.0,0.0,0.0,0.0,0.0,0.0,0.0,0.0,0.0,0.0,0.0,0.0,0.0,0.0,0.0,0.0,0.0,0.0,0.0,0.0,0.0,0.0,0.0,0.0,0.0,0.0,0.0,0.0,0.0,0.0,0.0,0.0,0.0,0.0,0.0,0.0,0.0,0.0,0.0,0.0,0.0,0.0,0.0,0.0,0.0,0.0,0.0,0.0,0.0,0.0,0.0,0.0,0.0,0.0,0.0,0.0,0.0,0.0,0.0,0.0,0.0,0.0,0.0,0.0,0.0,0.0,0.0,0.0,0.0,0.0,0.0,0.0,0.0,0.0,0.0,0.0,0.0,0.0,0.0,0.0,0.0,0.0,0.0,0.0,0.0,0.0,0.0,0.0,0.0,0.0,0.0,0.0,0.0,0.0,0.0,0.0,0.0,0.0,0.0,0.0,0.0,0.0,0.0,0.0,0.0,0.0,0.0,0.0,0.0,0.0,0.0,0.0,0.0,0.0,0.0,0.0,0.0,0.0,0.0,0.0,0.0,0.0,0.0,0.0,0.0,0.0,0.0,0.0,0.0,0.0,0.0,0.0,0.0,0.0,0.0,0.0,0.0,0.0,0.0,0.0,0.0,0.0,0.0,0.0,0.0,0.0,0.0,0.0,0.0,0.0,0.0,0.0,0.0,0.0,0.0,0.0,0.0,0.0,0.0,0.0,0.0,0.0,0.0,0.0,0.0,0.0,0.0,0.0,0.0,0.0,0.0,0.0,0.0,0.0,0.0,0.0,0.0,0.0,0.0,0.0,0.0,0.0,0.0,0.0,0.0,0.0,0.0,0.0,0.0,0.0,0.0,0.0,0.0,0.0,0.0,0.0,0.0,0.0,0.0,0.0,0.0,0.0,0.0,0.0,0.0,0.0,0.0,0.0,0.0,0.0,0.0,0.0,0.0,0.0,0.0,0.0,0.0,0.0,0.0,0.0,0.0,0.0,0.0,0.0,0.0,0.0,0.0,0.0,0.0,0.0,0.0,0.0,0.0,0.0,0.0,0.0,0.0,0.0,0.0,0.0,0.0,0.0,0.0,0.0,0.0,0.0,0.0,0.0,0.0,0.0,0.0,0.0,0.0,0.0,0.0,0.0,0.0,0.0,0.0,0.0,0.0,0.0,0.0,0.0,0.0,0.0,0.0,0.0,0.0,0.0,0.0,0.0,0.0,0.0,0.0,0.0,0.0,0.0,0.0,0.0,0.0,0.0,0.0,0.0,0.0,0.0,0.0,0.0,0.0,0.0,0.0,0.0,0.0,0.0,0.0,0.0,0.0,0.0,0.0,0.0,0.0,0.0,0.0,0.0,0.0,0.0,0.0,0.0,0.0,0.0,0.0,0.0,0.0,0.0,0.0,0.0,0.0,0.0,0.0,0.0,0.0,0.0,0.0,0.0,0.0,0.0,0.0,0.0,0.0,0.0,0.0,0.0,0.0,0.0,0.0,0.0,0.0,0.0,0.0,0.0,0.0,0.0,0.0,0.0,0.0,0.0,0.0,0.0,0.0,0.0,0.0,0.0,0.0,0.0,0.0,0.0,0.0,0.0,0.0,0.0,0.0,0.0,0.0,0.0,0.0,0.0,0.0,0.0,0.0,0.0,0.0,0.0,0.0,0.0,0.0,0.0,0.0,0.0,0.0,0.0,0.0,0.0,0.0,0.0,0.0,0.0,0.0,0.0,0.0,0.0,0.0,0.0,0.0,0.0,0.0,0.0,0.0,0.0,0.0,0.0,0.0,0.0,0.0,0.0,0.0,0.0,0.0,0.0,0.0,0.0,0.0,0.0,0.0,0.0,0.0,0.0,0.0,0.0,0.0,0.0,0.0,0.0,0.0,0.0,0.0,0.0,0.0,0.0,0.0,0.0,0.0,0.0,0.0,0.0,0.0,0.0,0.0,0.0,0.0,0.0,0.0,0.0,0.0,0.0,0.0,0.0,0.0,0.0,0.0,0.0,0.0,0.0,0.0,0.0,0.0,0.0,0.0,0.0,0.0,0.0,0.0,0.0,0.0,0.0,0.0,0.0,0.0,0.0,0.0,0.0,0.0,0.0,0.0,0.0,0.0,0.0,0.0,0.0,0.0,0.0,0.0,0.0,0.0,0.0,0.0,0.0,0.0,0.0,0.0,0.0,0.0,0.0,0.0,0.0,0.0,0.0,0.0,0.0,0.0,0.0,0.0,0.0,0.0,0.0,0.0,0.0,0.0,0.0,0.0,0.0,0.0,0.0,0.0,0.0,0.0,0.0,0.0,0.0,0.0,0.0,0.0,0.0,0.0,0.0,0.0,0.0,0.0,0.0,0.0,0.0,0.0,0.0,0.0,0.0,0.0,0.0,0.0,0.0,0.0,0.0,0.0,0.0,0.0,0.0,0.0,0.0,0.0,0.0,0.0,0.0,0.0,0.0,0.0,0.0,0.0,0.0,0.0,0.0,0.0,0.0,0.0,0.0,0.0,0.0,0.0,0.0,0.0,0.0,0.0,0.0,0.0,0.0,0.0,0.0,0.0,0.0,0.0,0.0,0.0,0.0,0.0,0.0,0.0,0.0,0.0,0.0,0.0,0.0,0.0,0.0,0.0,0.0,0.0,0.0,0.0,0.0,0.0,0.0,0.0,0.0,0.0,0.0,0.0,0.0,0.0,0.0,0.0,0.0,0.0,0.0,0.0,0.0,0.0,0.0,0.0,0.0,0.0,0.0,0.0,0.0,0.0,0.0,0.0,0.0,0.0,0.0,0.0,0.0,0.0,0.0,0.0,0.0,0.0,0.0,0.0,0.0,0.0,0.0,0.0,0.0,0.0,0.0,0.0,0.0,0.0,0.0,0.0,0.0,0.0,0.0,0.0,0.0,0.0,0.0,0.0,0.0,0.0,0.0,0.0,0.0,0.0,0.0,0.0,0.0,0.0,0.0,0.0,0.0,0.0,0.0,0.0,0.0,0.0,0.0,0.0,0.0,0.0,0.0,0.0,0.0,0.0,0.0,0.0,0.0,0.0,0.0,0.0,0.0,0.0,0.0,0.0,0.0,0.0,0.0,0.0,0.0,0.0,0.0,0.0,0.0,0.0,0.0,0.0,0.0,0.0,0.0,0.0,0.0,0.0,0.0,0.0,0.0,0.0,0.0,0.0,0.0,0.0,0.0,0.0,0.0,0.0,0.0,0.0,0.0,0.0,0.0,0.0,0.0,0.0,0.0,0.0,0.0,0.0,0.0,0.0,0.0,0.0,0.0,0.0,0.0,0.0,0.0,0.0,0.0,0.0,0.0,0.0,0.0,0.0,0.0,0.0,0.0,0.0,0.0,0.0,0.0,0.0,0.0,0.0,0.0,0.0,0.0,0.0,0.0,0.0,0.0,0.0,0.0,0.0,0.0,0.0,0.0,0.0,0.0,0.0,0.0,0.0,0.0,0.0,0.0,0.0,0.0,0.0,0.0,0.0,0.0,0.0,0.0,0.0,0.0,0.0,0.0,0.0,0.0,0.0,0.0,0.0,0.0,0.0,0.0,0.0,0.0,0.0,0.0,0.0,0.0,0.0,0.0,0.0,0.0,0.0,0.0,0.0,0.0,0.0,0.0,0.0,0.0,0.0,0.0,0.0,0.0,0.0,0.0,0.0,0.0,0.0,0.0,0.0,0.0,0.0,0.0,0.0,0.0,0.0,0.0,0.0,0.0,0.0,0.0,0.0,0.0,0.0,0.0,0.0,0.0,0.0,0.0,0.0,0.0,0.0,0.0,0.0,0.0,0.0,0.0,0.0,0.0,0.0,0.0,0.0,0.0,0.0,0.0,0.0,0.0,0.0,0.0,0.0,0.0,0.0,0.0,0.0,0.0,0.0,0.0,0.0,0.0,0.0,0.0,0.0,0.0,0.0,0.0,0.0,0.0,0.0,0.0,0.0,0.0,0.0,0.0,0.0,0.0,0.0,0.0,0.0,0.0,0.0,0.0,0.0,0.0,0.0,0.0,0.0,0.0,0.0,0.0,0.0,0.0,0.0,0.0,0.0,0.0,0.0,0.0,0.0,0.0,0.0,0.0,0.0,0.0,0.0,0.0,0.0,0.0,0.0,0.0,0.0,0.0,0.0,0.0,0.0,0.0,0.0,0.0,0.0,0.0,0.0,0.0,0.0,0.0,0.0,0.0,0.0,0.0,0.0,0.0,0.0,0.0,0.0,0.0,0.0,0.0,0.0,0.0,0.0,0.0,0.0,0.0,0.0,0.0,0.0,0.0,0.0,0.0,0.0,0.0,0.0,0.0,0.0,0.0,-1.5499,0.0,0.0,0.0,0.0,0.0,0.0,0.0,0.0,0.0,0.0,0.0,0.0,0.0,0.0,0.0,0.0,0.0,0.0,0.0,0.0,0.0,0.0,0.0,0.0,-0.7603,-0.8274,-0.996,-1.0094,-1.0094,-1.0094,0.0,0.0,0.0,0.0,0.0,-0.9235,-0.9196,-0.9363,-0.9745,-1.0165,-1.0534,-1.0855,-1.0854,-1.0423,-0.9665,0.0,0.0,0.0,0.0,0.0,0.0,0.0,0.0,0.0,0.0,0.0,0.0,0.0,0.0,0.0,0.0,0.0,0.0,0.0,0.0,0.0,0.0,0.0,0.0,0.0,0.0,0.0,0.0,0.0,0.0,0.0,0.0,0.0,0.0,0.0,0.0,0.0,0.0,0.0,0.0,0.0,0.0,0.0,0.0,0.0,0.0,0.0,0.0,0.0,0.0,0.0,0.0,0.0,0.0,0.0,0.0,0.0,0.0,0.0,0.0,0.0,0.0,0.0,0.0,0.0,0.0,0.0,0.0,0.0,0.0,0.0,-1.3394,0.0,0.0,0.0,0.0,0.0,0.0,0.0,0.0,0.0,0.0,0.0,0.0,0.0,0.0,0.0,0.0,0.0,0.0,0.0,0.0,0.0,-0.5888,-0.743,-0.7738,-0.8447,-0.996,-1.009,-1.009,-1.009,0.0,0.0,0.0,0.0,-0.9954,-0.9906,-0.983,-1.0198,-1.1023,-1.1132,-1.147,-1.2018,-1.2059,0.0,0.0,-1.0084,0.0,0.0,0.0,0.0,0.0,0.0,0.0,0.0,0.0,0.0,0.0,0.0,0.0,0.0,0.0,0.0,0.0,0.0,0.0,0.0,0.0,0.0,0.0,0.0,0.0,0.0,0.0,0.0,0.0,0.0,0.0,0.0,0.0,0.0,0.0,0.0,0.0,0.0,0.0,0.0,0.0,0.0,0.0,0.0,0.0,0.0,0.0,0.0,0.0,0.0,0.0,0.0,0.0,0.0,0.0,0.0,0.0,0.0,0.0,0.0,0.0,0.0,0.0,-2.3638,-2.3909,-2.3892,-2.3365,-2.1714,-1.9056,-1.4144,-1.5193,-2.0306,-1.8994,0.0,0.0,0.0,0.0,0.0,0.0,0.0,0.0,0.0,0.0,0.0,0.0,0.0,0.0,0.0,0.0,0.0,0.0,0.0,-0.6523,-0.7488,-0.8271,-0.9091,-1.0025,-1.0097,-1.0097,-1.0097,-1.0048,0.0,0.0,-0.9948,-0.9913,-0.9906,-0.983,-1.0212,-1.1087,-1.167,-1.2004,-1.2096,0.0,0.0,0.0,-1.1774,-1.1737,0.0,0.0,0.0,0.0,0.0,0.0,0.0,0.0,0.0,0.0,0.0,0.0,0.0,0.0,0.0,0.0,0.0,0.0,0.0,0.0,0.0,0.0,0.0,0.0,0.0,0.0,0.0,0.0,0.0,0.0,0.0,0.0,0.0,0.0,0.0,0.0,0.0,0.0,0.0,0.0,0.0,0.0,-1.1716,-1.3144,0.0,0.0,0.0,0.0,0.0,0.0,0.0,0.0,0.0,0.0,0.0,0.0,0.0,-2.2036,-2.2342,-2.2134,-2.2263,-2.2799,-2.5694,-2.7087,-2.6999,-2.4331,-2.3527,-2.4319,-2.4925,0.0,-1.8994,-2.1377,0.0,0.0,0.0,0.0,0.0,0.0,0.0,0.0,0.0,0.0,0.0,0.0,0.0,0.0,0.0,0.0,0.0,0.0,0.0,0.0,0.0,-0.8623,-0.9191,-1.0027,-1.0104,-1.0104,0.0,0.0,0.0,-1.0005,-0.9976,-0.9954,-0.9954,-1.0377,-1.1194,-1.245,-1.3121,-1.3456,0.0,0.0,0.0,0.0,-1.4118,-1.3346,0.0,0.0,0.0,0.0,0.0,0.0,0.0,0.0,0.0,0.0,0.0,0.0,0.0,0.0,0.0,0.0,0.0,0.0,0.0,0.0,0.0,0.0,0.0,0.0,0.0,0.0,0.0,0.0,0.0,0.0,0.0,0.0,0.0,0.0,0.0,0.0,0.0,0.0,0.0,0.0,0.0,-1.1764,-1.3121,-1.4187,-1.4446,-1.4497,0.0,0.0,0.0,0.0,0.0,0.0,0.0,0.0,0.0,-2.0836,-2.384,-2.5455,-2.5455,-2.534,-2.5298,-2.5298,-2.6923,-2.7701,-2.7648,-2.6297,-2.6023,-2.6667,-2.7373,-2.6156,-2.3628,-2.326,-2.2143,-2.0504,0.0,0.0,0.0,0.0,-1.5477,-1.8901,0.0,0.0,0.0,0.0,0.0,0.0,0.0,0.0,0.0,0.0,0.0,0.0,-0.867,-0.8992,-0.939,-1.0033,0.0,0.0,0.0,0.0,0.0,-0.9997,-0.999,-0.9993,-1.0009,-1.0961,-1.2245,0.0,0.0,0.0,0.0,0.0,0.0,0.0,0.0,0.0,0.0,0.0,0.0,0.0,0.0,0.0,0.0,0.0,0.0,0.0,0.0,0.0,0.0,0.0,0.0,0.0,0.0,0.0,0.0,0.0,0.0,0.0,0.0,0.0,0.0,0.0,0.0,0.0,0.0,0.0,0.0,0.0,0.0,0.0,0.0,0.0,0.0,0.0,0.0,0.0,0.0,-1.3499,-1.4771,-1.587,-1.6585,-1.6638,0.0,0.0,0.0,0.0,0.0,0.0,-2.1944,-2.2208,-2.2583,-2.3281,-2.5505,-2.6916,-2.739,-2.739,-2.739,-2.739,-2.76,-2.7701,-2.7701,-2.7701,-2.7701,-2.7701,-2.7701,-2.7701,-2.7508,-2.5226,-2.4295,-2.4077,-2.2079,-2.081,-1.9849,-1.7657,-1.9999,-2.4295,0.0,0.0,0.0,0.0,0.0,0.0,0.0,0.0,0.0,0.0,0.0,-0.8708,0.0,0.0,0.0,0.0,0.0,0.0,0.0,0.0,0.0,-0.9997,-0.999,-0.9995,-0.9992,-1.1471,0.0,0.0,0.0,0.0,0.0,0.0,0.0,0.0,0.0,0.0,0.0,0.0,0.0,0.0,0.0,0.0,0.0,0.0,0.0,0.0,0.0,0.0,0.0,0.0,0.0,0.0,0.0,0.0,0.0,0.0,0.0,0.0,0.0,0.0,0.0,0.0,0.0,0.0,0.0,0.0,0.0,0.0,0.0,0.0,0.0,0.0,0.0,0.0,0.0,0.0,0.0,0.0,0.0,-1.9028,-1.9474,0.0,0.0,0.0,0.0,-2.0506,-2.1092,-2.2183,-2.404,-2.4617,-2.4884,-2.4885,-2.504,-2.5929,-2.7654,-2.7672,-2.7672,-2.7672,-2.7701,-2.7701,-2.7701,-2.7701,-2.7701,-2.7701,-2.7701,-2.7701,-2.7683,-2.7526,-2.7473,-2.7455,-2.7309,-2.7239,-2.7181,-2.7023,-2.7163,-2.7473,0.0,0.0,0.0,-0.5106,-0.5098,-0.5095,-0.5095,-0.5824,-0.6552,-0.7064,-0.8149,0.0,0.0,0.0,0.0,0.0,0.0,0.0,0.0,0.0,-1.0278,-1.0871,-1.0855,-1.1576,-1.3182,-1.3667,-1.4728,0.0,0.0,0.0,0.0,0.0,0.0,0.0,0.0,0.0,0.0,0.0,0.0,0.0,0.0,0.0,0.0,0.0,0.0,0.0,0.0,0.0,0.0,0.0,0.0,0.0,0.0,0.0,0.0,0.0,0.0,0.0,0.0,0.0,0.0,0.0,0.0,0.0,0.0,0.0,0.0,0.0,0.0,0.0,0.0,0.0,0.0,0.0,0.0,0.0,0.0,0.0,0.0,-2.0912,-2.1625,0.0,-2.1212,-2.1554,-2.2055,-2.2737,-2.3386,-2.4285,-2.5403,-2.5472,-2.5836,-2.6571,-2.6532,-2.6792,-2.7434,-2.763,-2.763,-2.7434,-2.763,-2.7701,-2.7701,-2.7701,-2.7701,-2.7701,-2.7701,-2.76,-2.7434,-2.7434,-2.7539,-2.7701,-2.7701,-2.7701,-2.7701,-2.7701,-2.7701,-2.7701,-0.5104,-0.5109,0.0,-0.5101,-0.51,-0.5098,-0.5095,-0.6074,-0.6995,-0.7524,-0.8588,-0.9517,0.0,0.0,0.0,0.0,0.0,0.0,0.0,0.0,-1.0747,-1.1369,-1.1888,-1.3049,-1.4954,-1.5167,0.0,0.0,0.0,0.0,0.0,0.0,0.0,0.0,0.0,0.0,0.0,0.0,0.0,0.0,0.0,0.0,-1.3733,0.0,0.0,0.0,0.0,0.0,0.0,0.0,0.0,0.0,0.0,0.0,0.0,0.0,0.0,0.0,0.0,0.0,0.0,0.0,0.0,0.0,0.0,0.0,0.0,0.0,0.0,0.0,0.0,0.0,0.0,0.0,0.0,0.0,0.0,0.0,-2.1156,-2.2389,-2.346,-2.3919,-2.3488,-2.399,-2.4475,-2.4846,-2.5086,-2.5668,-2.6631,-2.6394,-2.6619,-2.7404,-2.7452,-2.739,-2.7299,-2.7465,-2.7465,-2.7282,-2.7465,-2.7569,-2.7569,-2.7569,-2.7569,-2.7569,-2.7569,-2.7465,-2.7299,-2.7299,-2.739,-2.7569,-2.7612,-2.76,-2.7569,-2.7672,-2.7701,-2.7701,-0.5093,-0.5108,-0.5108,-0.5108,-0.5108,-0.5106,-0.5096,-0.6533,-0.7601,-0.7608,-0.9053,0.0,0.0,0.0,0.0,0.0,0.0,0.0,0.0,-1.09,-1.1388,-1.1465,-1.3016,-1.4261,-1.5093,0.0,0.0,0.0,0.0,0.0,0.0,0.0,0.0,0.0,0.0,0.0,0.0,0.0,0.0,0.0,0.0,0.0,-1.5594,0.0,0.0,0.0,0.0,0.0,0.0,0.0,0.0,0.0,0.0,0.0,0.0,0.0,0.0,0.0,0.0,0.0,0.0,0.0,0.0,0.0,0.0,0.0,0.0,0.0,0.0,0.0,0.0,0.0,0.0,0.0,0.0,0.0,-2.0028,-2.1355,-2.2747,-2.3598,-2.498,-2.5558,-2.4861,-2.5214,-2.5915,-2.6942,-2.6247,-2.6341,-2.773,-2.7496,-2.7299,-2.7299,-2.7539,-2.7569,-2.7282,-2.7299,-2.733,-2.7345,-2.7345,-2.7345,-2.7345,-2.733,-2.733,-2.7345,-2.733,-2.7382,-2.7514,-2.7448,-2.7365,-2.7345,-2.7452,-2.7421,-2.7313,-2.76,-2.7701,-2.7701,-0.5091,-0.5108,-0.5108,-0.5108,-0.5108,-0.5108,-0.5104,-0.6523,-0.7593,-0.7601,0.0,0.0,0.0,0.0,0.0,0.0,0.0,0.0,-1.0924,0.0,-1.1254,-1.3055,-1.4688,0.0,0.0,0.0,0.0,0.0,0.0,0.0,0.0,0.0,0.0,0.0,0.0,0.0,0.0,0.0,0.0,0.0,0.0,0.0,-1.7398,0.0,0.0,0.0,0.0,0.0,0.0,0.0,0.0,0.0,0.0,0.0,0.0,0.0,0.0,0.0,0.0,0.0,0.0,0.0,0.0,0.0,0.0,0.0,0.0,0.0,0.0,0.0,0.0,0.0,0.0,0.0,-2.0621,-2.2164,-2.1742,-2.3725,-2.5389,-2.594,-2.6566,-2.6928,-2.6896,-2.7191,-2.7321,-2.7225,-2.7227,-2.7454,-2.7974,-2.7569,-2.7299,-2.7299,-2.7376,-2.7359,-2.7299,-2.7299,-2.7719,-2.8525,-2.8525,-2.8525,-2.85,-2.7677,-2.7748,-2.8474,-2.7647,-2.9087,-3.188,-3.0279,-2.8936,-2.7858,-2.7496,-2.7313,-2.733,-2.739,-2.7509,-2.7701,-0.5103,-0.5106,-0.5108,-0.5108,-0.5108,-0.5108,-0.5103,-0.652,-0.7609,-0.7592,-0.9057,0.0,0.0,0.0,0.0,0.0,0.0,0.0,-1.079,-1.1019,-1.2229,0.0,0.0,0.0,0.0,0.0,0.0,0.0,0.0,0.0,0.0,0.0,0.0,0.0,0.0,0.0,0.0,0.0,0.0,0.0,0.0,0.0,-1.8642,-1.7174,-1.6607,-1.6421,-1.5367,-1.4959,-1.4853,-1.421,0.0,0.0,0.0,0.0,0.0,0.0,0.0,0.0,0.0,0.0,0.0,0.0,0.0,0.0,0.0,0.0,0.0,0.0,0.0,0.0,0.0,0.0,0.0,0.0,-2.3148,-2.4759,-2.4518,-2.5801,-2.6879,-2.7236,-2.7664,-2.7994,-2.8237,-2.8281,-2.8147,-2.7789,-2.7869,-2.7897,-2.7771,-2.7465,-2.7299,-2.7299,-2.7748,-2.8017,-2.8017,-2.8017,-2.8344,-2.9012,-3.0375,-3.1017,-3.0992,-3.033,-3.0386,-3.0968,-3.0302,-3.1459,-3.3652,-3.1743,-3.0245,0.0,0.0,0.0,0.0,0.0,-2.7689,-2.7933,-0.5095,-0.5101,-0.5106,-0.5106,-0.5108,-0.5104,-0.5096,-0.653,-0.7598,-0.7592,0.0,0.0,0.0,0.0,0.0,0.0,0.0,0.0,0.0,0.0,0.0,0.0,0.0,0.0,0.0,0.0,0.0,0.0,0.0,0.0,0.0,0.0,0.0,0.0,0.0,0.0,0.0,0.0,0.0,0.0,0.0,0.0,-1.9694,-1.8665,-1.8249,-1.8217,-1.7909,-1.7182,-1.63,-1.5864,0.0,0.0,0.0,0.0,0.0,0.0,0.0,0.0,0.0,0.0,0.0,0.0,0.0,0.0,0.0,0.0,0.0,0.0,0.0,0.0,0.0,0.0,0.0,0.0,-2.574,-2.7757,-2.7598,-2.7568,-2.7664,-2.7867,-2.833,-2.8718,-2.8929,-2.8767,-2.863,-2.8593,-2.8443,-2.8205,-2.7788,0.0,0.0,0.0,0.0,-2.9525,-2.9525,-2.9525,-2.9525,-2.9586,-3.2449,-3.3807,-3.3807,-3.3807,-3.3807,-3.3807,-3.3807,-3.3807,-3.3688,-3.2383,-3.1415,-3.0639,-2.9765,-2.908,-2.846,-2.8027,-2.801,-2.8255,-0.5095,-0.5096,-0.5096,-0.5096,-0.5103,-0.5104,-0.5096,-0.653,-0.7598,-0.7592,-0.9061,0.0,0.0,0.0,0.0,0.0,0.0,0.0,0.0,0.0,0.0,0.0,0.0,0.0,0.0,0.0,0.0,0.0,0.0,0.0,0.0,0.0,0.0,0.0,0.0,0.0,0.0,0.0,0.0,0.0,0.0,0.0,-2.1597,-2.0786,-2.0455,-2.028,-1.9375,-1.888,-1.8549,-1.7822,-1.705,-1.6335,-1.6105,0.0,0.0,0.0,0.0,0.0,0.0,0.0,0.0,0.0,0.0,0.0,0.0,0.0,0.0,0.0,0.0,0.0,0.0,0.0,0.0,-2.5263,-2.6856,-2.8003,-2.8617,-2.8686,-2.862,-2.8458,-2.8724,-2.8858,-2.8694,-2.8834,-2.9156,-2.9665,-2.9973,-3.0257,-3.0592,-3.061,-3.0002,-2.8705,-3.1411,-3.2871,-3.2871,-3.2871,-3.2871,-3.2889,0.0,0.0,-3.3807,-3.3807,-3.3807,-3.3807,-3.3807,-3.3807,-3.3788,-3.3469,-3.293,-3.2082,-3.0828,-2.9897,-2.9125,-2.8585,-2.835,-2.8412,-0.5105,-0.5091,-0.5095,-0.5095,-0.5098,-0.5233,-0.5646,-0.6778,-0.7751,-0.8152,-0.9299,0.0,0.0,0.0,0.0,0.0,0.0,0.0,0.0,0.0,0.0,0.0,0.0,0.0,0.0,0.0,0.0,0.0,0.0,0.0,0.0,0.0,0.0,0.0,0.0,0.0,0.0,0.0,0.0,0.0,0.0,0.0,-2.3417,-2.2177,-2.1175,-2.0331,-1.9797,-1.9573,-1.9464,-1.8926,-1.8474,-1.807,-1.7626,-1.6642,-1.5411,0.0,0.0,0.0,0.0,0.0,0.0,0.0,0.0,0.0,0.0,0.0,0.0,0.0,0.0,-2.1277,-2.2867,0.0,-2.5503,-2.683,-2.7816,-2.8539,-2.8938,-2.8994,-2.8952,-2.8834,-2.8905,-2.8947,-2.8815,-2.9295,-2.9807,-3.0254,-3.0972,-3.1733,-3.2559,-3.2596,-3.2228,-3.1439,-3.2963,-3.3807,-3.3807,-3.3807,-3.3807,-3.3807,-3.3807,-3.3807,-3.3807,-3.3807,-3.3807,-3.3807,-3.3807,-3.3807,-3.3807,-3.3807,-3.3568,-3.3138,-3.2529,-3.1536,-3.0418,-3.0143,-3.0021,-3.0039,-0.5097,-0.5105,-0.5091,-0.5093,-0.5095,-0.538,-0.6177,-0.7045,-0.7886,-0.8689,-0.9556,-1.008,-1.0025,-1.007,-1.0171,0.0,0.0,0.0,0.0,0.0,0.0,0.0,0.0,0.0,0.0,0.0,0.0,0.0,0.0,0.0,0.0,0.0,0.0,0.0,0.0,0.0,0.0,0.0,0.0,0.0,0.0,0.0,-2.4769,-2.3333,-2.1929,-2.0765,-2.0765,-2.0352,-1.9757,-1.9557,-1.9458,-1.9324,-1.8661,-1.8286,-1.7729,-1.5759,-1.551,0.0,0.0,0.0,0.0,0.0,0.0,0.0,0.0,0.0,-2.1387,-2.2106,-2.3361,-2.4605,-2.5466,-2.665,-2.7606,-2.7967,-2.8594,-2.8994,-2.8994,-2.8994,-2.8994,-2.8994,-2.8994,-2.9049,-2.9237,-2.9824,-3.0411,-3.0944,-3.1788,-3.2724,-3.3752,-3.3807,-3.3807,-3.3807,-3.3807,-3.3807,-3.3807,-3.3807,-3.3807,-3.3807,-3.3807,-3.3807,-3.3807,-3.3807,-3.3807,-3.3807,-3.3807,-3.3807,-3.3807,-3.3807,-3.3807,-3.3815,-3.3947,-3.316,-3.1992,-3.1898,-3.1755,-3.1649,-0.5097,-0.5097,-0.5103,-0.5093,-0.5095,-0.538,-0.6177,-0.7045,-0.7886,-0.8689,-0.9556,-1.0104,-1.0096,-1.0101,-1.041,0.0,0.0,0.0,0.0,0.0,0.0,0.0,0.0,0.0,0.0,0.0,0.0,0.0,0.0,0.0,0.0,0.0,0.0,0.0,0.0,0.0,0.0,0.0,0.0,0.0,0.0,0.0,-2.5031,-2.4595,-2.4332,-2.4163,-2.4163,-2.2285,-1.9807,-1.9757,-1.9676,-1.9531,-1.9332,-1.8776,-1.8106,-1.7783,0.0,-1.6849,-1.7333,-1.7968,-1.8895,-2.0518,-2.0914,-2.1508,0.0,0.0,-2.497,-2.5816,-2.6148,-2.6515,-2.7361,-2.7636,-2.8003,-2.8737,-2.8938,-2.8994,-2.8994,-2.8994,-2.8994,-2.8994,-2.8994,-2.9292,-3.0008,-3.0155,-3.0815,-3.2284,-3.2504,-3.2926,-3.3752,-3.3807,-3.3807,-3.3807,-3.3807,-3.3807,-3.3807,-3.3807,-3.3807,-3.3807,-3.3807,-3.3807,-3.3807,-3.3807,-3.3807,-3.3807,-3.3807,-3.3807,-3.3807,-3.3807,-3.3807,-3.3815,-3.3947,-3.3887,-3.3647,-3.3072,-3.2395,-3.1782,-0.5097,-0.5097,-0.5099,-0.5103,-0.5105,-0.5546,-0.6853,-0.7372,-0.8062,-0.9375,-0.9875,-1.0101,-1.0104,-1.0094,-1.0259,-1.0676,0.0,0.0,0.0,0.0,0.0,0.0,0.0,0.0,0.0,0.0,0.0,0.0,0.0,0.0,0.0,0.0,0.0,0.0,0.0,0.0,0.0,0.0,0.0,0.0,0.0,0.0,-2.5199,-2.5064,-2.4873,-2.4579,-2.364,-2.2413,0.0,0.0,-1.9757,-1.972,-1.9663,-1.9357,-1.8908,-1.8416,-1.8584,0.0,-2.0408,-2.1223,-2.2034,0.0,-2.3847,-2.4462,-2.5586,-2.6213,-2.6695,-2.7149,-2.761,-2.8054,-2.8448,-2.8503,-2.8613,0.0,-2.8994,-2.8994,-2.8994,-2.8994,-2.8994,-2.8994,-2.8994,-2.9122,-2.9475,-3.0356,-3.1182,-3.1843,-3.2779,-3.3458,-3.377,-3.3807,-3.3807,-3.3807,-3.3807,-3.3807,-3.3807,-3.3807,-3.3807,-3.3807,-3.3807,-3.3807,-3.3807,-3.3807,-3.3807,-3.3807,-3.3807,-3.3807,-3.3807,-3.3807,-3.3807,-3.3807,-3.3895,-3.3972,-3.3986,-3.3759,-3.3491,-3.3194,-0.5097,-0.5097,-0.5097,-0.5097,-0.5097,-0.558,-0.7026,-0.7449,-0.812,-0.9575,-0.996,-1.009,-1.0101,-1.0129,-1.0154,-1.0196,-1.1525,-1.2474,0.0,0.0,0.0,0.0,0.0,0.0,0.0,0.0,0.0,0.0,0.0,0.0,0.0,0.0,0.0,0.0,0.0,0.0,0.0,0.0,0.0,0.0,0.0,0.0,-2.5322,-2.4981,-2.4896,-2.4755,-2.3424,-2.2088,0.0,0.0,-1.9251,-1.9432,-1.9432,-1.9538,-1.9582,-1.9175,-2.0052,-2.1439,-2.2793,0.0,0.0,-2.5223,-2.5978,-2.6548,-2.6617,-2.724,-2.7845,-2.7976,-2.8479,-2.8881,-2.8952,-2.8952,-2.8994,-2.8994,-2.8994,-2.8994,-2.8994,-2.8994,-2.8994,-2.8994,-2.8994,-2.8994,-2.8994,-3.0246,-3.1237,-3.1696,-3.2816,-3.3568,-3.3788,-3.3807,-3.3807,-3.3807,-3.3807,-3.3807,-3.3807,-3.3807,-3.3807,-3.3807,-3.3807,-3.3807,-3.3807,-3.3807,-3.3807,-3.3807,-3.3807,-3.3807,-3.3807,-3.3807,-3.3807,-3.3807,-3.3868,-3.3947,-3.4023,-3.4124,-3.4173,-3.4197,-0.5097,-0.5097,-0.5097,-0.5097,-0.5097,-0.5386,-0.6215,-0.7064,-0.7928,-0.8825,-0.9614,-1.0094,-1.0094,-1.0154,-1.0196,-1.0196,-1.102,-1.1901,-1.2743,-1.4384,0.0,0.0,0.0,0.0,0.0,0.0,0.0,0.0,0.0,0.0,0.0,0.0,0.0,0.0,0.0,0.0,0.0,0.0,0.0,0.0,0.0,0.0,-2.5387,-2.4408,-2.4648,-2.5406,-2.4818,0.0,0.0,0.0,-1.7888,-1.8535,-1.8535,-1.9126,0.0,-2.0536,-2.1819,0.0,0.0,0.0,-2.5445,-2.6255,-2.6904,-2.7363,-2.7458,-2.8076,-2.8682,-2.8749,-2.8785,-2.881,-2.8905,-2.8887,-2.8929,-2.8994,-2.8994,-2.8994,-2.8994,-2.8994,-2.8994,-2.8994,-2.8994,-2.8994,-2.8994,-2.9751,-3.0889,-3.2467,-3.2614,-3.2981,-3.3752,-3.3807,-3.3807,-3.3807,-3.3807,-3.3807,-3.3807,-3.3807,-3.3807,-3.3807,-3.3807,-3.3807,-3.3807,-3.3807,-3.3807,-3.3807,-3.3807,-3.3807,-3.3807,-3.3807,-3.3807,-3.3807,-3.3868,-3.3947,-3.3998,-3.4074,-3.4148,-3.4197,-0.5097,-0.5097,-0.5097,-0.5097,-0.5097,-0.5366,-0.6177,-0.7045,-0.7908,-0.8787,-0.9594,0.0,0.0,0.0,0.0,0.0,-1.0963,-1.1573,-1.1916,-1.4054,0.0,0.0,0.0,0.0,0.0,0.0,0.0,0.0,0.0,0.0,0.0,0.0,0.0,0.0,0.0,0.0,0.0,0.0,0.0,0.0,0.0,0.0,-2.5472,-2.5116,-2.4493,-2.361,0.0,0.0,0.0,0.0,0.0,0.0,-1.8497,0.0,0.0,-2.1235,0.0,-2.4204,-2.4894,0.0,-2.7117,-2.7248,-2.7835,-2.8385,-2.8263,-2.8438,-2.8662,-2.8737,-2.8718,-2.8743,-2.881,-2.8834,-2.8834,-2.8858,-2.9314,-2.9485,-2.9002,-2.9844,-3.0161,-2.9122,-2.9953,0.0,-2.9861,-3.0044,0.0,-3.1715,-3.2302,-3.2963,-3.3752,-3.3807,-3.3807,-3.3807,-3.3807,-3.3807,-3.3807,-3.3807,-3.3807,-3.3807,-3.3807,-3.3807,-3.3807,-3.3807,-3.3807,-3.3807,-3.3807,-3.3807,-3.3807,-3.3807,-3.3807,-3.3807,-3.3868,-3.3947,-3.3998,-3.4074,-3.4148,-3.4197,-0.5097,-0.5101,-0.5101,-0.5097,-0.5097,0.0,0.0,0.0,0.0,0.0,0.0,0.0,0.0,0.0,0.0,0.0,0.0,-1.1126,-1.1486,0.0,0.0,0.0,0.0,0.0,0.0,0.0,0.0,0.0,0.0,0.0,0.0,0.0,0.0,0.0,0.0,0.0,0.0,0.0,0.0,0.0,0.0,0.0,-2.4146,-2.4242,-2.3581,0.0,0.0,0.0,0.0,0.0,0.0,0.0,0.0,0.0,0.0,0.0,-2.3945,-2.5252,-2.6265,-2.7286,-2.8096,-2.8267,-2.8617,-2.8881,-2.8737,-2.8662,-2.854,-2.8281,-2.8252,-2.8161,-2.7942,-2.7911,-2.802,-2.8312,-2.9065,-2.9509,-2.9344,-3.046,-3.0943,-2.9965,-3.076,-3.1201,0.0,0.0,0.0,-3.177,-3.232,-3.2963,-3.3752,-3.3807,-3.3807,-3.3807,-3.3807,-3.3807,-3.3807,-3.3807,-3.3807,-3.3807,-3.3807,-3.3807,-3.3807,-3.3807,-3.3807,-3.3807,-3.3807,-3.3807,-3.3807,-3.3807,-3.3807,-3.3807,-3.3868,-3.3947,-3.3998,-3.4074,-3.4148,-3.4197,-0.5099,-0.5107,-0.5091,0.0,0.0,0.0,0.0,0.0,0.0,0.0,0.0,0.0,0.0,0.0,0.0,0.0,0.0,0.0,-1.1376,0.0,0.0,0.0,0.0,0.0,-1.6435,-1.736,0.0,0.0,0.0,0.0,0.0,0.0,0.0,0.0,0.0,0.0,0.0,0.0,0.0,0.0,0.0,0.0,-2.1745,-2.1868,0.0,0.0,0.0,0.0,0.0,0.0,0.0,0.0,0.0,0.0,0.0,0.0,0.0,-2.647,-2.7975,-2.8334,-2.8444,-2.9208,-2.916,-2.8929,-2.8887,-2.8725,-2.8323,-2.7562,-2.7381,-2.7133,-2.6422,0.0,-2.6627,-2.7455,-2.8294,-2.9162,-2.9984,-3.0826,-3.1364,0.0,0.0,0.0,0.0,0.0,0.0,-3.2669,0.0,-3.2963,-3.3752,-3.3807,-3.3807,-3.3807,-3.3807,-3.3825,-3.3862,-3.3862,-3.3844,-3.3807,-3.3807,-3.3807,-3.3807,-3.3807,-3.3807,-3.3807,-3.3807,-3.3807,-3.3807,-3.3807,-3.3807,-3.3807,-3.3868,-3.3947,-3.3998,-3.4074,-3.4148,-3.4197,0.0,0.0,0.0,0.0,0.0,0.0,0.0,0.0,0.0,0.0,0.0,0.0,0.0,0.0,0.0,0.0,0.0,0.0,0.0,0.0,0.0,0.0,0.0,0.0,0.0,0.0,0.0,0.0,0.0,0.0,0.0,0.0,0.0,0.0,0.0,0.0,0.0,0.0,0.0,0.0,0.0,0.0,-2.1823,0.0,0.0,0.0,0.0,0.0,0.0,0.0,0.0,0.0,0.0,0.0,-2.4557,0.0,0.0,-2.788,-2.8294,-2.8839,-2.9345,-2.9395,-2.9351,-2.9225,-2.8957,-2.8406,-2.782,-2.7477,-2.6928,-2.6457,-2.6263,-2.6716,0.0,-2.7411,-2.8669,0.0,-2.9983,-3.1294,0.0,-3.1458,0.0,-3.2944,-3.2357,-3.2834,0.0,0.0,-3.3293,-3.2963,-3.3752,-3.3807,-3.3807,-3.3807,-3.3807,-3.41,-3.4679,-3.4679,-3.4394,-3.3807,-3.3807,-3.3807,-3.3807,-3.3807,-3.3807,-3.3807,-3.3807,-3.3807,-3.3807,-3.3807,-3.3807,-3.3807,-3.3921,-3.3972,-3.4023,-3.4124,-3.4197,-3.4197,0.0,0.0,0.0,0.0,0.0,0.0,0.0,0.0,0.0,0.0,0.0,0.0,0.0,0.0,0.0,0.0,0.0,0.0,0.0,0.0,0.0,0.0,0.0,0.0,0.0,0.0,0.0,0.0,0.0,0.0,0.0,0.0,0.0,0.0,0.0,0.0,0.0,0.0,0.0,0.0,0.0,0.0,0.0,0.0,0.0,0.0,0.0,0.0,0.0,0.0,0.0,-2.2312,-2.3615,-2.4845,-2.5965,-2.681,0.0,-2.8482,-2.8875,-2.9326,-2.9664,-2.955,-2.9471,-2.9237,-2.8629,-2.8095,-2.7323,-2.6086,-2.5751,0.0,-2.4339,-2.5353,0.0,0.0,0.0,0.0,-3.0458,-3.1678,-3.2499,0.0,-3.3238,0.0,-3.3183,-3.3862,-3.4523,0.0,-3.4147,-3.4027,-3.4853,-3.489,-3.489,-3.489,-3.489,-3.4926,-3.499,-3.499,-3.4614,-3.3807,-3.3807,-3.3807,-3.3807,-3.3807,-3.3807,-3.3807,0.0,-3.3807,-3.3807,-3.3807,-3.3834,-3.3842,-3.3947,-3.4023,-3.4049,-3.4173,-3.4197,-3.4197,0.0,0.0,0.0,0.0,0.0,0.0,0.0,0.0,0.0,-1.0086,-1.009,0.0,0.0,0.0,0.0,0.0,0.0,0.0,0.0,0.0,0.0,0.0,0.0,0.0,0.0,0.0,0.0,0.0,0.0,0.0,0.0,0.0,0.0,0.0,0.0,0.0,0.0,0.0,0.0,0.0,0.0,0.0,0.0,0.0,0.0,0.0,0.0,0.0,0.0,0.0,-2.2416,-2.3975,-2.4781,-2.6105,-2.7524,-2.8332,-2.8557,-2.8726,-2.9495,-2.9701,-2.9701,-2.9701,-2.9494,-2.9038,-2.8227,-2.7616,-2.6622,-2.4314,0.0,-2.394,-2.204,-2.3397,-2.494,-2.5223,0.0,-2.918,-3.102,-3.1905,-3.2719,-3.3678,-3.3807,-3.3844,-3.3954,-3.4596,-3.5082,-3.5302,-3.532,-3.5624,-3.6266,-3.6303,-3.6303,-3.6303,-3.6303,-3.5881,-3.5009,-3.499,-3.4614,-3.3807,-3.3807,-3.3807,-3.3807,-3.3917,-3.3899,-3.3807,-3.3917,-3.3899,-3.3807,-3.3807,-3.386,-3.3895,-3.3972,-3.4049,-3.4099,-3.4173,-3.4197,-3.4197,0.0,0.0,0.0,0.0,0.0,0.0,0.0,0.0,0.0,0.0,-1.0074,-1.0094,0.0,0.0,0.0,0.0,0.0,0.0,0.0,0.0,0.0,0.0,0.0,0.0,0.0,0.0,0.0,0.0,0.0,0.0,0.0,0.0,0.0,0.0,0.0,0.0,0.0,0.0,0.0,0.0,0.0,0.0,0.0,0.0,0.0,0.0,0.0,0.0,0.0,0.0,-2.3639,-2.5718,-2.6512,-2.7412,-2.8351,-2.9213,-2.9476,-2.9514,-2.9664,-2.9701,-2.9701,-2.9701,-2.9139,-2.8503,-2.8239,-2.6506,0.0,0.0,-2.3011,-2.2187,-2.2536,-2.3367,-2.449,-2.5943,0.0,0.0,0.0,-3.1462,-3.2155,0.0,-3.3807,-3.4064,-3.4715,-3.4917,0.0,0.0,-3.7055,-3.6835,-3.6321,-3.6303,-3.6303,-3.6303,-3.6303,-3.5881,-3.5009,-3.499,-3.4614,-3.3807,-3.3807,-3.3807,-3.3825,-3.4504,-3.4431,-3.3844,-3.4504,0.0,-3.3788,-3.3842,-3.3895,-3.3921,-3.4023,-3.4099,-3.4099,-3.4173,-3.4197,-3.4197,0.0,0.0,0.0,0.0,0.0,0.0,0.0,-0.8968,-1.0035,-0.9996,-1.0025,-1.0058,-1.0044,-1.0089,0.0,0.0,0.0,0.0,0.0,0.0,0.0,0.0,0.0,0.0,0.0,0.0,0.0,0.0,0.0,0.0,0.0,0.0,0.0,0.0,0.0,0.0,0.0,0.0,0.0,0.0,0.0,0.0,0.0,0.0,0.0,0.0,0.0,0.0,0.0,0.0,-2.2022,-2.5458,-2.6303,-2.743,-2.8482,-2.8913,-2.9345,-2.9701,-2.9701,-2.9701,-2.9701,-2.9701,-2.9044,-2.8145,-2.7176,0.0,0.0,0.0,-2.1951,-2.1514,-2.1024,-2.2611,0.0,0.0,0.0,0.0,0.0,-3.0754,0.0,-3.355,-3.3807,-3.4119,0.0,-3.5422,-3.6174,-3.7404,-3.7881,-3.7955,-3.7569,-3.7551,-3.7349,-3.6927,-3.6909,-3.6303,-3.5009,-3.499,-3.4614,-3.3807,-3.3807,-3.3807,-3.3807,-3.4211,-3.4174,-3.3825,-3.4211,-3.4174,-3.3807,-3.3868,-3.3921,-3.3972,-3.4074,-3.4124,-3.4148,-3.4197,-3.4197,-3.4197,0.0,0.0,0.0,0.0,0.0,0.0,0.0,-0.876,-0.9789,-0.9952,-0.999,-0.999,-0.9954,-1.002,-1.0033,0.0,0.0,0.0,0.0,0.0,0.0,0.0,0.0,0.0,0.0,0.0,0.0,0.0,0.0,0.0,0.0,0.0,0.0,0.0,0.0,0.0,0.0,0.0,0.0,0.0,0.0,0.0,0.0,0.0,0.0,0.0,0.0,0.0,0.0,0.0,-2.0093,-2.3629,-2.4847,-2.6564,-2.8182,-2.8351,-2.8894,-2.9457,-2.9645,-2.9701,-2.9701,-2.9701,-2.8932,-2.7731,-2.6214,-2.4845,0.0,0.0,-2.0981,-2.0917,-1.9753,0.0,-2.3346,0.0,0.0,0.0,0.0,0.0,-3.1164,0.0,-3.3842,0.0,-3.5202,-3.5899,0.0,-3.7661,-3.834,-3.8707,-3.8707,-3.8707,-3.8322,-3.7544,-3.7342,-3.6523,-3.5009,-3.4825,-3.4431,-3.3807,-3.3807,-3.3807,-3.3807,-3.3972,-3.3972,-3.3807,-3.4017,-3.3999,-3.3834,-3.3895,-3.3972,-3.4023,-3.4099,-3.4148,-3.4197,-3.4197,-3.4197,-3.4197,0.0,0.0,0.0,0.0,0.0,0.0,0.0,-0.8244,-0.9077,-0.9813,-0.9963,-0.9963,-0.9823,-0.9875,-0.9949,0.0,0.0,0.0,0.0,0.0,0.0,0.0,0.0,0.0,0.0,0.0,0.0,0.0,0.0,0.0,0.0,0.0,0.0,0.0,0.0,0.0,0.0,0.0,0.0,0.0,0.0,0.0,0.0,0.0,0.0,0.0,0.0,0.0,0.0,0.0,0.0,-1.9658,-2.2004,-2.4836,-2.7448,-2.8182,0.0,0.0,-2.9476,-2.9701,-2.9701,-2.9701,-2.85,-2.709,-2.6255,0.0,0.0,-2.1063,-2.0163,-1.9745,-2.0433,-2.0664,0.0,0.0,0.0,0.0,0.0,0.0,-3.1376,-3.354,0.0,0.0,-3.6056,-3.6248,-3.6945,-3.8469,-3.867,-3.8707,-3.8707,-3.8707,-3.8322,-3.7544,-3.678,-3.5973,-3.5009,-3.4284,-3.3862,-3.3807,-3.3807,-3.3807,-3.3825,-3.4578,-3.4504,-3.3844,-3.4687,-3.4604,0.0,-3.4023,-3.4099,-3.4099,-3.4173,-3.4197,-3.4197,-3.4197,-3.4197,-3.4197,0.0,0.0,0.0,0.0,0.0,0.0,-0.7318,-0.8133,-0.8935,-0.9737,-0.9869,-0.9863,-0.9815,-0.9823,-0.9869,0.0,0.0,0.0,0.0,0.0,0.0,0.0,0.0,0.0,0.0,0.0,0.0,0.0,0.0,0.0,0.0,0.0,0.0,0.0,0.0,0.0,0.0,0.0,0.0,0.0,0.0,0.0,0.0,0.0,0.0,0.0,0.0,0.0,0.0,0.0,0.0,0.0,-1.9246,-2.1348,0.0,0.0,-2.729,-2.8534,-2.8819,-2.9307,-2.9701,-2.9701,-2.846,-2.693,-2.5672,0.0,-2.1704,-2.0437,-1.9773,-1.9501,-1.98,-2.0265,-2.1078,0.0,-2.3162,-2.4519,-2.7603,-2.8537,-2.9824,-3.2292,-3.2982,0.0,0.0,0.0,-3.6426,-3.8052,-3.8486,-3.8487,-3.7991,-3.8575,-3.829,-3.6798,-3.663,-3.5799,-3.4302,-3.3972,-3.3807,-3.3807,-3.3807,-3.3807,-3.3807,-3.4137,-3.4127,-3.3887,-3.4255,-3.4234,0.0,-3.4074,-3.4197,-3.434,-3.4409,-3.452,-3.4628,-3.4476,-3.452,-3.4588,0.0,0.0,0.0,0.0,0.0,-0.6108,-0.7197,-0.7865,-0.8619,-0.9666,-0.9808,-0.9801,-0.9801,-0.9801,-0.9823,-0.9887,0.0,0.0,0.0,0.0,0.0,0.0,0.0,0.0,0.0,0.0,0.0,0.0,0.0,0.0,0.0,0.0,0.0,0.0,0.0,0.0,0.0,0.0,0.0,0.0,0.0,0.0,0.0,0.0,0.0,0.0,0.0,0.0,0.0,0.0,0.0,0.0,0.0,0.0,0.0,0.0,-2.5865,-2.7493,-2.7952,-2.8687,-2.927,-2.9026,-2.812,-2.6827,0.0,-2.3281,-2.1648,-2.0026,-1.9572,-1.9434,-1.9361,-1.9896,-2.0685,0.0,-2.2332,-2.3695,-2.6539,-2.7485,-2.8827,0.0,0.0,-3.313,0.0,-3.5613,-3.6323,-3.7452,-3.7914,-3.7913,-3.735,-3.8104,-3.7787,-3.6095,-3.6157,-3.5473,-3.3939,-3.3842,-3.3807,-3.3807,-3.3807,-3.3807,-3.3788,-3.3868,-3.3928,-3.3986,-3.4087,-3.416,0.0,-3.4321,-3.4454,-3.4607,-3.4668,-3.4771,-3.487,-3.4751,-3.4791,-3.4889,0.0,0.0,0.0,0.0,0.0,0.0,0.0,-0.7364,-0.7984,-0.9586,-0.9796,-0.9801,-0.9801,-0.9801,-0.9823,-0.9887,0.0,0.0,0.0,0.0,0.0,0.0,0.0,0.0,0.0,0.0,0.0,0.0,0.0,0.0,0.0,0.0,0.0,0.0,0.0,0.0,0.0,0.0,0.0,0.0,0.0,0.0,0.0,0.0,0.0,0.0,0.0,0.0,0.0,0.0,0.0,0.0,0.0,0.0,0.0,0.0,-2.4247,-2.5209,-2.6868,-2.7857,-2.8219,-2.743,-2.7255,-2.6676,-2.4255,-2.2881,-2.1648,-2.0026,-1.949,-1.935,-1.9472,-1.9518,-2.0061,-2.1736,-2.1996,-2.3358,-2.724,-2.7966,0.0,0.0,0.0,-3.2437,-3.4048,-3.5824,-3.6878,-3.6897,-3.6916,0.0,-3.6897,-3.7165,-3.6723,-3.5467,-3.5137,-3.4768,-3.4197,-3.3921,-3.3807,-3.3807,-3.3807,-3.3807,-3.3807,-3.4074,-3.4184,-3.4218,-3.4551,-3.4733,0.0,-3.487,-3.4889,-3.4908,-3.4908,-3.4908,-3.4908,-3.4908,-3.4908,-3.4908,0.0,0.0,0.0,0.0,0.0,0.0,0.0,-0.6489,-0.69,-0.8014,-0.8166,-0.8375,-0.8916,-0.8991,-0.9221,-0.985,0.0,0.0,0.0,0.0,0.0,0.0,0.0,0.0,0.0,0.0,0.0,0.0,0.0,0.0,0.0,0.0,0.0,0.0,0.0,0.0,0.0,0.0,0.0,0.0,0.0,0.0,0.0,0.0,0.0,0.0,0.0,0.0,0.0,0.0,0.0,0.0,0.0,0.0,0.0,-1.9077,-2.1711,-2.4219,-2.4709,-2.5857,-2.6676,-2.5827,-2.5277,-2.4555,-2.3195,-2.2098,-2.1028,-1.9926,-1.949,-1.932,-1.9365,-1.9361,-2.0083,-2.2314,0.0,0.0,0.0,0.0,0.0,-3.0872,-3.2864,-3.4283,0.0,0.0,-3.6338,-3.6338,-3.6694,-3.6658,-3.6118,-3.6148,-3.6013,-3.5633,-3.5683,-3.533,-3.4416,-3.433,-3.4284,-3.4284,-3.4284,-3.4284,-3.4284,-3.4398,-3.4505,-3.4551,-3.4694,-3.4812,-3.487,-3.4889,-3.4982,-3.5107,-3.5107,-3.5193,-3.5289,-3.516,-3.5193,-3.5289,0.0,0.0,0.0,0.0,0.0,0.0,0.0,-0.6105,-0.641,-0.728,-0.7397,-0.7578,-0.8049,-0.8365,-0.8749,-0.932,0.0,0.0,0.0,0.0,0.0,0.0,0.0,0.0,0.0,0.0,0.0,0.0,0.0,0.0,0.0,0.0,0.0,0.0,0.0,0.0,0.0,0.0,0.0,0.0,0.0,0.0,-1.2795,0.0,0.0,0.0,0.0,0.0,0.0,0.0,0.0,0.0,0.0,0.0,0.0,0.0,-1.9219,-2.1698,0.0,-2.3998,-2.5064,-2.416,-2.3885,-2.3498,-2.2319,-2.15,-2.0753,-1.987,-1.949,-1.9305,-1.9305,-1.935,-2.008,-2.2275,-2.2608,0.0,0.0,0.0,0.0,-3.1129,0.0,0.0,0.0,-3.523,-3.5761,-3.5761,-3.6062,-3.6037,-3.5529,-3.551,-3.551,-3.551,-3.549,-3.5224,-3.4653,-3.4551,-3.4508,-3.4508,-3.4529,-3.4529,-3.4551,-3.4675,-3.4793,-3.487,-3.4963,-3.5053,0.0,-3.5124,-3.5209,-3.5324,-3.5324,-3.5403,-3.5493,-3.5354,-3.5383,-3.5493,0.0,0.0,0.0,0.0,0.0,0.0,0.0,0.0,-0.6302,-0.7104,-0.7215,-0.7217,-0.7213,-0.7831,-0.8309,-0.8483,0.0,0.0,0.0,0.0,0.0,0.0,0.0,0.0,0.0,0.0,0.0,-0.9976,-1.0057,-1.0149,-1.0285,0.0,0.0,0.0,0.0,0.0,0.0,0.0,0.0,0.0,-0.9987,-1.0499,0.0,0.0,0.0,0.0,0.0,0.0,0.0,0.0,0.0,0.0,0.0,0.0,0.0,0.0,0.0,0.0,0.0,-2.2133,-2.3158,-2.2274,-2.2721,-2.2958,-2.1399,-2.0876,0.0,-1.9757,-1.9397,-1.9234,-1.9363,-1.9497,-2.0136,-2.1897,0.0,0.0,0.0,-2.7885,0.0,0.0,-3.3148,0.0,-3.3789,-3.4632,-3.5209,-3.5209,-3.5209,-3.5209,-3.5209,-3.5209,-3.5209,-3.5209,-3.4793,-3.4674,-3.4927,-3.4674,-3.4551,-3.4551,-3.4614,-3.4653,-3.4674,-3.4907,-3.5069,0.0,-3.532,-3.5446,-3.5493,-3.5493,-3.5493,-3.5493,-3.5493,-3.5493,-3.5493,-3.5493,-3.5493,-3.5493,0.0,0.0,0.0,0.0,0.0,0.0,0.0,0.0,0.0,0.0,-0.545,-0.5719,-0.6316,-0.6527,-0.7165,0.0,0.0,0.0,0.0,0.0,0.0,0.0,0.0,0.0,0.0,0.0,0.0,-0.985,-1.0665,-1.1286,-1.1723,-1.2223,0.0,0.0,0.0,0.0,0.0,0.0,0.0,0.0,-1.0186,-1.0458,0.0,0.0,0.0,0.0,-1.127,-1.1642,0.0,0.0,0.0,0.0,0.0,0.0,0.0,0.0,-1.591,-1.6758,-1.7316,0.0,-1.983,-1.9009,-1.8932,-1.8952,0.0,-1.8316,-1.8286,0.0,0.0,0.0,-2.0005,-2.0223,-2.1039,0.0,0.0,0.0,-2.7733,0.0,0.0,-3.2895,-3.4092,-3.4786,-3.4623,-3.4975,-3.5209,-3.5209,-3.5209,-3.5209,-3.5209,-3.5209,-3.5209,-3.5209,-3.5088,-3.507,-3.5124,-3.507,-3.5035,-3.5035,-3.5107,-3.5143,-3.5141,-3.5254,-3.53,-3.5335,-3.5427,-3.5493,-3.5493,-3.5493,-3.5493,-3.5493,-3.5493,-3.5493,-3.5493,-3.5493,-3.5493,-3.5493,0.0,0.0,0.0,0.0,0.0,0.0,0.0,0.0,0.0,0.0,0.0,0.0,0.0,0.0,0.0,0.0,0.0,0.0,0.0,0.0,0.0,0.0,0.0,0.0,0.0,0.0,0.0,0.0,0.0,-1.0843,0.0,0.0,0.0,0.0,0.0,0.0,0.0,0.0,0.0,0.0,-1.007,0.0,0.0,0.0,0.0,0.0,-1.0433,-1.086,0.0,-1.2138,-1.2961,-1.3723,0.0,0.0,0.0,0.0,-1.5253,-1.5662,-1.5731,-1.7581,-1.9383,-1.8961,-1.9126,-1.9394,-1.9394,0.0,0.0,0.0,0.0,0.0,0.0,0.0,0.0,0.0,-2.4914,0.0,0.0,0.0,-3.2797,-3.3525,-3.4558,-3.5176,0.0,-3.5124,-3.5209,-3.5209,-3.5209,-3.5209,-3.5209,-3.5209,-3.5209,-3.5209,-3.5209,-3.5209,-3.5209,-3.5209,-3.5209,-3.5209,-3.5273,-3.5289,-3.5304,-3.5398,-3.5446,-3.5446,-3.5474,-3.5493,-3.5493,-3.5493,-3.5493,-3.5493,-3.5493,-3.5493,-3.5493,-3.5493,-3.5493,-3.5493,0.0,0.0,0.0,0.0,0.0,0.0,0.0,0.0,0.0,0.0,0.0,0.0,0.0,0.0,0.0,0.0,0.0,0.0,0.0,0.0,0.0,0.0,0.0,0.0,0.0,0.0,0.0,0.0,0.0,0.0,0.0,0.0,-1.375,0.0,0.0,0.0,0.0,0.0,0.0,0.0,-0.9863,0.0,0.0,0.0,0.0,0.0,0.0,0.0,0.0,-1.1708,-1.259,-1.3507,-1.4062,0.0,0.0,0.0,0.0,0.0,-1.5301,-1.7764,-2.0093,-1.9737,-2.0378,-2.1088,-2.0954,0.0,0.0,0.0,0.0,0.0,0.0,0.0,0.0,0.0,0.0,0.0,-2.9497,-3.1543,-3.2959,-3.3669,-3.462,0.0,-3.5176,-3.5174,-3.5209,-3.5209,-3.5209,-3.5209,-3.5209,-3.5209,-3.5209,-3.5209,-3.5209,-3.5209,-3.5209,-3.5209,-3.5209,-3.5209,-3.527,-3.53,-3.5296,-3.5427,-3.5493,-3.5493,0.0,0.0,-3.5493,-3.5493,-3.5493,-3.5493,-3.5493,-3.5493,-3.5493,-3.5493,-3.5493,-3.5493,0.0,0.0,0.0,0.0,0.0,0.0,0.0,0.0,0.0,0.0,0.0,0.0,0.0,0.0,0.0,0.0,0.0,0.0,0.0,0.0,0.0,0.0,0.0,0.0,0.0,0.0,0.0,0.0,0.0,0.0,-0.9902,-1.3179,-1.3095,0.0,0.0,0.0,0.0,0.0,0.0,-0.9801,-0.9801,0.0,0.0,0.0,0.0,0.0,0.0,0.0,0.0,-1.014,-1.1218,-1.241,-1.1831,0.0,0.0,0.0,0.0,0.0,-1.6393,-1.8507,-1.9616,-1.7579,-1.8232,-1.9185,-1.8448,0.0,0.0,0.0,0.0,0.0,0.0,0.0,-2.417,0.0,0.0,-2.8698,0.0,0.0,-3.2702,-3.265,0.0,-3.5124,-3.4945,-3.5107,-3.5209,-3.5209,-3.5209,-3.5209,-3.5209,-3.5209,-3.5209,-3.5209,-3.5209,-3.5209,-3.5209,-3.5209,-3.5209,-3.5209,-3.5277,-3.5289,-3.5296,-3.5379,-3.5446,-3.5493,0.0,-3.5493,-3.5493,-3.5493,-3.5493,-3.5493,-3.5493,-3.5493,-3.5493,-3.5493,-3.5493,-3.5493,0.0,0.0,0.0,0.0,0.0,0.0,0.0,0.0,0.0,0.0,0.0,0.0,0.0,0.0,0.0,0.0,0.0,0.0,0.0,0.0,0.0,0.0,0.0,0.0,0.0,0.0,0.0,0.0,0.0,-1.0278,-0.9875,-1.3161,-1.2938,-0.9801,0.0,0.0,0.0,0.0,0.0,-0.9801,0.0,0.0,0.0,0.0,0.0,0.0,0.0,0.0,0.0,0.0,-1.0964,-1.1613,-1.1725,0.0,0.0,0.0,0.0,0.0,-1.4982,-1.7312,-1.9143,-1.8072,-1.978,-2.1641,-2.1201,0.0,0.0,0.0,0.0,0.0,0.0,0.0,-2.5169,-2.73,0.0,-2.9746,-3.0128,-3.1274,-3.2008,0.0,0.0,-3.3821,-3.372,-3.4225,-3.4541,-3.4541,-3.4961,-3.5209,-3.5209,-3.5209,-3.5209,-3.5209,-3.5209,-3.5209,-3.5209,-3.5209,-3.5226,-3.5242,-3.5296,-3.5324,-3.5364,-3.5398,-3.5446,-3.5493,0.0,-3.5493,-3.5493,-3.5493,-3.5493,-3.5493,-3.5493,-3.5493,-3.5493,-3.5493,-3.5493,-3.5493,0.0,0.0,0.0,0.0,0.0,0.0,0.0,0.0,0.0,0.0,0.0,0.0,0.0,0.0,0.0,0.0,0.0,0.0,0.0,0.0,0.0,0.0,0.0,0.0,0.0,0.0,-0.9661,-0.9581,-0.9677,-0.9754,-0.9856,-1.2362,-1.2214,0.0,0.0,0.0,0.0,0.0,-0.9801,-0.9801,0.0,0.0,0.0,0.0,0.0,0.0,0.0,0.0,0.0,0.0,0.0,0.0,0.0,0.0,0.0,-1.2253,-1.2599,-1.3149,-1.4176,-1.6432,-1.8622,-1.9268,0.0,-2.3524,-2.3688,0.0,0.0,0.0,0.0,0.0,0.0,-2.5062,0.0,-2.8765,-2.9737,-3.0204,-3.0204,-3.0949,-3.1484,-3.1427,-3.2176,-3.2691,-3.2691,-3.3299,-3.37,-3.37,-3.4273,-3.4617,-3.4617,-3.4617,-3.4617,-3.4617,-3.4617,-3.4713,-3.492,-3.492,-3.5051,-3.5312,-3.5312,-3.5339,-3.5412,-3.5412,-3.5446,-3.5493,-3.5493,-3.5493,-3.5493,-3.5493,-3.5493,-3.5493,-3.5493,-3.5493,-3.5493,-3.5493,-3.5493,-3.5493,0.0,0.0,0.0,0.0,0.0,0.0,0.0,0.0,0.0,0.0,0.0,0.0,0.0,0.0,0.0,0.0,0.0,0.0,0.0,0.0,0.0,0.0,0.0,0.0,0.0,-0.9698,-0.9649,-0.9506,-0.9514,-0.9612,-0.9801,-1.0042,-1.0024,-0.9801,0.0,0.0,0.0,0.0,0.0,-0.9801,-0.9801,0.0,0.0,0.0,0.0,0.0,0.0,0.0,0.0,0.0,0.0,0.0,0.0,0.0,-1.1326,-1.209,-1.1801,-1.2101,-1.5913,-1.7208,-1.8068,-2.0443,0.0,0.0,-2.2697,0.0,0.0,0.0,0.0,0.0,0.0,-2.8051,-2.8935,-2.969,-3.0026,-3.0204,-3.0204,0.0,-3.1503,-3.1484,-3.221,-3.2691,-3.2691,-3.2749,-3.2787,-3.2787,-3.2844,-3.2882,-3.2882,-3.2882,-3.2882,-3.2882,-3.2882,-3.3276,-3.4087,-3.4087,-3.4489,-3.5312,-3.5312,-3.5339,-3.5412,-3.5412,-3.5446,-3.5493,-3.5493,-3.5493,-3.5493,-3.5493,-3.5493,-3.5493,-3.5493,-3.5493,-3.5493,-3.5493,-3.5493,-3.5493,0.0,0.0,0.0,0.0,0.0,0.0,0.0,0.0,0.0,0.0,0.0,0.0,0.0,0.0,0.0,0.0,0.0,0.0,0.0,0.0,0.0,0.0,0.0,-0.9403,-0.9509,-0.9595,-0.9568,-0.9447,-0.9559,-0.9614,-0.9607,-0.949,0.0,0.0,0.0,0.0,0.0,0.0,0.0,-0.9605,-0.9619,-0.9593,0.0,0.0,0.0,0.0,0.0,0.0,0.0,0.0,-1.0049,0.0,0.0,0.0,0.0,0.0,-1.0951,-1.1543,-1.3597,-1.5809,-1.7985,-1.9855,0.0,0.0,0.0,0.0,0.0,0.0,0.0,0.0,0.0,0.0,-2.9232,-2.9961,-3.0142,-3.0199,-3.0194,-3.048,-3.0691,-3.0691,-3.0958,-3.1155,-3.114,-3.1637,-3.1962,-3.1962,-3.2405,-3.2691,-3.2691,-3.2691,-3.2691,-3.2691,-3.2741,-3.3172,-3.3991,-3.404,-3.4496,-3.5369,-3.532,-3.5369,-3.546,-3.5412,-3.5446,-3.5493,-3.5493,-3.5493,-3.5493,-3.5493,-3.5493,-3.5493,-3.5493,-3.5493,-3.5493,-3.5493,-3.5493,-3.5493,0.0,0.0,0.0,0.0,0.0,0.0,0.0,0.0,0.0,0.0,0.0,0.0,0.0,0.0,0.0,0.0,0.0,0.0,0.0,0.0,0.0,0.0,0.0,-0.9027,-0.9385,-0.9483,-0.9501,-0.943,-0.9577,-0.9592,-0.95,0.0,0.0,0.0,0.0,0.0,0.0,0.0,0.0,0.0,-0.9502,-0.9493,0.0,0.0,0.0,0.0,0.0,0.0,0.0,0.0,-0.9843,0.0,0.0,0.0,0.0,0.0,0.0,-1.1746,-1.2803,-1.5216,-1.7823,0.0,0.0,0.0,0.0,0.0,0.0,0.0,0.0,0.0,0.0,0.0,0.0,0.0,-3.0204,-3.0199,-3.0194,-3.0194,-3.0194,-3.0194,-3.0194,-3.0213,-3.0185,-3.0739,-3.1083,-3.1083,-3.1599,-3.1923,-3.1923,-3.1904,-3.1904,-3.1904,-3.1967,-3.2532,-3.3652,-3.37,-3.4299,-3.5457,-3.5411,-3.5416,-3.5493,-3.546,-3.546,-3.5493,-3.5493,-3.5493,-3.5493,-3.5493,-3.5493,-3.5493,-3.5493,-3.5493,-3.5493,-3.5493,-3.5493,-3.5493,0.0,0.0,0.0,0.0,0.0,0.0,0.0,0.0,0.0,0.0,0.0,0.0,0.0,0.0,0.0,0.0,0.0,0.0,0.0,0.0,0.0,0.0,0.0,-0.8505,-0.9377,-0.9394,-0.9439,-0.95,-0.95,-0.95,-0.95,-0.95,0.0,0.0,0.0,0.0,0.0,0.0,0.0,0.0,-0.9502,-0.9466,-0.9412,0.0,0.0,0.0,0.0,0.0,0.0,0.0,-0.9843,-0.9894,0.0,0.0,0.0,0.0,-1.1727,-1.2767,-1.4345,-1.5937,-1.7576,0.0,0.0,0.0,0.0,0.0,0.0,0.0,0.0,0.0,-3.0292,0.0,0.0,-3.0204,-3.0204,-3.0204,-3.0204,-3.0204,-3.0204,-3.0204,-3.0204,-3.0204,-3.0204,-3.0204,-3.0204,-3.0204,-3.0204,-3.0204,-3.0204,-3.0194,-3.0188,-3.0188,-3.0266,-3.113,-3.2878,-3.2878,-3.3795,-3.5588,-3.5588,-3.5558,-3.5507,-3.5507,-3.5507,-3.5507,-3.5507,-3.5507,-3.5507,-3.5507,-3.5507,-3.5493,-3.5493,-3.5493,-3.5493,-3.5493,-3.5493,-3.5493,0.0,0.0,0.0,0.0,0.0,0.0,0.0,0.0,0.0,0.0,0.0,0.0,0.0,0.0,0.0,0.0,0.0,0.0,0.0,0.0,0.0,0.0,0.0,0.0,0.0,0.0,-0.9439,-0.95,-0.95,-0.95,0.0,0.0,0.0,-0.9571,0.0,0.0,0.0,0.0,0.0,0.0,0.0,-0.9282,-0.9265,0.0,0.0,0.0,0.0,0.0,0.0,0.0,0.0,0.0,0.0,0.0,0.0,0.0,-1.1648,-1.3342,-1.3766,-1.6035,0.0,0.0,0.0,0.0,0.0,0.0,0.0,0.0,0.0,-3.0292,-3.0292,0.0,0.0,-3.0185,-3.0204,-3.0232,-3.0253,-3.024,-3.0226,-3.0253,-3.024,-3.0194,-3.0185,-3.0204,-3.0204,-3.0204,-3.0204,-3.0199,-3.0194,-3.0207,-3.0221,-3.0266,-3.0371,-3.0959,-3.2039,-3.2145,-3.3063,-3.4757,-3.4757,-3.5078,-3.565,-3.565,-3.565,-3.565,-3.565,-3.565,-3.564,-3.5585,-3.554,-3.5493,-3.5493,-3.5493,-3.5493,-3.5493,-3.5493,-3.5493,0.0,0.0,0.0,0.0,0.0,0.0,0.0,0.0,0.0,0.0,0.0,0.0,0.0,0.0,0.0,0.0,0.0,0.0,0.0,0.0,0.0,0.0,0.0,0.0,0.0,-0.933,-0.9412,0.0,0.0,0.0,0.0,0.0,0.0,-0.9563,0.0,-0.9529,0.0,0.0,0.0,0.0,-0.9189,-0.9189,-0.9199,0.0,0.0,0.0,0.0,0.0,0.0,0.0,0.0,0.0,0.0,0.0,0.0,-1.0915,-1.2354,-1.4279,-1.5253,0.0,0.0,0.0,0.0,0.0,0.0,0.0,0.0,0.0,0.0,-3.0266,-3.0266,-3.024,0.0,-3.0185,-3.0204,-3.0199,-3.024,-3.0226,-3.0207,-3.0272,-3.0226,-3.0213,-3.0185,-3.0204,-3.0199,-3.0199,-3.0247,-3.0286,-3.0273,-3.0333,-3.0378,-3.0419,-3.0492,-3.0935,-3.1767,-3.1856,-3.2582,-3.3952,-3.3952,-3.4237,-3.4808,-3.5414,-3.5693,-3.5693,-3.5693,-3.5693,-3.5693,-3.566,-3.5609,-3.5581,-3.5553,-3.5547,-3.5547,-3.5501,-3.5493,-3.5493,0.0,0.0,-0.4329,-0.4386,0.0,0.0,0.0,0.0,0.0,0.0,0.0,-0.4267,0.0,0.0,0.0,-0.4379,0.0,0.0,0.0,0.0,0.0,0.0,0.0,0.0,0.0,0.0,0.0,0.0,0.0,0.0,0.0,0.0,-0.95,-0.95,0.0,-0.9466,0.0,0.0,0.0,0.0,-0.9199,-0.9189,-0.9226,-0.9339,0.0,0.0,0.0,0.0,0.0,0.0,0.0,0.0,0.0,0.0,0.0,-1.1666,-1.3429,-1.5411,-1.7726,0.0,0.0,0.0,0.0,0.0,0.0,0.0,-2.9397,-3.0139,0.0,-3.0188,-3.0188,-3.0213,-3.0204,-3.0204,-3.0204,-3.0204,-3.0199,-3.0185,-3.0204,-3.0199,-3.0204,-3.0204,-3.0204,-3.0218,-3.0213,-3.0221,-3.0328,-3.04,-3.0413,-3.0527,-3.0603,-3.0603,-3.0613,-3.0989,-3.1785,-3.1792,-3.2273,-3.3186,-3.3186,-3.3267,-3.3453,-3.4925,-3.564,-3.5718,-3.5718,-3.5718,-3.5729,-3.5729,-3.5702,-3.5685,-3.5621,-3.5599,-3.5607,-3.5547,-3.5515,-3.5515,0.0,0.0,-0.4304,-0.431,0.0,0.0,0.0,0.0,0.0,-0.4296,-0.4255,-0.4236,-0.4267,-0.4236,0.0,-0.4314,-0.4316,0.0,0.0,0.0,0.0,0.0,0.0,0.0,0.0,0.0,0.0,0.0,0.0,0.0,0.0,0.0,0.0,-0.95,0.0,-0.9492,0.0,0.0,0.0,-0.9284,-0.9218,-0.9189,-0.9226,-0.9339,-0.9394,0.0,0.0,0.0,0.0,0.0,0.0,0.0,-0.9812,-1.0749,-1.1633,-1.0639,-1.2889,-1.5847,0.0,-1.8689,0.0,0.0,0.0,0.0,0.0,0.0,-3.0004,-3.0182,-3.0221,-3.0188,-3.0188,-3.0213,-3.0204,-3.0204,-3.0204,-3.0199,-3.0194,-3.0199,-3.0199,-3.0194,-3.0199,-3.0204,-3.0204,-3.0247,-3.0279,-3.0279,-3.04,-3.0492,-3.0472,-3.0552,-3.061,-3.0605,-3.0645,-3.0769,-3.0964,-3.102,-3.1487,-3.2352,-3.2352,-3.2729,-3.3434,-3.4456,-3.5287,-3.5951,-3.5951,-3.5909,-3.5872,-3.5872,-3.5794,-3.5693,-3.5676,-3.5687,-3.5687,-3.566,-3.566,-3.5641,0.0,0.0,0.0,0.0,0.0,0.0,0.0,0.0,-0.421,-0.4249,-0.4201,-0.4179,-0.4242,-0.423,0.0,0.0,-0.4343,-0.4343,0.0,0.0,0.0,0.0,0.0,0.0,0.0,0.0,0.0,0.0,0.0,0.0,0.0,0.0,0.0,-0.95,0.0,-0.9501,0.0,0.0,0.0,-0.9303,-0.9257,-0.9265,-0.9311,-0.9403,-0.9492,-0.9562,-0.9692,0.0,0.0,0.0,0.0,0.0,0.0,0.0,-1.1131,-1.102,-1.2796,-1.5156,0.0,0.0,0.0,0.0,0.0,0.0,0.0,0.0,-2.9614,-2.9582,-2.9907,-3.0194,-3.0194,-3.0199,-3.0204,-3.0204,-3.0204,-3.0199,-3.0213,-3.0199,-3.0199,-3.0213,-3.0221,-3.0247,-3.0247,-3.0316,-3.0359,-3.0392,-3.049,-3.0564,-3.0587,-3.067,-3.0697,-3.0701,-3.0728,-3.0758,-3.0758,-3.0774,-3.1036,-3.1485,-3.1485,-3.1934,-3.2812,-3.41,-3.4959,-3.5408,-3.5818,-3.5981,-3.5942,-3.5942,-3.5909,-3.5839,-3.5807,-3.5794,-3.5794,-3.571,-3.5693,-3.5693,0.0,0.0,0.0,0.0,0.0,0.0,0.0,0.0,0.0,-0.4178,-0.4138,-0.4136,-0.4217,-0.4201,-0.4255,0.0,0.0,0.0,-0.432,0.0,0.0,0.0,0.0,0.0,0.0,0.0,0.0,0.0,0.0,0.0,0.0,0.0,0.0,-0.95,0.0,0.0,0.0,0.0,-0.9457,-0.9349,-0.9349,-0.9367,-0.9421,-0.9497,-0.9599,-0.9701,-0.9775,-0.9803,-0.9828,-0.9875,0.0,0.0,0.0,0.0,-1.0099,-1.1483,-1.2543,-1.3943,0.0,0.0,0.0,0.0,0.0,0.0,0.0,0.0,-2.8772,-2.8695,-2.9497,-3.0204,-3.0204,-3.0204,-3.0204,-3.0204,-3.0204,-3.0204,-3.0204,-3.0204,-3.0199,-3.0213,-3.0273,-3.0297,-3.0309,-3.04,-3.0453,-3.0507,-3.0593,-3.0656,-3.0715,-3.0768,-3.0801,-3.0801,-3.0801,-3.0801,-3.0801,-3.0801,-3.0801,-3.0801,-3.0801,-3.1172,-3.1934,-3.3515,-3.4334,-3.451,-3.5408,-3.5779,-3.5798,-3.5932,-3.5991,-3.5991,-3.5938,-3.5924,-3.5899,-3.5781,-3.576,-3.576,0.0,0.0,0.0,0.0,0.0,0.0,0.0,0.0,0.0,0.0,-0.4102,-0.4149,-0.4283,-0.4236,-0.4245,-0.4392,-0.4398,-0.4403,0.0,0.0,0.0,0.0,0.0,0.0,0.0,0.0,0.0,0.0,0.0,0.0,0.0,0.0,0.0,-0.95,0.0,0.0,0.0,0.0,-0.957,-0.9562,-0.956,-0.9542,-0.9497,-0.9625,-0.9695,-0.9701,-0.9775,-0.9842,-0.9881,-0.9894,-0.9894,0.0,0.0,0.0,-0.9932,-1.0138,-1.1285,-1.2709,0.0,0.0,0.0,0.0,0.0,0.0,0.0,0.0,-2.7873,0.0,-2.9115,-3.0204,-3.0204,-3.0204,-3.0204,-3.0204,-3.0204,-3.0204,-3.0204,-3.0204,-3.0226,-3.0279,-3.0304,-3.0321,-3.0381,-3.0501,-3.0585,-3.0587,-3.0697,-3.0789,-3.0794,-3.0794,-3.0801,-3.0801,-3.0801,-3.0801,-3.0801,-3.0801,-3.0801,-3.0801,-3.0801,-3.086,-3.1016,-3.1992,-3.2851,-3.3612,-3.4491,-3.4861,-3.494,-3.5681,-3.5991,-3.5991,-3.5988,-3.5985,-3.5985,-3.5962,-3.5958,-3.5931,0.0,0.0,0.0,0.0,0.0,0.0,0.0,0.0,0.0,0.0,0.0,-0.4192,-0.4296,-0.4267,-0.4298,-0.4398,-0.4363,0.0,0.0,0.0,0.0,0.0,0.0,0.0,0.0,0.0,0.0,0.0,0.0,0.0,0.0,-1.0504,-1.0563,0.0,0.0,0.0,0.0,0.0,0.0,-0.9611,-0.9601,-0.9873,-1.0245,0.0,-1.002,-1.0427,-0.9998,0.0,-0.99,-0.99,-0.9894,-0.9906,-0.9906,0.0,0.0,0.0,0.0,0.0,-1.5394,0.0,0.0,0.0,0.0,0.0,0.0,0.0,-2.6975,-2.6975,-2.795,-2.8943,-2.9402,-2.9879,-3.0204,-3.0204,-3.0204,-3.0213,-3.0247,-3.026,-3.0279,-3.0356,-3.0411,-3.0472,-3.0511,-3.0593,-3.0676,-3.071,-3.0764,-3.0798,-3.0791,-3.0796,-3.0801,-3.0801,-3.0801,-3.0801,-3.0801,-3.0801,-3.0801,-3.0801,-3.0841,-3.086,-3.088,-3.125,-3.1875,-3.2714,-3.3593,-3.3964,-3.4039,-3.4917,-3.5274,-3.532,-3.5801,-3.5991,-3.5991,-3.5991,-3.5991,-3.5991,0.0,0.0,0.0,0.0,0.0,0.0,0.0,0.0,0.0,0.0,0.0,-0.4255,-0.431,0.0,0.0,0.0,-0.4386,0.0,0.0,0.0,0.0,0.0,0.0,0.0,0.0,0.0,0.0,0.0,0.0,0.0,-1.1123,-1.1243,-1.1808,0.0,-1.1682,0.0,0.0,0.0,0.0,-0.995,-0.9979,-1.0368,-1.0928,-1.0758,-1.1143,-1.1641,0.0,0.0,0.0,0.0,-0.9906,-0.9906,-0.9906,-0.9906,0.0,0.0,0.0,0.0,0.0,0.0,0.0,0.0,0.0,0.0,0.0,0.0,-2.6097,0.0,-2.6765,-2.7549,-2.8147,-2.9153,-2.9879,-2.9879,-3.0051,-3.0226,-3.0292,-3.0304,-3.0333,-3.0442,-3.0549,-3.0604,-3.0621,-3.0668,-3.0724,-3.0799,-3.0799,-3.0802,-3.0799,-3.0801,-3.0801,-3.0801,-3.0801,-3.0801,-3.0801,-3.0801,-3.0801,-3.0841,-3.088,-3.0899,-3.0903,-3.0899,-3.1231,-3.1836,-3.2697,-3.3068,-3.3146,-3.4,-3.4378,-3.4467,-3.5322,-3.563,-3.5606,-3.5896,-3.5991,-3.5991,0.0,0.0,0.0,0.0,0.0,0.0,0.0,0.0,0.0,0.0,0.0,-0.4316,-0.4392,-0.4398,-0.442,-0.4482,-0.4499,0.0,0.0,0.0,0.0,0.0,0.0,0.0,0.0,0.0,0.0,0.0,0.0,0.0,-1.2021,-1.2095,-1.3012,-1.4487,-1.2918,-1.1772,-1.0993,0.0,0.0,-1.0941,-1.0991,-1.1043,-1.1268,-1.2806,-1.3474,-1.3441,0.0,0.0,0.0,0.0,0.0,0.0,-0.9906,-0.9906,-0.9906,0.0,0.0,0.0,0.0,0.0,0.0,0.0,0.0,0.0,0.0,0.0,0.0,-2.5268,-2.5918,-2.6479,-2.6517,-2.7873,-2.8968,-2.8968,-2.9669,-3.0226,-3.0292,-3.0304,-3.0375,-3.0577,-3.0595,-3.0621,-3.0683,-3.069,-3.0724,-3.0799,-3.0799,-3.0802,-3.0799,-3.0801,-3.0801,-3.0801,-3.0801,-3.0801,-3.0801,-3.0801,-3.0841,-3.0899,-3.0899,-3.0905,-3.0894,-3.0903,-3.0919,-3.1016,-3.1828,-3.2163,-3.2241,-3.3107,-3.3461,-3.3549,-3.4433,-3.4608,-3.4525,-3.5606,-3.5991,-3.5991,0.0,0.0,0.0,0.0,0.0,0.0,0.0,0.0,0.0,0.0,0.0,0.0,0.0,-0.4403,-0.4432,-0.4494,-0.4498,0.0,0.0,0.0,0.0,0.0,0.0,0.0,0.0,0.0,0.0,0.0,0.0,-0.8683,-1.0632,-1.1259,-1.1884,-1.2448,-1.2391,-1.2185,-1.1821,-1.079,0.0,0.0,-1.098,-1.1878,0.0,-1.3548,-1.4482,-1.5312,-1.4481,0.0,0.0,0.0,0.0,0.0,-1.0665,-1.0313,-0.9906,-0.9906,-1.0632,0.0,0.0,0.0,0.0,0.0,0.0,-2.3237,-2.3532,-2.4441,-2.5195,-2.5195,-2.5425,-2.5623,-2.5631,-2.6995,-2.8141,-2.8141,-2.89,-2.9524,-2.9578,-3.0113,-3.054,-3.0653,-3.0661,-3.0668,-3.069,-3.0691,-3.0722,-3.0799,-3.0798,-3.0798,-3.0799,-3.0801,-3.0801,-3.0801,-3.0801,-3.0801,-3.0801,-3.0801,-3.0841,-3.0899,-3.0907,-3.0909,-3.0905,-3.0901,-3.0899,-3.0919,-3.1207,-3.1327,-3.1406,-3.2264,-3.2635,-3.2753,-3.3965,-3.4375,-3.4433,-3.5584,-3.6007,-3.5991,0.0,0.0,0.0,-0.5558,0.0,-0.4546,-0.4501,-0.4509,0.0,0.0,0.0,0.0,0.0,0.0,-0.5203,-0.4967,0.0,0.0,0.0,0.0,0.0,0.0,0.0,0.0,0.0,0.0,0.0,0.0,0.0,0.0,0.0,-1.0452,-1.1068,-1.161,-1.1901,-1.2026,0.0,0.0,0.0,-1.0885,0.0,-1.3067,-1.3925,0.0,-1.6105,-1.6762,0.0,0.0,0.0,0.0,0.0,0.0,-1.1714,-1.0842,-0.9944,-0.9933,-1.0898,0.0,-1.2584,0.0,0.0,0.0,0.0,-2.1395,-2.2815,0.0,-2.4432,-2.4739,-2.5018,-2.5198,-2.5214,-2.6144,-2.6967,-2.7242,-2.8068,-2.8687,-2.8782,-2.9601,-3.0195,-3.0256,-3.0515,-3.069,-3.069,-3.0704,-3.0734,-3.0799,-3.0806,0.0,-3.0799,-3.0801,-3.0801,-3.0801,-3.0801,-3.0801,-3.0801,-3.0821,-3.086,-3.0899,-3.0907,-3.0889,-3.0909,-3.0909,-3.0909,-3.0891,-3.0898,-3.0898,-3.0937,-3.1523,-3.1758,-3.1894,-3.3203,-3.3496,-3.3398,-3.5293,-3.5271,-3.4285,-0.6905,-0.728,-0.6862,-0.5243,-0.482,-0.4714,-0.4709,-0.4734,-0.5015,-0.5725,0.0,0.0,0.0,0.0,0.0,0.0,0.0,0.0,-0.4782,0.0,0.0,0.0,0.0,0.0,0.0,0.0,0.0,0.0,0.0,0.0,0.0,0.0,-1.0753,-1.2305,-1.1582,-1.1264,-1.132,0.0,-1.2444,-1.2613,0.0,-1.4559,-1.424,0.0,0.0,0.0,-1.7777,-1.7815,0.0,-1.5889,0.0,0.0,0.0,-1.1502,-1.007,-1.0044,-1.0675,0.0,0.0,0.0,0.0,0.0,0.0,0.0,-2.2882,0.0,-2.2882,-2.3783,-2.4598,-2.5143,-2.5179,-2.5262,-2.5572,-2.6348,-2.7193,-2.7824,-2.7948,-2.8709,-2.9284,-2.9343,-3.0108,-3.0639,-3.0639,-3.0626,-3.0656,-3.0721,-3.0747,-3.0768,-3.076,-3.0782,-3.0801,-3.0801,-3.0801,-3.0801,-3.0801,-3.088,-3.0899,-3.0899,-3.0899,-3.0909,-3.0898,-3.0898,-3.0898,-3.0898,-3.0898,-3.0898,-3.0898,-3.0898,-3.0898,-3.1016,-3.2129,-3.1875,-3.1309,-3.4629,-3.375,-3.0898,-0.9083,-0.9176,-0.8936,-0.8613,-0.6549,-0.4872,-0.472,-0.5351,-0.5933,0.0,0.0,0.0,0.0,0.0,0.0,0.0,0.0,0.0,-0.5653,-0.5133,-0.4828,-0.4848,-0.6329,0.0,0.0,0.0,0.0,0.0,0.0,0.0,0.0,0.0,0.0,0.0,-1.053,-1.0434,-1.0459,-1.0674,0.0,-1.1727,-1.2909,-1.4326,0.0,0.0,0.0,0.0,0.0,-1.9297,-1.8666,0.0,-1.6995,-1.5449,0.0,0.0,-1.1762,-1.112,-1.1972,-1.2834,-1.1607,0.0,0.0,0.0,0.0,0.0,0.0,0.0,-2.1327,-2.2815,-2.3314,-2.3823,-2.5043,-2.5293,-2.5404,-2.573,-2.6513,-2.7089,-2.7121,-2.7884,-2.8436,-2.845,-2.8728,-2.8896,-2.8896,-2.8885,-2.8911,0.0,-2.9559,-2.994,-2.9923,-3.0489,-3.0801,-3.0801,-3.0801,-3.0801,-3.0801,-3.088,-3.0903,-3.0891,-3.0903,-3.0909,-3.0898,-3.0898,-3.0898,-3.0898,-3.0898,-3.0898,-3.0898,-3.0898,-3.0898,-3.0937,-3.125,-3.1172,-3.1016,-3.1953,-3.1719,-3.0898,-1.0005,-1.0,-0.9894,-1.0027,-0.8421,-0.6858,-0.603,-0.6412,-0.6783,0.0,0.0,0.0,0.0,0.0,0.0,0.0,0.0,0.0,-0.6138,-0.5651,-0.5428,-0.5492,-0.664,-0.7485,0.0,0.0,0.0,0.0,0.0,0.0,0.0,0.0,0.0,0.0,-1.0098,-1.011,-1.0135,-1.0144,0.0,0.0,-1.3527,0.0,0.0,-1.8211,-1.9385,0.0,0.0,0.0,-1.9743,-2.0092,-1.9044,0.0,0.0,-1.4155,-1.3483,-1.2269,-1.3113,0.0,0.0,0.0,0.0,0.0,0.0,0.0,-1.8525,-1.9283,-2.0196,0.0,-2.2588,-2.324,-2.4566,-2.4853,-2.5027,-2.5438,-2.5957,-2.63,-2.63,-2.7057,-2.7599,-2.7599,-2.794,-2.8204,-2.8204,-2.8201,-2.8203,-2.8203,-2.8725,-2.922,-2.9574,-3.004,-3.045,-3.0782,-3.0801,-3.0801,-3.0841,-3.088,-3.0901,-3.0909,-3.0891,-3.0896,-3.0898,-3.0898,-3.0898,-3.0898,-3.0898,-3.0898,-3.0898,-3.0898,-3.0898,-3.0898,-3.0898,-3.0898,-3.0898,-3.0898,-3.0898,-3.0898,0.0,-1.011,-1.0121,-1.0121,-1.0106,-0.9598,-0.8096,-0.7837,-0.774,0.0,0.0,0.0,0.0,0.0,0.0,0.0,0.0,0.0,-0.6576,-0.6343,-0.6323,-0.6447,-0.7152,-0.7943,-0.878,0.0,0.0,0.0,0.0,0.0,0.0,0.0,0.0,0.0,-1.0105,-1.0148,-1.0207,-1.0213,-1.0734,-1.1827,-1.5044,-1.6026,0.0,0.0,-1.9939,-1.9449,-2.0214,-2.0495,-2.0638,-2.1504,-2.0702,0.0,-1.6682,-1.5935,-1.5523,-1.3749,-1.4406,0.0,-1.4547,-1.5,0.0,0.0,-1.6876,0.0,-1.9271,-1.9355,-1.9309,0.0,-2.1787,-2.2646,-2.3651,-2.3934,-2.4287,-2.5109,-2.5351,-2.5508,-2.5582,-2.6264,-2.6771,-2.6771,-2.7448,-2.7916,-2.7916,-2.792,-2.7911,-2.7911,-2.8062,-2.8537,-2.9416,-2.9455,-2.9826,-3.0645,-3.0665,-3.0743,-3.0899,-3.0899,-3.0899,-3.0899,-3.0897,-3.0898,-3.0898,-3.0898,-3.0898,-3.0898,-3.0898,-3.0898,-3.0898,-3.0898,-3.0898,-3.0898,-3.0898,-3.0898,-3.0898,-3.0898,-3.0898,-3.0898,-1.0102,-1.0185,-1.0251,-1.0251,-1.0172,-0.9986,-0.9657,-0.961,-0.9591,-0.9562,0.0,0.0,0.0,0.0,0.0,0.0,0.0,0.0,0.0,-0.7675,-0.732,-0.7352,-0.8103,-0.862,-0.8805,-0.9467,0.0,0.0,0.0,0.0,0.0,0.0,0.0,0.0,-1.0182,-1.022,-1.0281,-1.0279,-1.1151,-1.2649,-1.4021,0.0,-1.754,-1.8926,-1.9779,-2.0264,-2.0443,-2.0506,-2.0625,-2.1503,-2.1113,-2.0156,0.0,-1.9507,-1.9016,-1.6571,-1.7082,-1.8105,-1.6518,-1.7238,-1.8344,-1.7995,-1.8654,0.0,-1.7646,-1.7688,-1.8131,0.0,-1.8673,-1.9503,-2.183,-2.228,-2.2581,-2.3436,-2.4171,-2.4851,-2.5508,-2.5757,-2.5855,-2.5855,-2.6045,-2.6191,-2.6191,-2.6183,-2.6191,-2.6191,-2.6859,-2.762,-2.8518,-2.8557,-2.8947,-2.9806,-2.9826,-3.0177,-3.0899,-3.0899,-3.0899,-3.0899,-3.0897,-3.0898,-3.0898,-3.0898,-3.0898,-3.0898,-3.0898,-3.0898,-3.0898,-3.0898,-3.0898,-3.0898,-3.0898,-3.0898,-3.0898,-3.0898,-3.0898,-3.0898,-1.0217,-1.0248,-1.0305,-1.0305,-1.0243,-1.019,-1.02,-1.0197,-1.0186,0.0,0.0,0.0,0.0,0.0,0.0,0.0,0.0,0.0,0.0,-0.8465,-0.8254,-0.83,-0.869,-0.9096,-0.9498,-0.9935,-1.0155,0.0,0.0,0.0,0.0,0.0,0.0,0.0,0.0,-1.0246,-1.0309,-1.0265,-1.1245,-1.2909,-1.4218,0.0,-1.8085,-1.9352,-2.0124,-2.0492,-2.0504,-2.0777,-2.1154,-2.1147,-2.115,0.0,-2.0643,-2.0801,-2.072,0.0,-1.8814,-1.9552,-1.8242,-1.854,-1.9198,-1.9205,0.0,0.0,0.0,-1.8523,-1.8741,-1.9565,-1.9075,-1.9165,-2.1395,-2.1461,-2.1617,-2.2898,-2.3838,-2.4538,-2.4946,-2.5375,-2.5648,-2.5648,-2.5676,-2.5698,-2.5698,-2.5705,-2.5707,-2.5707,-2.6097,-2.6722,-2.76,-2.7659,-2.8049,-2.8928,-2.8947,-2.9379,-3.0243,-3.0257,-3.0474,-3.0894,-3.0898,-3.0898,-3.0898,-3.0898,-3.0898,-3.0898,-3.0898,-3.0898,-3.0898,-3.0898,-3.0898,-3.0898,-3.0898,-3.0898,-3.0898,-3.0898,-3.0898,-3.0898,-1.0291,-1.0291,-1.0291,-1.0291,-1.0291,-1.029,-1.0305,-1.0305,-1.051,0.0,0.0,0.0,0.0,0.0,0.0,0.0,0.0,0.0,0.0,-0.9321,-0.918,-0.9231,-0.9223,-0.9544,-1.0193,-1.0197,-1.0191,0.0,0.0,0.0,0.0,0.0,0.0,0.0,0.0,0.0,0.0,0.0,0.0,-1.3649,0.0,-1.6328,-1.7925,-1.9597,-2.0233,-2.0258,-2.0409,-2.0904,-2.1438,-2.0911,-2.1196,-2.1686,-2.1173,-2.1596,0.0,0.0,0.0,-2.1054,0.0,0.0,-2.0298,0.0,0.0,-2.0215,0.0,0.0,0.0,-2.0777,-1.9905,0.0,0.0,0.0,0.0,0.0,0.0,0.0,0.0,-2.4422,0.0,-2.518,-2.5492,-2.5629,-2.5473,-2.5453,-2.5512,-2.5687,-2.5531,-2.5824,-2.6704,-2.6743,-2.7151,-2.801,-2.8049,-2.8543,-2.9585,-2.9599,-3.0033,-3.0898,-3.0898,-3.0898,-3.0898,-3.0898,-3.0898,-3.0898,-3.0898,-3.0898,-3.0898,-3.0898,-3.0898,-3.0898,-3.0898,-3.0898,-3.0898,-3.0898,-3.0898,-3.0898,-1.0296,-1.0296,-1.0296,-1.0296,-1.0296,-1.0306,-1.0308,-1.0305,-1.1367,0.0,0.0,0.0,0.0,0.0,0.0,0.0,0.0,0.0,-1.2226,-1.087,-1.0057,-1.0059,-1.0059,-1.0117,-1.0194,-1.0195,-1.0195,-1.0209,0.0,0.0,0.0,0.0,-1.0285,-1.0292,-1.023,0.0,0.0,0.0,-1.2512,0.0,-1.553,-1.5929,0.0,-1.8647,-1.9258,-1.9347,-2.0073,-2.0385,-2.059,0.0,-2.1628,-2.185,0.0,-2.34,-2.3918,-2.2941,0.0,0.0,0.0,0.0,0.0,0.0,-2.274,0.0,0.0,0.0,-1.9986,-1.8688,0.0,0.0,0.0,0.0,0.0,0.0,0.0,0.0,-2.1035,-2.1775,-2.2591,-2.3304,-2.4768,-2.5395,-2.4612,-2.4553,-2.4866,-2.5648,-2.4983,-2.4924,-2.5805,-2.5844,-2.6253,-2.7114,-2.7153,-2.7938,-2.9585,-2.9608,-3.0039,-3.0898,-3.0898,-3.0898,-3.0898,-3.0898,-3.0898,-3.0898,-3.0898,-3.0898,-3.0898,-3.0898,-3.0898,-3.0898,-3.0898,-3.0898,-3.0898,-3.0898,-3.0898,-3.0898,-1.0279,-1.0308,-1.0308,-1.0308,-1.0308,-1.0296,-1.0308,-1.0292,-1.0801,0.0,0.0,0.0,0.0,0.0,0.0,0.0,0.0,-1.3233,0.0,0.0,0.0,-1.0228,-1.0193,-1.0197,-1.0203,-1.0198,-1.0201,-1.0193,-1.0193,0.0,0.0,0.0,-1.0245,-1.0244,-1.0203,0.0,-1.218,0.0,-1.2526,0.0,0.0,0.0,0.0,-1.8785,-1.9796,-1.9829,-2.0173,-2.0302,-2.0366,0.0,-2.0898,0.0,0.0,0.0,0.0,-2.3751,0.0,0.0,0.0,0.0,0.0,0.0,0.0,0.0,-2.1072,0.0,-2.0507,0.0,0.0,0.0,0.0,0.0,0.0,0.0,-1.9606,0.0,0.0,0.0,-2.1639,0.0,0.0,0.0,-2.4339,-2.4397,-2.4768,-2.5629,-2.4885,-2.4788,-2.5648,-2.5707,-2.5863,-2.6234,-2.6253,-2.6843,-2.8076,-2.8593,-2.9277,-3.0156,-3.0664,-3.0898,-3.0898,-3.0898,-3.0898,-3.0898,-3.0898,-3.0898,-3.0898,-3.0898,-3.0898,-3.0898,-3.0898,-3.0898,-3.0898,-3.0898,-3.0898,-3.0898,-1.0101,0.0,0.0,-1.0256,-1.0275,-1.0282,-1.0258,-1.0248,-1.0892,-1.2753,0.0,0.0,-1.5133,-1.601,0.0,0.0,-1.6044,-1.5176,-1.3672,-1.2346,-1.1365,-1.0804,-1.0398,-1.0263,-1.0464,-1.0285,-1.0176,-1.0161,-1.0176,0.0,0.0,0.0,0.0,-1.0176,-1.0399,-1.1443,-1.2982,0.0,-1.332,-1.5372,-1.5715,-1.6112,-1.6753,-1.9046,-2.0055,-2.0234,-2.0215,-2.0234,-2.028,-2.0511,-2.0646,0.0,-2.2624,-2.3218,-2.3473,0.0,0.0,0.0,-2.391,0.0,0.0,0.0,0.0,0.0,0.0,0.0,0.0,0.0,0.0,0.0,0.0,0.0,0.0,0.0,0.0,-1.9229,0.0,-1.9274,0.0,0.0,0.0,0.0,0.0,-2.3833,-2.4165,-2.5262,-2.4541,-2.4521,-2.5633,-2.5691,-2.5691,-2.5691,-2.5709,-2.6117,-2.6997,-2.7635,-2.8496,-2.9609,-3.0234,-3.0664,-3.0898,-3.0898,-3.0898,-3.0898,-3.0898,-3.0898,-3.0898,-3.0898,-3.0898,-3.0898,-3.0898,-3.0898,-3.0898,-3.0898,-3.0898,-3.0898,-0.971,-0.9918,0.0,0.0,-1.0211,-1.0263,-1.0131,-1.0105,-1.2435,-1.8941,-1.7109,0.0,0.0,0.0,0.0,0.0,0.0,-1.7442,-1.6342,-1.3882,-1.2385,-1.2241,-1.0861,-1.0441,-1.1158,-1.046,-1.0101,-1.0098,-1.0101,0.0,0.0,0.0,0.0,0.0,-1.0923,-1.2233,-1.3855,-1.376,-1.5668,-1.8669,-1.7849,-1.8457,-1.9773,0.0,-1.9428,-2.0098,-2.0021,0.0,0.0,-2.1072,-2.1492,0.0,0.0,0.0,0.0,0.0,0.0,0.0,0.0,0.0,0.0,-2.3388,0.0,0.0,0.0,0.0,-2.1764,0.0,0.0,0.0,0.0,0.0,0.0,0.0,0.0,0.0,0.0,0.0,0.0,0.0,0.0,0.0,0.0,-2.245,-2.2664,0.0,-2.3632,-2.3886,-2.5602,-2.57,-2.57,-2.57,-2.5693,-2.6117,-2.6997,-2.703,-2.7891,-2.9609,-2.9629,-3.0078,-3.0898,-3.0898,-3.0898,-3.0898,-3.0898,-3.0898,-3.0898,-3.0898,-3.0898,-3.0898,-3.0898,-3.0898,-3.0898,-3.0898,-3.0898,-3.0898,0.0,0.0,0.0,0.0,0.0,-1.0144,-1.0105,-1.1984,-1.4233,-1.6546,-1.5849,0.0,0.0,-1.8246,-1.9924,0.0,0.0,-1.8595,-1.8264,-1.551,-1.3859,-1.3773,-1.2468,-1.2058,-1.2719,-1.1531,-1.0881,-1.0894,-1.0368,0.0,0.0,0.0,0.0,0.0,0.0,-1.255,0.0,0.0,0.0,0.0,0.0,-1.8275,-1.9843,0.0,-1.9652,-1.9896,-1.9786,-2.0088,0.0,-2.0897,-2.1398,-2.2098,-2.3213,-2.3625,-2.3873,-2.4748,-2.5026,-2.507,0.0,0.0,-2.488,-2.386,0.0,0.0,0.0,0.0,0.0,0.0,0.0,0.0,0.0,0.0,0.0,0.0,0.0,0.0,0.0,0.0,0.0,0.0,0.0,0.0,0.0,0.0,0.0,-2.3453,-2.3261,0.0,-2.5605,-2.5703,-2.5703,-2.5703,-2.5702,-2.5838,-2.6131,-2.6718,-2.7598,-2.875,-2.9316,-3.0059,-3.0898,-3.0898,-3.0898,-3.0898,-3.0898,-3.0898,-3.0898,-3.0898,-3.0898,-3.0898,-3.0898,-3.0898,-3.0898,-3.0898,-3.0898,-3.0898,-0.9625,0.0,0.0,0.0,0.0,-1.0439,-1.1501,-1.35,-1.49,0.0,-1.5673,0.0,-1.6258,0.0,-1.9251,0.0,-1.8769,-1.8801,-1.8302,-1.6977,-1.5796,-1.4891,-1.3822,-1.3415,-1.3775,-1.2636,-1.1781,-1.1222,-1.073,-1.0345,0.0,0.0,0.0,0.0,0.0,-1.2934,-1.503,-1.5561,-1.6667,0.0,0.0,-1.8603,0.0,0.0,-1.9695,-1.9823,0.0,-2.0429,-2.0949,-2.1473,-2.216,-2.292,-2.354,-2.3795,-2.4007,-2.4596,-2.4793,-2.4835,-2.4885,-2.4917,0.0,-2.4111,-2.3544,0.0,-2.1829,0.0,-2.2062,0.0,0.0,0.0,0.0,0.0,0.0,0.0,0.0,0.0,0.0,-1.6665,0.0,0.0,0.0,0.0,0.0,0.0,-2.1113,-2.2557,-2.2676,0.0,0.0,-2.5527,-2.5703,-2.5703,-2.5703,-2.5703,-2.5703,-2.6269,-2.7129,-2.8301,-2.8867,-2.9766,-3.0898,-3.0898,-3.0898,-3.0898,-3.0898,-3.0892,-3.0863,-3.0896,-3.0898,-3.0879,-3.0898,-3.0898,-3.0897,-3.0898,-3.0898,-3.0896,-0.9483,-0.9483,0.0,0.0,-0.9994,0.0,0.0,0.0,-1.4604,0.0,-1.6818,-1.8211,-1.8211,-1.8211,-1.836,-1.8732,-1.8788,-1.8199,-1.6765,-1.8118,0.0,-1.5717,-1.4914,-1.449,-1.4465,-1.3793,-1.275,-1.1269,-1.1232,0.0,0.0,0.0,0.0,0.0,-1.175,0.0,-1.4907,-1.652,-1.808,-1.9504,-1.9564,-1.9546,-1.949,-1.9405,-1.956,-1.9938,-2.0674,-2.1023,-2.1293,-2.2708,-2.3671,-2.4301,-2.4439,-2.4524,-2.4591,-2.466,-2.4676,-2.4689,-2.4832,-2.4888,-2.4752,-2.4164,-2.4015,0.0,0.0,0.0,-2.2951,0.0,0.0,0.0,0.0,0.0,0.0,0.0,0.0,0.0,0.0,0.0,0.0,0.0,0.0,0.0,0.0,-1.8953,-1.9097,-2.1582,-2.1855,0.0,0.0,-2.5195,-2.5664,-2.5703,-2.5703,-2.5703,-2.5703,-2.5703,-2.6543,-2.8242,-2.8281,-2.9199,-3.084,-3.0879,-3.0898,-3.0898,-3.0898,-3.0856,-3.0799,-3.0866,-3.0859,-3.08,-3.0859,-3.0894,-3.0899,-3.0895,-3.0891,-3.0894,-0.9204,-0.9204,-0.9921,0.0,-1.1045,-1.0854,0.0,0.0,0.0,0.0,-1.9195,-1.8211,-1.8211,-1.8211,-1.8253,-1.8339,-1.8619,0.0,0.0,0.0,0.0,-1.7425,-1.6499,-1.6197,-1.6673,-1.505,-1.4027,-1.3631,-1.1897,0.0,-1.0729,0.0,0.0,0.0,0.0,0.0,-1.4907,-1.652,-1.8031,-1.946,-2.0546,-2.0323,-1.942,0.0,-2.034,-2.0326,-2.0436,-2.1243,-2.2317,-2.27,-2.3359,-2.4019,-2.4097,-2.4173,-2.4247,-2.4303,-2.4321,-2.4339,-2.4375,-2.4561,-2.4678,-2.4369,-2.41,-2.3788,0.0,0.0,0.0,0.0,0.0,0.0,0.0,0.0,0.0,0.0,0.0,0.0,0.0,0.0,0.0,-1.8924,0.0,0.0,-1.6741,-1.8052,-1.9234,-1.9918,-2.1167,0.0,0.0,0.0,-2.5039,-2.5684,-2.5703,-2.5703,-2.5703,-2.5703,-2.625,-2.7344,-2.7988,-2.8867,-2.9961,-3.0605,-3.0898,-3.0898,-3.0898,-3.0856,-3.08,-3.0761,-3.075,-3.0719,-3.0685,-3.0687,-3.0686,-3.0731,-3.0741,-3.073,-0.9099,-1.0152,0.0,-1.5072,0.0,0.0,-1.2261,-1.3274,0.0,-2.1944,-2.1229,0.0,-1.7912,-1.7715,-1.7715,-1.7715,-1.7927,0.0,-1.7844,0.0,0.0,-1.7353,-1.7254,-1.7241,-1.7274,-1.6235,0.0,-1.4289,-1.2657,0.0,-1.0975,0.0,0.0,0.0,0.0,-1.3017,-1.4272,-1.6904,-1.8474,-1.9344,-2.088,-2.0789,0.0,-2.0717,-2.1225,-2.1443,-2.137,-2.193,-2.2763,-2.3071,-2.3531,-2.3937,-2.3996,-2.4074,-2.4151,-2.419,-2.419,-2.4209,-2.4266,-2.4426,-2.4559,-2.4526,-2.4392,-2.4125,-2.3666,-2.3702,-2.3776,0.0,-2.4181,-2.4576,0.0,0.0,0.0,0.0,0.0,0.0,0.0,0.0,0.0,0.0,-1.8498,0.0,-1.5462,-1.7021,-1.8314,-1.8667,-1.9972,-2.134,0.0,0.0,-2.4629,-2.5117,-2.5506,-2.57,-2.57,-2.5702,-2.6132,-2.7011,-2.7499,-2.8398,-2.9628,-3.0084,-3.0484,-3.0816,-3.0777,-3.0759,-3.0703,-3.067,-3.0656,-3.0649,-3.061,-3.0607,-3.0591,-3.0614,-3.0627,-3.0651,-1.018,-1.2396,0.0,0.0,0.0,0.0,0.0,-1.2788,0.0,-2.0942,0.0,-2.0576,-1.7958,-1.7633,-1.7633,-1.7633,-1.7685,-1.7813,-1.8054,-1.7714,-1.7215,-1.6567,-1.7496,-1.7731,-1.7093,-1.7223,-1.6308,-1.4278,-1.34,-1.2331,0.0,0.0,0.0,0.0,0.0,0.0,0.0,-1.769,-1.9287,-1.9558,-2.1095,-2.1203,-2.0554,-2.1421,-2.2144,-2.2707,-2.2817,-2.2854,-2.2944,-2.3578,-2.3896,-2.3996,-2.3996,-2.4094,-2.419,-2.419,-2.419,-2.4228,-2.4338,-2.4391,-2.4442,-2.4613,-2.4676,-2.4485,-2.3705,-2.3705,-2.3774,-2.3614,-2.3795,-2.415,-2.4617,0.0,0.0,0.0,0.0,0.0,0.0,0.0,0.0,0.0,0.0,0.0,-1.5777,-1.6318,-1.7096,-1.769,-1.8585,-1.9558,0.0,0.0,-2.418,-2.4394,-2.5248,-2.5709,-2.5707,-2.5696,-2.609,-2.6832,-2.6949,-2.7845,-2.942,-2.9469,-2.992,-3.0691,-3.0626,-3.0602,-3.0593,-3.0584,-3.0574,-3.0582,-3.0579,-3.0586,-3.0577,-3.0516,-3.0528,-3.0567,-1.6107,0.0,0.0,0.0,0.0,-1.8238,-1.8334,-1.8796,-1.8274,-1.5924,-1.5614,-1.6863,-2.0183,-2.0564,-2.0564,-2.0564,-2.0803,0.0,0.0,0.0,0.0,-1.7319,-1.7492,-1.7532,-1.7432,-1.7652,-1.7127,-1.581,-1.3758,-1.2413,0.0,0.0,0.0,0.0,0.0,0.0,-1.7361,-1.9039,0.0,-2.1168,-2.234,-2.2214,-2.144,-2.2665,-2.2959,-2.2781,-2.3397,-2.3614,-2.3632,-2.3759,-2.3896,-2.3996,-2.3996,-2.4094,-2.419,-2.419,-2.419,-2.4209,-2.4228,-2.4321,-2.4391,-2.4303,-2.4497,-2.4604,-2.4307,-2.4385,-2.4512,-2.4482,-2.4512,-2.4373,-2.3761,0.0,0.0,0.0,0.0,0.0,0.0,0.0,0.0,0.0,0.0,-2.005,-1.742,-1.7432,-1.7394,-1.6865,-1.7643,0.0,0.0,0.0,-2.2965,0.0,-2.525,-2.5696,0.0,0.0,-2.5789,-2.5945,-2.6667,-2.7501,-2.8468,-2.9188,-2.9915,-3.0623,-3.0604,-3.0593,-3.0612,-3.054,-3.0479,-3.0452,-3.0569,-3.053,-3.0436,-3.0491,-3.0471,-3.0444,-1.9294,0.0,0.0,0.0,0.0,0.0,0.0,-2.0304,-1.9704,-1.805,-1.7822,-1.871,-2.1032,-2.1309,-2.1371,-2.1556,-2.1708,-2.1797,-2.1797,-2.0489,-1.971,-1.971,-1.875,-1.822,-1.822,-1.8248,-1.7718,-1.6604,-1.472,-1.3143,0.0,0.0,0.0,-1.0822,0.0,-1.4872,0.0,0.0,0.0,-2.1206,-2.2565,-2.261,-2.2019,-2.3097,-2.3404,-2.3324,-2.3668,-2.3795,-2.3795,-2.3795,-2.3896,-2.3996,-2.3996,-2.4094,-2.419,-2.419,-2.419,-2.419,-2.419,-2.4247,-2.4284,-2.4209,-2.4321,-2.441,-2.4321,-2.4408,-2.451,-2.4445,-2.458,-2.4429,-2.3566,-2.2846,0.0,0.0,0.0,0.0,0.0,0.0,-2.1703,0.0,0.0,0.0,0.0,-1.7407,0.0,0.0,0.0,0.0,0.0,0.0,-2.1964,0.0,0.0,0.0,-2.5639,0.0,-2.5639,-2.5598,-2.603,-2.6899,-2.8152,-2.8543,-2.9388,-3.0557,-3.051,-3.0498,-3.0491,-3.0448,-3.0417,-3.041,-3.0469,-3.0447,-3.039,-3.0428,-3.0436,-3.0398,-2.0994,-1.9511,0.0,0.0,-1.7263,-1.7986,-1.9656,-1.9904,-2.0239,-2.1183,-2.1309,-2.1309,-2.1309,-2.1309,-2.1433,-2.1768,-2.1797,-2.1797,-2.1797,-2.1797,-2.1797,-2.1797,-2.0323,-1.9439,-1.924,-1.895,-1.831,-1.7211,-1.5679,-1.4071,0.0,-1.1409,-1.1109,-1.1502,0.0,0.0,0.0,0.0,-2.0311,-2.1295,-2.2471,-2.2757,-2.2536,-2.3094,-2.3491,-2.3714,-2.3671,-2.3732,-2.3816,-2.3774,-2.3837,-2.3996,-2.4016,-2.4094,-2.419,-2.419,-2.419,-2.419,-2.419,-2.419,-2.419,-2.419,-2.419,-2.419,-2.419,-2.4284,-2.4338,-2.4228,-2.4411,-2.4335,-2.3509,-2.3079,0.0,0.0,0.0,0.0,0.0,0.0,0.0,0.0,0.0,0.0,-1.6957,0.0,0.0,0.0,0.0,0.0,-1.8182,0.0,0.0,0.0,0.0,-2.468,-2.5294,0.0,-2.5547,-2.5504,-2.5504,-2.6405,-2.808,-2.8012,-2.8916,-3.0482,-3.0425,-3.0398,-3.0398,-3.0398,-3.0398,-3.0398,-3.0398,-3.0398,-3.0398,-3.0398,-3.0398,-3.0398,0.0,0.0,0.0,0.0,0.0,-1.8427,-1.863,-1.8659,-1.9295,-2.1071,-2.1309,-2.1309,-2.1309,-2.1309,-2.1433,-2.1768,-2.1797,-2.1797,-2.1797,-2.1797,-2.1797,-2.1797,-2.1615,-2.1176,-2.0377,-1.9787,-1.8985,0.0,0.0,-1.4902,0.0,-1.2513,-1.2471,-1.3787,-1.6138,0.0,0.0,-1.9999,-2.1264,-2.2849,-2.251,-2.2634,-2.3003,-2.2841,-2.3091,-2.35,-2.3242,-2.3491,-2.3837,-2.361,-2.3735,-2.4016,-2.4074,-2.4151,-2.419,-2.419,-2.419,-2.419,-2.419,-2.419,-2.419,-2.419,-2.419,-2.419,-2.419,-2.4209,-2.4209,-2.419,-2.4228,-2.4026,-2.3355,-2.3756,-2.3811,0.0,0.0,0.0,0.0,0.0,-2.2345,-2.1388,0.0,0.0,-1.7669,-1.6892,0.0,0.0,-1.5758,-1.6495,-1.8955,-1.9244,0.0,-2.2932,-2.3854,-2.4316,-2.4339,-2.5102,-2.551,-2.5504,-2.5504,-2.6378,-2.8006,-2.7997,-2.8879,-3.0402,-3.041,-3.0398,-3.0398,-3.0398,-3.0398,-3.0398,-3.0398,-3.0398,-3.0398,-3.0398,-3.0398,-3.0398,0.0,0.0,0.0,0.0,0.0,0.0,0.0,-1.8851,-1.9124,-1.9894,-2.0763,-2.1309,-2.1309,-2.1309,-2.1433,-2.1768,-2.1797,-2.1797,-2.1797,-2.1797,-2.1797,-2.1797,-2.1873,-2.1766,-2.1411,-2.0772,-1.9925,0.0,0.0,-1.6079,-1.4312,-1.4749,-1.5278,-1.5941,0.0,-1.9083,-2.0068,-2.0601,-2.1541,-2.2588,-2.2377,-2.2525,-2.285,-2.2738,-2.2935,-2.3242,-2.3182,-2.3319,-2.3486,-2.3445,-2.3689,-2.4016,-2.4074,-2.4151,-2.419,-2.419,-2.419,-2.419,-2.419,-2.419,-2.419,-2.419,-2.419,-2.419,-2.419,-2.419,-2.419,-2.419,-2.419,-2.4117,-2.3861,-2.3728,-2.3659,-2.3615,0.0,0.0,0.0,0.0,0.0,-2.2218,0.0,-2.0259,0.0,0.0,0.0,0.0,0.0,-1.612,-1.8239,-1.8828,0.0,-2.2157,0.0,-2.4224,-2.4199,-2.5013,-2.5418,-2.5382,-2.5382,-2.6002,-2.7181,-2.7701,-2.8837,-3.0398,-3.0398,-3.0398,-3.0398,-3.0398,-3.0398,-3.0398,-3.0398,-3.0398,-3.0398,-3.0398,-3.0398,-3.0398,-1.9762,0.0,-1.8517,0.0,-1.8851,-1.9101,-1.9101,-1.9101,-1.9101,-1.9101,-2.0,-2.0828,-2.1246,-2.1309,-2.1433,-2.1768,-2.1797,-2.1797,-2.1797,-2.1797,-2.1797,-2.1797,-2.1903,0.0,-2.1991,-2.1541,-2.0988,-2.0305,-1.9121,-1.7631,-1.5887,-1.6958,-1.7587,-1.7876,-1.9211,-2.0082,-2.0611,-2.1247,-2.182,-2.231,-2.231,-2.2432,-2.2605,-2.2632,-2.2825,-2.306,-2.3003,-2.3102,-2.3247,-2.3295,-2.3531,-2.3834,-2.3876,-2.3976,-2.4074,-2.4074,-2.4151,-2.419,-2.419,-2.419,-2.419,-2.419,-2.419,-2.419,-2.419,-2.419,-2.419,-2.419,-2.419,-2.419,-2.419,-2.3805,-2.3633,-2.3981,0.0,0.0,0.0,-2.3769,0.0,-2.2604,-2.1415,-2.027,-1.9379,-1.827,0.0,0.0,0.0,-1.7023,-1.8818,-1.8974,0.0,0.0,0.0,0.0,-2.4141,-2.496,-2.535,-2.5303,-2.5303,-2.5774,-2.664,-2.7755,-2.889,-3.0025,-3.0294,-3.0398,-3.0398,-3.0398,-3.0398,-3.0398,-3.0398,-3.0398,-3.0398,-3.0398,-3.0398,-3.0398,-1.8517,-1.8517,-1.8517,-1.8517,-1.8851,-1.9101,-1.9101,-1.9101,-1.9101,-1.9101,-1.9101,-1.9696,-2.1135,-2.1309,-2.1433,-2.1768,-2.1797,-2.1797,-2.1797,-2.1797,-2.1797,0.0,0.0,-2.1869,-2.1998,-2.2056,-2.213,-2.2276,0.0,-1.9568,-1.9516,-1.8883,-1.8933,-1.9619,-2.0707,-2.1181,-2.1254,-2.1972,-2.2293,-2.231,-2.2366,-2.2405,-2.2405,-2.2487,-2.2712,-2.297,-2.2649,-2.2884,-2.3365,-2.3102,-2.3175,-2.3417,-2.341,-2.3588,-2.3795,-2.3795,-2.3996,-2.419,-2.419,-2.419,-2.419,-2.419,-2.419,-2.419,-2.419,-2.419,-2.419,-2.419,-2.419,-2.419,-2.419,-2.419,-2.3971,-2.3314,0.0,0.0,0.0,-2.2741,0.0,-2.2393,-2.0295,-1.9201,-2.0096,-1.8685,0.0,0.0,0.0,-1.9635,-2.1455,-1.9928,0.0,-2.3956,-2.4024,0.0,-2.3995,-2.4859,-2.5302,-2.5303,-2.5303,-2.5774,-2.6659,-2.8332,-2.9102,-2.9159,-3.0025,-3.0398,-3.0398,-3.0398,-3.0398,-3.0398,-3.0398,-3.0398,-3.0398,-3.0398,-3.0398,-3.0398,-1.8851,-1.8912,-1.8912,-1.8912,-1.9026,-1.9101,-1.9101,-1.9101,-1.9101,-1.9101,-1.9101,-1.9384,-2.012,-2.0189,-2.0258,0.0,-2.0379,-2.0764,0.0,-2.1797,-2.184,-2.194,-2.184,-2.1915,-2.2123,-2.2152,-2.2209,-2.231,0.0,0.0,-2.1436,-2.1216,-2.125,-2.1453,-2.1803,-2.1936,-2.1972,-2.2209,-2.2338,-2.2366,-2.2377,-2.2432,-2.246,-2.2487,-2.2569,-2.2659,-2.2579,-2.2685,-2.285,-2.2816,-2.285,-2.2927,-2.2935,-2.3218,-2.3522,-2.3522,-2.3714,-2.3917,-2.3917,-2.4074,-2.419,-2.419,-2.419,-2.419,-2.419,-2.419,-2.419,-2.419,-2.419,-2.419,-2.419,-2.419,-2.4137,-2.3915,-2.4136,0.0,-2.4238,0.0,-2.2135,-2.2305,-2.1079,-2.013,-1.987,-1.9866,0.0,0.0,0.0,-1.9545,-2.1366,0.0,0.0,0.0,-2.4283,0.0,-2.4005,-2.486,-2.5303,-2.5303,-2.5303,-2.5774,-2.664,-2.7775,-2.8582,-2.914,-3.0025,-3.0398,-3.0398,-3.0398,-3.0398,-3.0398,-3.0398,-3.0398,-3.0398,-3.0398,-3.0398,-3.0398,-1.9064,-1.9101,-1.9101,-1.9101,-1.9101,-1.9101,-1.9101,-1.9101,-1.9101,-1.9101,-1.925,-1.9435,-1.969,-1.969,0.0,-1.969,-1.969,-2.0311,-2.1721,-2.1797,-2.1869,-2.1982,-2.1957,-2.202,-2.2214,-2.2214,0.0,-2.231,-2.231,-2.231,-2.231,-2.231,-2.231,-2.231,-2.231,-2.2293,-2.2349,-2.2338,-2.2394,-2.2432,-2.246,-2.2515,-2.2542,-2.2569,-2.2596,-2.2579,-2.2605,-2.2632,-2.2632,-2.2685,-2.2712,-2.2712,-2.2712,-2.291,-2.317,-2.3265,-2.3473,-2.3649,-2.3649,-2.3774,-2.3917,-2.4016,-2.4054,-2.4074,-2.417,-2.419,-2.419,-2.419,-2.419,-2.419,-2.419,-2.419,-2.4191,-2.4191,-2.4247,-2.4303,-2.4429,0.0,-2.2439,0.0,0.0,0.0,0.0,-2.1081,-2.1379,0.0,0.0,0.0,0.0,0.0,-2.2652,-2.3619,-2.4694,-2.4992,-2.4465,-2.5014,-2.5293,-2.5303,-2.5303,-2.5591,-2.614,-2.7005,-2.7852,-2.8698,-2.9544,-3.0102,-3.0398,-3.0398,-3.0398,-3.0398,-3.0398,-3.0398,-3.0398,-3.0398,-3.0421,-3.0444,-1.9101,-1.9101,-1.9101,-1.9101,-1.9101,-1.9101,-1.9101,-1.9101,-1.9101,-1.9101,-1.9435,-1.969,-1.969,-1.969,-1.969,-1.969,0.0,0.0,-2.1721,-2.1797,-2.1869,-2.1969,-2.2015,-2.2061,-2.2157,-2.214,-2.2168,-2.2225,-2.2225,-2.2237,-2.231,-2.231,-2.231,-2.231,-2.231,-2.2349,-2.2398,-2.2405,-2.2432,-2.2515,-2.2579,-2.2605,-2.2605,-2.2685,-2.2712,-2.2712,-2.2712,-2.2712,-2.2712,-2.2712,-2.2712,-2.2712,-2.2712,-2.2746,-2.2807,-2.2995,-2.3212,-2.3369,-2.3369,-2.3392,-2.3459,-2.3714,-2.3774,-2.3837,-2.4113,-2.417,-2.417,-2.4208,-2.419,-2.419,-2.419,-2.419,-2.419,-2.419,-2.4209,-2.4209,-2.4209,-2.3511,-2.305,0.0,0.0,0.0,-2.2173,-2.2262,-2.2632,0.0,0.0,0.0,0.0,0.0,-2.2661,-2.5111,-2.5176,-2.5187,-2.5182,-2.5252,-2.5292,-2.5303,-2.5303,-2.5303,-2.5322,-2.6197,-2.7082,-2.7928,-2.8736,-2.9583,-3.0398,-3.0398,-3.0398,-3.0398,-3.041,-3.041,-3.0398,-3.041,-3.0455,-3.0509,0.0,0.0,-1.9101,-1.9101,-1.9101,-1.9101,-1.9101,-1.9101,-1.9101,-1.9101,-1.9176,-1.9362,-1.969,-1.969,-1.969,-1.969,-1.969,-2.0311,-2.1721,-2.1797,-2.1811,-2.184,-2.1477,-2.1415,-2.1738,-2.1432,-2.137,-2.1524,-2.1524,-2.1797,-2.231,-2.231,-2.231,-2.231,-2.231,-2.2338,-2.2405,-2.2405,-2.246,-2.2579,-2.2579,-2.2632,-2.2685,-2.2685,-2.2712,-2.2712,-2.2712,-2.2712,-2.2712,-2.2712,-2.2712,-2.2712,-2.2712,-2.3081,-2.3436,-2.292,-2.2977,-2.3157,-2.3157,-2.3289,-2.3414,-2.3477,-2.3482,-2.3566,-2.3837,-2.3896,-2.3937,-2.4151,-2.419,-2.419,-2.419,-2.4209,-2.421,-2.421,-2.4229,-2.4284,-2.4284,-2.3529,-2.3013,0.0,-2.2884,-2.2534,-2.1957,-2.3011,-2.3358,0.0,0.0,-2.3495,-2.3836,-2.336,-2.3682,-2.5012,-2.5006,-2.5019,-2.5118,-2.5145,-2.5201,-2.5303,-2.5303,-2.5303,-2.5322,-2.6197,-2.7082,-2.7928,-2.8736,-2.9583,-3.0398,-3.0398,-3.0398,-3.041,-3.0394,-3.0402,-3.041,-3.0463,-3.0477,-3.05,-1.8851,-1.895,-1.9101,-1.9101,-1.9101,-1.9101,-1.9101,-1.9101,-1.9101,-1.9101,-1.9101,-1.9176,-1.9398,-1.9581,-1.969,-1.969,-1.969,-2.0015,-2.0797,-2.0845,-2.0845,-2.0845,-2.0565,-2.0698,-2.1291,-2.1086,-2.1055,-2.1308,-2.1308,-2.1493,-2.1857,-2.1961,-2.1991,-2.1991,-2.1991,-2.202,-2.2135,-2.2332,-2.2515,-2.2605,-2.2632,-2.2659,-2.2712,-2.2712,-2.2712,-2.2712,-2.2712,-2.2712,-2.2737,-2.3081,-2.3185,-2.3254,-2.3643,-2.404,-2.4281,-2.3884,-2.3596,-2.3354,-2.3006,-2.301,-2.3098,-2.3218,-2.3341,-2.3437,-2.3588,-2.3714,-2.3837,-2.3996,-2.4113,-2.419,-2.419,-2.419,-2.4209,-2.4209,-2.4228,-2.4247,-2.4247,-2.3842,-2.3566,-2.3566,-2.3548,-2.3382,-2.2942,-2.3694,-2.3879,-2.3115,-2.3466,0.0,-2.4043,-2.4001,-2.4249,-2.4883,-2.4893,-2.4926,-2.5006,-2.5006,-2.5056,-2.5115,-2.5171,-2.5222,-2.5241,-2.5773,-2.6486,-2.7351,-2.8179,-2.9025,-2.9833,-3.0237,-3.0398,-3.041,-3.0402,-3.0414,-3.0452,-3.0486,-3.0488,-3.05,-1.8517,-1.8774,-1.8988,-1.8988,-1.9064,-1.9101,-1.9101,-1.9101,-1.9101,-1.9101,-1.9101,-1.9101,-1.9101,-1.9472,-1.969,-1.969,-1.969,-1.969,-1.969,-1.969,-1.969,-1.969,-1.969,-2.005,-2.0797,-2.0797,-2.0926,-2.115,-2.115,-2.115,-2.115,-2.1386,-2.1462,-2.1493,-2.157,-2.1661,-2.1811,-2.2203,-2.2528,-2.2747,-2.2723,-2.2829,-2.2976,-2.2976,-2.3003,-2.3057,-2.3057,-2.3057,-2.3143,-2.3753,-2.396,-2.4081,-2.4781,-2.5074,-2.5143,-2.504,-2.4609,-2.3943,-2.3081,-2.2771,-2.2764,-2.2977,-2.3164,-2.33,-2.3341,-2.354,-2.371,-2.3714,-2.3917,-2.4074,-2.4074,-2.4113,-2.4151,-2.4151,-2.417,-2.419,-2.419,0.0,-2.419,-2.419,-2.419,-2.419,-2.419,-2.419,-2.4228,-2.4284,-2.4229,-2.4338,-2.4645,-2.4498,-2.4513,-2.4746,-2.4813,-2.4842,-2.487,-2.4893,-2.4902,-2.4902,-2.5031,-2.5061,-2.5061,-2.5201,-2.5734,-2.6608,-2.7349,-2.8225,-2.9159,-2.991,-3.0294,-3.041,-3.041,-3.0444,-3.0486,-3.0507,-3.0499,-3.051,-1.8517,-1.8556,-1.8581,-1.8581,-1.8874,-1.9101,-1.9101,-1.9101,-1.9101,-1.9101,-1.9101,-1.9101,-1.9101,-1.9472,-1.969,-1.969,-1.969,-1.969,-1.969,-1.969,-1.969,-1.969,-1.969,-1.9747,-1.9909,-2.0204,-2.0426,-2.046,-2.046,-2.046,-2.046,-2.0794,-2.0958,-2.1023,-2.1432,-2.1661,-2.1797,-2.1751,-2.2441,-2.3494,-2.2973,-2.3395,-2.4322,-2.4322,-2.444,-2.4643,-2.4643,-2.4643,-2.466,-2.4781,-2.4816,-2.485,-2.4971,-2.5436,-2.5816,-2.5178,-2.535,-2.5436,-2.3994,-2.3168,-2.2712,-2.2764,-2.279,-2.2876,-2.3084,-2.3175,-2.3253,-2.3432,-2.35,-2.3522,-2.3522,-2.3714,-2.3858,-2.3858,-2.4036,-2.419,-2.419,0.0,-2.419,-2.419,-2.419,-2.419,-2.419,-2.419,-2.419,-2.421,-2.4266,-2.4321,-2.4429,-2.4482,-2.4517,-2.4549,-2.4549,-2.4615,-2.4738,-2.4832,-2.4902,-2.4902,-2.4929,-2.4942,-2.4942,-2.4955,-2.5507,-2.6438,-2.6572,-2.757,-2.9102,-2.9236,-2.9737,-3.041,-3.0466,-3.0458,-3.0428,-3.054,-3.055,-3.052,-1.8307,-1.8517,-1.8517,-1.8517,-1.8659,-1.8774,-1.8774,-1.8774,-1.8851,-1.9064,-1.9101,-1.9101,-1.9101,-2.0494,-2.0971,-1.9809,-1.969,-1.969,-1.969,-1.969,-1.969,-1.969,-1.969,-1.969,-1.969,-2.008,-2.0304,-2.0304,-2.0304,-2.0304,-2.0304,-2.0475,-2.0561,-2.0597,-2.0991,-2.1408,-2.1795,-2.1971,-2.2604,-2.3522,-2.3276,-2.3571,-2.416,-2.416,-2.4351,-2.4571,-2.4571,-2.4571,-2.4638,-2.5028,-2.5258,-2.5449,-2.5843,-2.633,-2.6678,-2.6333,-2.5592,-2.4729,-2.3977,-2.3254,-2.2712,-2.2712,-2.2712,-2.2738,-2.2868,-2.2995,-2.3126,-2.3212,-2.3318,-2.3392,-2.3392,-2.35,-2.3631,-2.3774,-2.3896,-2.4036,-2.417,-2.419,-2.419,-2.419,-2.419,-2.419,-2.419,-2.419,-2.419,-2.4192,-2.4229,-2.4284,-2.4394,-2.4412,-2.443,-2.45,-2.45,-2.4534,-2.4599,-2.466,-2.4673,-2.4692,-2.4764,-2.4794,-2.4775,-2.4861,-2.5151,-2.5615,-2.6091,-2.6772,-2.7599,-2.8593,-2.9231,-2.9653,-3.0221,-3.0428,-3.0409,-3.051,-3.053,-3.052,-1.7598,-1.7882,-1.8016,-1.8439,-1.8135,-1.8031,-1.8545,-1.9017,-1.9523,-1.9922,-1.9478,-1.9333,-1.9928,-2.1714,-2.2236,-2.059,-2.0527,-2.0333,-1.972,-1.969,-1.969,-1.969,-1.969,-1.969,-1.969,-2.0061,-2.0235,-2.0235,-2.027,-2.027,-2.0304,-2.0304,-2.0304,-2.032,-2.078,-2.1274,-2.1776,-2.2314,-2.2999,-2.371,-2.3568,-2.3775,-2.4179,-2.4179,-2.4347,-2.4597,-2.4613,-2.463,-2.4746,-2.5347,-2.5681,-2.5947,-2.6538,-2.6875,-2.7105,-2.7169,-2.5824,-2.4253,-2.3891,-2.3254,-2.2712,-2.2712,-2.2712,-2.2712,-2.2712,-2.2868,-2.302,-2.302,-2.314,-2.3248,-2.3248,-2.3294,-2.341,-2.3671,0.0,-2.3896,-2.417,-2.419,-2.419,-2.419,-2.419,-2.419,-2.419,-2.419,-2.419,-2.4192,-2.421,-2.4266,-2.4358,-2.4358,-2.4393,-2.45,-2.45,-2.45,-2.45,-2.45,-2.45,-2.45,-2.4615,-2.4645,-2.466,-2.4764,-2.4818,-2.4884,-2.5575,-2.5982,-2.6308,-2.7693,-2.8408,-2.8677,-2.9428,-2.9902,-3.012,-3.0151,-3.0307,-3.053,-1.5869,-1.6001,-1.6552,-1.8228,-1.7089,-1.6669,-1.8651,-2.0629,-2.2087,-2.2568,-2.0582,-2.0016,-2.2352,-2.2786,-2.2815,-2.2672,-2.3067,-2.2278,-1.9839,-1.969,-1.969,-1.969,-1.969,-1.969,-1.969,-1.9919,-2.0041,-2.0111,-2.0115,-2.0185,-2.0304,-2.0304,-2.0304,-2.035,-2.1183,-2.1584,-2.1676,-2.2547,-2.3608,-2.454,-2.3889,-2.4268,-2.5282,-2.5282,-2.5468,-2.5707,-2.5903,-2.5974,-2.599,-2.6248,-2.6334,-2.6351,-2.6401,-2.6453,-2.6521,-2.6758,-2.6422,-2.5626,-2.4184,-2.3254,-2.2712,-2.2712,-2.2712,-2.2712,-2.2712,-2.2712,-2.2738,-2.2738,-2.2738,-2.2747,-2.2747,-2.2952,-2.3182,-2.341,0.0,0.0,-2.417,-2.419,-2.419,-2.419,-2.419,-2.419,-2.419,-2.419,-2.419,-2.4192,-2.4266,-2.4284,-2.4321,-2.4411,-2.45,-2.45,-2.45,-2.45,-2.45,-2.45,-2.45,-2.45,-2.4517,-2.4517,-2.4517,-2.4515,-2.4599,-2.4723,-2.4779,-2.5337,-2.62,-2.6346,-2.6904,-2.7695,-2.7712,-2.8351,-2.9273,-2.9162,-2.9736,-3.0598,-1.5703,-1.5792,-1.6426,-1.8447,-1.8264,-1.8061,-1.8867,-1.9683,-2.0283,-2.0484,-2.1042,-2.1816,-2.2786,-2.2888,-2.2888,-2.2888,-2.3053,-2.2848,-2.2173,-2.2113,-2.2113,-2.2113,-2.0557,-1.969,-1.969,-2.0587,-2.1137,-2.1272,-2.1332,-2.1391,-2.1553,-2.1553,-2.1553,-2.1532,-2.1886,-2.2194,-2.2471,-2.2863,-2.3566,-2.4436,-2.4147,-2.43,-2.4719,-2.4855,-2.5075,-2.5307,-2.5384,-2.5438,-2.5438,-2.5642,-2.5811,-2.5994,-2.6101,-2.6279,-2.6418,-2.6521,-2.591,-2.5043,-2.4479,-2.3847,-2.3254,-2.2815,-2.2712,-2.2712,-2.2712,-2.2712,-2.2712,-2.2712,-2.2712,-2.2712,-2.2712,-2.279,-2.2927,-2.3164,0.0,-2.3445,-2.3671,-2.3692,-2.3774,-2.3917,-2.3937,-2.4016,-2.417,-2.419,-2.419,-2.419,-2.4229,-2.4247,-2.4247,-2.4339,-2.4358,-2.4321,-2.4393,-2.4465,-2.45,-2.45,-2.45,-2.45,-2.45,-2.45,-2.45,-2.45,-2.4534,-2.4582,-2.4582,-2.4783,-2.5198,-2.5762,-2.6231,-2.6612,-2.7248,-2.779,-2.8203,-2.8164,-2.8441,-2.8942,-1.5513,-1.609,-1.7049,-1.8734,-1.8987,-1.8987,-1.8987,-1.8987,-1.8987,-1.8987,-2.057,-2.1752,-2.1908,-2.2509,-2.2888,-2.2888,-2.2888,-2.3023,-2.3348,-2.3523,-2.3595,-2.3595,-2.1874,-2.0917,-2.0917,-2.1814,-2.2179,-2.1931,-2.213,-2.2347,-2.2501,-2.2309,-2.2248,-2.2301,-2.244,-2.2709,-2.3033,-2.331,-2.3748,-2.4302,-2.4302,-2.4302,-2.4317,-2.4467,-2.463,-2.4806,-2.4846,-2.4886,-2.4926,-2.5123,-2.5355,-2.5605,-2.5717,-2.601,-2.6279,-2.6279,-2.5598,-2.4814,-2.4529,-2.4054,-2.3476,-2.2848,-2.2712,-2.2712,-2.2712,-2.2712,-2.2712,-2.2712,-2.2712,-2.2712,-2.2712,-2.2712,-2.279,-2.307,-2.3095,-2.3157,-2.3369,-2.3392,-2.3459,-2.3649,-2.3671,-2.3774,-2.4054,-2.4074,-2.4113,-2.419,-2.4191,-2.421,-2.4229,-2.4266,-2.4266,-2.4229,-2.4321,-2.4412,-2.4465,-2.4482,-2.45,-2.45,-2.45,-2.45,-2.45,-2.45,-2.45,-2.45,-2.45,-2.45,-2.4554,-2.5192,-2.5499,-2.5584,-2.6295,-2.6788,-2.7159,-2.7121,-2.7377,-2.7877,-1.5131,-1.6699,-1.8302,-1.8893,-1.8987,-1.8987,-1.8987,-1.8987,-1.8987,-1.8987,-1.8987,-1.9186,-1.9759,-2.1623,-2.2888,-2.2888,-2.2888,-2.2888,-2.2888,-2.3304,-2.3595,-2.3595,-2.3595,-2.3595,-2.3595,-2.3595,-2.2981,-2.171,-2.232,-2.2732,-2.3002,-2.2386,-2.2171,-2.2332,-2.2817,-2.3018,-2.3079,-2.3933,-2.4302,-2.4302,-2.4302,-2.4302,-2.4302,-2.4302,-2.4302,-2.4317,-2.4508,-2.4589,-2.463,-2.4926,-2.5139,-2.5294,-2.5294,-2.5621,-2.5974,-2.5974,-2.5726,-2.5229,-2.4394,-2.3689,-2.3102,-2.2794,-2.2685,-2.2712,-2.2712,-2.2712,-2.2712,-2.2712,-2.2712,-2.2712,-2.2712,-2.2712,-2.279,-2.3052,-2.3095,-2.3157,-2.3364,-2.3392,-2.3392,-2.3392,-2.3392,-2.35,-2.3774,-2.3795,-2.3917,-2.417,-2.4191,-2.4229,-2.4303,-2.4247,-2.4229,-2.4303,-2.4284,-2.4339,-2.4394,-2.4465,-2.45,-2.45,-2.45,-2.45,-2.45,-2.45,-2.45,-2.45,-2.45,-2.45,-2.45,-2.45,-2.4582,-2.4692,-2.4549,-2.5177,-2.617,-2.6042,-2.665,-2.7689,-1.6905,-1.7672,-1.8139,-1.8356,-1.8356,-1.8356,-1.8356,-1.8721,-1.8987,-1.8987,-1.8987,-1.904,-1.9198,-2.0144,-2.0733,-2.0733,-2.0733,-2.0733,-2.0733,-2.1237,-2.186,-2.2543,-2.3231,-2.3595,-2.3595,-2.3595,-2.3415,-2.3026,-2.3203,-2.3405,-2.3644,-2.3534,-2.3555,-2.3651,-2.3749,-2.3836,-2.3933,-2.4194,-2.4302,-2.4302,-2.4302,-2.4302,-2.4302,-2.4302,-2.4302,-2.4302,-2.4385,-2.4385,-2.4426,-2.463,-2.4751,-2.4831,-2.5045,-2.5278,-2.5508,-2.5508,-2.4925,-2.4232,-2.3984,-2.3164,-2.2341,-2.222,-2.2343,-2.2487,-2.2487,-2.2605,-2.2712,-2.2712,-2.2712,-2.2712,-2.2712,-2.2712,-2.2738,-2.2816,-2.2816,-2.2825,-2.291,-2.291,-2.2985,-2.3182,-2.3206,-2.3283,-2.35,-2.3522,-2.3649,-2.3896,-2.4095,-2.4209,-2.4228,-2.4209,-2.4228,-2.4228,-2.4229,-2.4247,-2.4266,-2.4375,-2.4447,-2.45,-2.45,-2.45,-2.45,-2.45,-2.45,-2.45,-2.45,-2.45,-2.45,-2.45,-2.4534,-2.4549,-2.4517,-2.4748,-2.508,-2.5032,-2.5242,-2.5697,-1.7844,-1.8084,-1.8084,-1.8084,-1.8084,-1.8084,-1.8084,-1.841,-1.8614,-1.8614,-1.8827,-1.8987,-1.8987,-1.9303,-1.9552,-1.9798,-1.9798,-1.9798,-1.9798,-2.0118,-2.0795,-2.188,-2.2543,-2.3098,-2.3595,-2.3595,-2.3595,-2.3595,-2.3595,-2.3653,-2.3769,-2.3839,-2.3982,-2.4097,-2.4082,-2.4166,-2.4234,-2.4261,-2.4302,-2.4302,-2.4302,-2.4302,-2.4302,-2.4302,-2.4302,-2.4302,-2.4302,-2.4302,-2.4317,-2.4426,-2.4549,-2.463,-2.4926,-2.5084,-2.5178,-2.5178,-2.4344,-2.3448,-2.3448,-2.2492,-2.1524,-2.1524,-2.1899,-2.2276,-2.2377,-2.2487,-2.2605,-2.2685,-2.2712,-2.2712,-2.2712,-2.2712,-2.2712,-2.2712,-2.2712,-2.2712,-2.2712,-2.2712,-2.2764,-2.2902,-2.2944,-2.301,-2.3265,-2.3289,-2.3382,-2.361,-2.3795,-2.3917,-2.4054,-2.4036,-2.4094,-2.4208,-2.419,-2.421,-2.4192,-2.4284,-2.4358,-2.4411,-2.4447,-2.4465,-2.4465,-2.4482,-2.45,-2.45,-2.45,-2.45,-2.45,-2.45,-2.45,-2.45,-2.45,-2.4515,-2.4549,-2.4549,-2.4615,-2.4789,-1.8084,-1.8084,-1.8084,-1.8084,-1.8084,-1.8084,-1.8084,-1.8084,-1.8084,-1.8084,-1.8625,-1.8987,-1.8987,-1.8987,-1.9198,-1.9708,-1.9747,-1.9798,-1.9747,-1.9798,-2.032,-2.1459,-2.1527,-2.2109,-2.3319,-2.3319,-2.3319,-2.3319,-2.3508,-2.3595,-2.3595,-2.3595,-2.3711,-2.3885,-2.3997,-2.4082,-2.4082,-2.4193,-2.4261,-2.4261,-2.4261,-2.4261,-2.4261,-2.4261,-2.4317,-2.4302,-2.4302,-2.4302,-2.4302,-2.4302,-2.4426,-2.463,-2.4846,-2.4966,-2.4966,-2.4966,-2.397,-2.288,-2.288,-2.1853,-2.0794,-2.0794,-2.137,-2.1969,-2.2248,-2.2349,-2.2432,-2.2632,-2.2659,-2.2685,-2.2685,-2.2712,-2.2712,-2.2712,-2.2712,-2.2712,-2.2712,-2.2712,-2.2712,-2.2712,-2.2712,-2.279,-2.3045,-2.3095,-2.3182,-2.3364,-2.3392,-2.3522,-2.3735,-2.3756,-2.3876,-2.4113,-2.4151,-2.4171,-2.4173,-2.4192,-2.4229,-2.4284,-2.4358,-2.4394,-2.4394,-2.4465,-2.4482,-2.45,-2.4482,-2.4482,-2.45,-2.45,-2.45,-2.45,-2.45,-2.45,-2.45,-2.45,-2.4551,-2.4711,-1.8084,-1.8084,-1.8084,-1.8084,-1.8084,-1.8084,-1.8084,-1.8084,-1.8084,-1.8084,-1.8625,-1.8987,-1.8987,-1.8987,-1.904,-1.9146,-1.9552,-1.9708,-1.9512,-1.9656,-1.9901,-2.0181,-2.0359,-2.0723,-2.1299,-2.1348,-2.1348,-2.1348,-2.286,-2.3595,-2.3595,-2.3595,-2.3595,-2.3653,-2.3696,-2.3839,-2.4024,-2.3824,-2.3867,-2.4067,-2.4067,-2.4109,-2.4151,-2.4151,-2.4193,-2.4302,-2.4302,-2.4302,-2.4302,-2.4302,-2.4343,-2.4385,-2.4426,-2.4549,-2.467,-2.467,-2.3856,-2.288,-2.288,-2.1853,-2.0794,-2.0794,-2.0942,-2.1166,-2.154,-2.1869,-2.2158,-2.2415,-2.246,-2.2515,-2.2659,-2.2712,-2.2712,-2.2712,-2.2712,-2.2712,-2.2712,-2.2712,-2.2712,-2.2712,-2.2712,-2.2712,-2.279,-2.2995,-2.3102,-2.3157,-2.3312,-2.3414,-2.3482,-2.35,-2.3522,-2.3566,-2.3774,-2.3896,-2.3878,-2.4113,-2.4228,-2.4284,-2.4303,-2.4339,-2.4394,-2.4358,-2.4393,-2.45,-2.4393,-2.4393,-2.45,-2.4447,-2.4447,-2.45,-2.45,-2.45,-2.45,-2.45,-2.4517,-2.4552,-1.8084,-1.8084,-1.8084,-1.8084,-1.8084,-1.8084,-1.8084,-1.8084,-1.8084,-1.8084,-1.8356,-1.8667,-1.8987,-1.8987,-1.9093,-1.9344,-1.9656,-1.9759,-1.9617,-1.9708,-1.9798,-1.9798,-1.9978,-2.0131,-2.0283,-2.0448,-2.0612,-2.0699,-2.1718,-2.2221,-2.2221,-2.3187,-2.3595,-2.3595,-2.3595,-2.3696,-2.3797,-2.3653,-2.3508,-2.3377,-2.3696,-2.3711,-2.3581,-2.3855,-2.4124,-2.4234,-2.4234,-2.4276,-2.4302,-2.4302,-2.4302,-2.4302,-2.4302,-2.4385,-2.4467,-2.4467,-2.3818,-2.3008,-2.2717,-2.1858,-2.0967,-2.0655,-2.0595,-2.0745,-2.1166,-2.143,-2.1672,-2.2032,-2.2106,-2.2175,-2.247,-2.2525,-2.2579,-2.2632,-2.2685,-2.2712,-2.2712,-2.2712,-2.2712,-2.2712,-2.2712,-2.2712,-2.2712,-2.2842,-2.2919,-2.2919,-2.301,-2.3122,-2.3242,-2.3259,-2.3312,-2.3392,-2.3544,-2.3671,-2.3795,-2.3937,-2.4075,-2.4247,-2.4247,-2.4266,-2.4303,-2.4284,-2.4339,-2.4393,-2.4339,-2.4339,-2.4393,-2.4412,-2.443,-2.4465,-2.4482,-2.45,-2.45,-2.45,-2.45,-2.45,-1.7457,-1.7457,-1.7457,-1.7457,-1.7457,-1.7457,-1.7457,-1.7457,-1.7457,-1.7457,-1.7854,-1.8302,-1.8774,-1.8934,-1.9198,-1.9592,-1.9643,-1.9708,-1.9798,-1.9759,-1.9759,-1.9747,-1.9875,-1.9926,-1.9862,-2.0144,-2.041,-2.0599,-2.0649,-2.0699,-2.0749,-2.236,-2.3098,-2.3098,-2.3098,-2.3098,-2.3143,-2.3334,-2.3098,-2.2649,-2.3143,-2.3098,-2.2889,-2.3509,-2.387,-2.4024,-2.4124,-2.4208,-2.4261,-2.4261,-2.4317,-2.4302,-2.4302,-2.4302,-2.4302,-2.4302,-2.3825,-2.3148,-2.2471,-2.1793,-2.1152,-2.0474,-2.0392,-2.0545,-2.0894,-2.1023,-2.1181,-2.1584,-2.1675,-2.1781,-2.2101,-2.222,-2.2304,-2.2443,-2.2535,-2.2605,-2.2632,-2.2659,-2.2685,-2.2685,-2.2685,-2.2685,-2.2712,-2.2685,-2.2685,-2.2685,-2.2685,-2.279,-2.2995,-2.302,-2.3084,-2.323,-2.3294,-2.3432,-2.3667,-2.371,-2.3876,-2.4113,-2.4115,-2.4154,-2.421,-2.4247,-2.4303,-2.4284,-2.4303,-2.4303,-2.4303,-2.4339,-2.4394,-2.4412,-2.4465,-2.4482,-2.45,-2.45,-2.45,-2.45,-1.497,-1.497,-1.497,-1.497,-1.497,-1.497,-1.497,-1.497,-1.497,-1.497,-1.6786,-1.8139,-1.8193,-1.8667,-1.904,-1.9093,-1.9093,-1.9291,-1.9747,-1.9681,-1.9641,-1.9617,-1.9759,-1.9862,-1.9978,-1.9914,-2.0016,-2.0283,-2.0549,-2.0699,-2.0699,-2.0983,-2.1068,-2.1068,-2.1068,-2.1068,-2.1166,-2.2282,-2.2694,-2.2558,-2.236,-2.2314,-2.2466,-2.2979,-2.3246,-2.3406,-2.3839,-2.4124,-2.4208,-2.4208,-2.4234,-2.4302,-2.4302,-2.4302,-2.4302,-2.4302,-2.3825,-2.3148,-2.2471,-2.1793,-2.1152,-2.0474,-2.0304,-2.0339,-2.0392,-2.0613,-2.0909,-2.115,-2.1197,-2.1275,-2.1568,-2.1615,-2.1675,-2.1886,-2.2056,-2.2226,-2.2343,-2.2552,-2.2685,-2.2605,-2.2605,-2.2632,-2.2685,-2.2659,-2.2605,-2.2605,-2.2659,-2.2659,-2.2596,-2.2632,-2.2659,-2.2615,-2.2884,-2.3077,-2.3126,-2.3335,-2.3588,-2.3837,-2.3858,-2.3979,-2.4192,-2.4209,-2.4247,-2.4303,-2.4247,-2.4266,-2.4303,-2.4247,-2.4303,-2.4394,-2.4412,-2.4447,-2.45,-2.45,-2.45,-2.45,-1.3941,-1.4258,-1.4515,-1.4515,-1.4515,-1.4515,-1.4515,-1.4515,-1.4515,-1.4515,-1.542,-1.6104,-1.6104,-1.782,-1.8987,-1.8987,-1.8375,-1.8363,-1.9291,-1.9186,-1.9239,-1.9617,-1.9759,-1.9811,-1.9875,-1.985,-1.9862,-1.9965,-2.0118,-2.0385,-2.0699,-2.0699,-2.0699,-2.0699,-2.0699,-2.0983,-2.1479,-2.1541,-2.1732,-2.2063,-2.1921,-2.1827,-2.1874,-2.2374,-2.2603,-2.277,-2.3319,-2.3551,-2.3638,-2.4094,-2.4276,-2.4302,-2.4302,-2.4302,-2.4302,-2.4302,-2.4087,-2.3625,-2.2578,-2.207,-2.1593,-2.0566,-2.0304,-2.0304,-2.0304,-2.0407,-2.0561,-2.073,-2.0747,-2.0845,-2.115,-2.1244,-2.1337,-2.1524,-2.1675,-2.1836,-2.2101,-2.2243,-2.2371,-2.2542,-2.2525,-2.2569,-2.2596,-2.2569,-2.2525,-2.2525,-2.2569,-2.2569,-2.2515,-2.2542,-2.2542,-2.2515,-2.2632,-2.2773,-2.2935,-2.3049,-2.3248,-2.3477,-2.3482,-2.3756,-2.4209,-2.4209,-2.4209,-2.4228,-2.4209,-2.4209,-2.4228,-2.421,-2.4266,-2.4339,-2.4394,-2.4447,-2.45,-2.45,-2.45,-2.45]}]]